[[{"header":{"parameterUnit":"m.s-1","parameterCategory":1,"la1":30.6,"la2":29.2853,"lo1":-89.7004,"lo2":-87.6739,"dy":0.0162,"dx":0.0183,"nx":112,"ny":82,"refTime":"2026-04-12T00:00:00:Z","depth":0,"parameterNumber":2,"parameterNumberName":"U-component_of_WINDS"},"data":[0.0,0.0,0.0,0.0,0.0,0.0,0.0,0.0,0.0,0.0,0.0,0.0,0.0,0.0,0.0,0.0,0.0,0.0,0.0,0.0,0.0,0.0,0.0,0.0,0.0,0.0,0.0,0.0,0.0,0.0,0.0,0.0,0.0,0.0,0.0,0.0,0.0,0.0,0.0,0.0,0.0,0.0,0.0,0.0,0.0,0.0,0.0,0.0,0.0,0.0,0.0,0.0,0.0,0.0,0.0,0.0,0.0,0.0,0.0,0.0,0.0,0.0,0.0,0.0,0.0,0.0,0.0,0.0,0.0,0.0,0.0,0.0,0.0,0.0,0.0,0.0,0.0,0.0,0.0,0.0,0.0,0.0,0.0,0.0,0.0,0.0,0.0,0.0,0.0,0.0,-2.4153,-2.9354,-3.3844,-3.5532,-3.317,-3.1384,-2.8705,-2.4814,0.0,0.0,0.0,0.0,0.0,0.0,0.0,0.0,0.0,0.0,0.0,0.0,0.0,0.0,0.0,0.0,0.0,0.0,0.0,0.0,0.0,0.0,0.0,0.0,0.0,0.0,0.0,0.0,0.0,0.0,0.0,0.0,0.0,0.0,0.0,0.0,0.0,0.0,0.0,0.0,0.0,0.0,0.0,0.0,0.0,0.0,0.0,0.0,0.0,0.0,0.0,0.0,0.0,0.0,0.0,0.0,0.0,0.0,0.0,0.0,0.0,0.0,0.0,0.0,0.0,0.0,0.0,0.0,0.0,0.0,0.0,0.0,0.0,0.0,0.0,0.0,0.0,0.0,0.0,0.0,0.0,0.0,0.0,0.0,0.0,0.0,0.0,0.0,0.0,0.0,0.0,0.0,0.0,0.0,0.0,0.0,0.0,0.0,0.0,0.0,0.0,0.0,0.0,0.0,-2.6465,-3.3353,-3.6046,-3.6597,-3.4784,-3.2559,-2.9769,-2.6465,0.0,0.0,0.0,0.0,0.0,0.0,0.0,0.0,0.0,0.0,0.0,0.0,0.0,0.0,0.0,0.0,0.0,0.0,0.0,0.0,0.0,0.0,0.0,0.0,0.0,0.0,0.0,0.0,0.0,0.0,0.0,0.0,0.0,0.0,0.0,0.0,0.0,0.0,0.0,0.0,0.0,0.0,0.0,0.0,0.0,0.0,0.0,0.0,0.0,0.0,0.0,0.0,0.0,0.0,0.0,0.0,0.0,0.0,0.0,0.0,0.0,0.0,0.0,0.0,0.0,0.0,0.0,0.0,0.0,0.0,0.0,0.0,0.0,0.0,0.0,0.0,0.0,0.0,0.0,0.0,0.0,0.0,0.0,0.0,0.0,0.0,0.0,0.0,0.0,0.0,0.0,0.0,0.0,0.0,0.0,0.0,0.0,0.0,0.0,0.0,0.0,0.0,0.0,-2.5511,-3.0344,-3.4564,-3.689,-3.7477,-3.5848,-3.3476,-3.0503,-2.6822,-2.2428,0.0,0.0,0.0,0.0,0.0,0.0,0.0,0.0,0.0,0.0,0.0,0.0,0.0,0.0,0.0,0.0,0.0,0.0,0.0,0.0,0.0,0.0,0.0,0.0,0.0,0.0,0.0,0.0,0.0,0.0,0.0,0.0,0.0,0.0,0.0,0.0,0.0,0.0,0.0,0.0,0.0,0.0,0.0,0.0,0.0,0.0,0.0,0.0,0.0,0.0,0.0,0.0,0.0,0.0,0.0,0.0,0.0,0.0,0.0,0.0,0.0,0.0,0.0,0.0,0.0,0.0,0.0,0.0,0.0,0.0,0.0,0.0,0.0,0.0,0.0,0.0,0.0,0.0,0.0,0.0,0.0,0.0,0.0,0.0,0.0,0.0,0.0,0.0,0.0,0.0,0.0,0.0,0.0,0.0,0.0,0.0,0.0,0.0,0.0,0.0,0.0,0.0,-3.0026,-3.35,-3.5114,-3.7353,-3.7991,-3.6156,-3.3733,-3.0675,-2.6822,-2.2566,0.0,0.0,0.0,0.0,0.0,0.0,0.0,0.0,0.0,0.0,0.0,0.0,0.0,0.0,0.0,0.0,0.0,0.0,0.0,0.0,0.0,0.0,0.0,0.0,0.0,0.0,0.0,0.0,0.0,0.0,0.0,0.0,0.0,0.0,0.0,0.0,0.0,0.0,0.0,0.0,0.0,0.0,0.0,0.0,0.0,0.0,0.0,0.0,0.0,0.0,0.0,0.0,0.0,0.0,0.0,0.0,0.0,0.0,0.0,0.0,0.0,0.0,0.0,0.0,0.0,0.0,0.0,0.0,0.0,0.0,0.0,0.0,0.0,0.0,0.0,0.0,0.0,0.0,0.0,0.0,0.0,0.0,0.0,0.0,0.0,0.0,0.0,0.0,0.0,0.0,0.0,0.0,0.0,0.0,0.0,0.0,0.0,0.0,0.0,0.0,0.0,0.0,-3.1201,-3.4357,-3.6046,-3.7698,-3.7734,-3.5298,-3.2889,-3.0099,-2.6833,-2.2061,0.0,0.0,0.0,0.0,0.0,0.0,0.0,0.0,0.0,0.0,0.0,0.0,0.0,0.0,0.0,0.0,0.0,0.0,0.0,0.0,0.0,0.0,0.0,0.0,0.0,0.0,0.0,0.0,0.0,0.0,0.0,0.0,0.0,0.0,0.0,0.0,0.0,0.0,0.0,0.0,0.0,0.0,0.0,0.0,0.0,0.0,0.0,0.0,0.0,0.0,0.0,0.0,0.0,0.0,0.0,0.0,0.0,0.0,0.0,0.0,0.0,0.0,0.0,0.0,0.0,0.0,0.0,0.0,0.0,0.0,0.0,0.0,0.0,0.0,0.0,0.0,0.0,0.0,0.0,0.0,0.0,0.0,0.0,0.0,0.0,0.0,0.0,0.0,0.0,0.0,0.0,0.0,0.0,0.0,0.0,0.0,0.0,0.0,0.0,0.0,0.0,0.0,-3.1751,-3.5018,-3.6156,-3.7734,-3.7683,-3.5224,-3.2779,-2.9818,-2.6109,0.0,0.0,0.0,0.0,0.0,0.0,0.0,0.0,0.0,0.0,0.0,0.0,0.0,0.0,0.0,0.0,0.0,0.0,0.0,0.0,0.0,0.0,0.0,0.0,0.0,0.0,0.0,0.0,0.0,0.0,0.0,0.0,0.0,0.0,0.0,0.0,0.0,0.0,0.0,0.0,0.0,0.0,0.0,0.0,0.0,0.0,0.0,0.0,0.0,0.0,0.0,0.0,0.0,0.0,0.0,0.0,0.0,0.0,0.0,0.0,0.0,0.0,0.0,0.0,0.0,0.0,0.0,0.0,0.0,0.0,0.0,0.0,0.0,0.0,0.0,0.0,0.0,0.0,0.0,0.0,0.0,0.0,0.0,0.0,0.0,0.0,0.0,0.0,0.0,0.0,0.0,0.0,0.0,0.0,0.0,0.0,0.0,0.0,0.0,0.0,0.0,0.0,-2.775,-3.2399,-3.5628,-3.6229,-3.7734,-3.7683,-3.5224,-3.2559,-2.9414,-2.5631,0.0,0.0,0.0,0.0,0.0,0.0,0.0,0.0,0.0,0.0,0.0,0.0,0.0,0.0,0.0,0.0,0.0,0.0,0.0,0.0,0.0,0.0,0.0,0.0,0.0,0.0,0.0,0.0,0.0,0.0,0.0,0.0,0.0,0.0,0.0,0.0,0.0,0.0,0.0,0.0,0.0,0.0,0.0,0.0,0.0,0.0,0.0,0.0,0.0,0.0,0.0,0.0,0.0,0.0,0.0,0.0,0.0,0.0,0.0,0.0,0.0,0.0,0.0,0.0,0.0,0.0,0.0,0.0,0.0,0.0,0.0,0.0,0.0,0.0,0.0,0.0,0.0,0.0,0.0,0.0,0.0,0.0,0.0,0.0,0.0,0.0,0.0,0.0,0.0,0.0,0.0,0.0,0.0,0.0,0.0,0.0,0.0,0.0,0.0,0.0,0.0,0.0,-2.8473,-3.3256,-3.6303,-3.6303,-3.7734,-3.7683,-3.5224,-3.2069,-2.8851,0.0,0.0,0.0,0.0,0.0,0.0,0.0,0.0,0.0,0.0,0.0,0.0,0.0,0.0,0.0,0.0,0.0,0.0,0.0,0.0,0.0,0.0,0.0,0.0,0.0,0.0,0.0,0.0,0.0,0.0,0.0,0.0,0.0,0.0,0.0,0.0,0.0,0.0,0.0,0.0,0.0,0.0,0.0,0.0,0.0,0.0,0.0,0.0,0.0,0.0,0.0,0.0,0.0,0.0,0.0,0.0,0.0,0.0,0.0,0.0,0.0,0.0,0.0,0.0,0.0,0.0,0.0,0.0,0.0,0.0,0.0,0.0,0.0,0.0,0.0,0.0,0.0,0.0,0.0,0.0,0.0,0.0,0.0,0.0,0.0,0.0,0.0,0.0,0.0,0.0,0.0,0.0,0.0,0.0,0.0,0.0,0.0,0.0,0.0,0.0,0.0,0.0,0.0,-2.8473,-3.3256,-3.6303,-3.6303,-3.7734,-3.7683,-3.5224,-3.3096,-3.0026,-2.5668,0.0,0.0,0.0,0.0,0.0,0.0,0.0,0.0,0.0,0.0,0.0,0.0,0.0,0.0,0.0,0.0,0.0,0.0,0.0,0.0,0.0,0.0,0.0,0.0,0.0,0.0,0.0,0.0,0.0,0.0,0.0,0.0,0.0,0.0,0.0,0.0,0.0,0.0,0.0,0.0,0.0,0.0,0.0,0.0,0.0,0.0,0.0,0.0,0.0,0.0,0.0,0.0,0.0,0.0,0.0,0.0,0.0,0.0,0.0,0.0,0.0,0.0,0.0,0.0,0.0,0.0,0.0,0.0,0.0,0.0,0.0,0.0,0.0,0.0,0.0,0.0,0.0,0.0,0.0,0.0,0.0,0.0,0.0,0.0,0.0,0.0,0.0,0.0,0.0,0.0,0.0,0.0,0.0,0.0,0.0,0.0,0.0,0.0,0.0,0.0,0.0,0.0,-2.8436,-3.3256,-3.6303,-3.6303,-3.7734,-3.7845,-3.5701,-3.372,-3.0797,-2.6623,0.0,0.0,0.0,0.0,0.0,0.0,0.0,0.0,0.0,0.0,0.0,0.0,0.0,0.0,0.0,0.0,0.0,0.0,0.0,0.0,0.0,0.0,0.0,0.0,0.0,0.0,0.0,0.0,0.0,0.0,0.0,0.0,0.0,0.0,0.0,0.0,0.0,0.0,0.0,0.0,0.0,0.0,0.0,0.0,0.0,0.0,0.0,0.0,0.0,0.0,0.0,0.0,0.0,0.0,0.0,0.0,0.0,0.0,0.0,0.0,0.0,0.0,0.0,0.0,0.0,0.0,0.0,0.0,0.0,0.0,0.0,0.0,0.0,0.0,0.0,0.0,0.0,0.0,0.0,0.0,0.0,0.0,0.0,0.0,0.0,0.0,0.0,0.0,0.0,0.0,0.0,0.0,0.0,0.0,0.0,0.0,0.0,0.0,0.0,0.0,0.0,0.0,-2.84,-3.3256,-3.6303,-3.6303,-3.7734,-3.8065,-3.645,-3.41,-3.1311,-2.8007,0.0,0.0,0.0,0.0,0.0,0.0,0.0,0.0,0.0,0.0,0.0,0.0,0.0,0.0,0.0,0.0,0.0,0.0,0.0,0.0,0.0,0.0,0.0,0.0,0.0,0.0,0.0,0.0,0.0,0.0,0.0,0.0,0.0,0.0,0.0,0.0,0.0,0.0,0.0,0.0,0.0,0.0,0.0,0.0,0.0,0.0,0.0,0.0,0.0,0.0,0.0,0.0,0.0,0.0,0.0,0.0,0.0,0.0,0.0,0.0,-2.4667,-2.2749,0.0,0.0,0.0,0.0,0.0,0.0,0.0,0.0,0.0,0.0,0.0,0.0,0.0,0.0,0.0,0.0,0.0,0.0,0.0,0.0,0.0,0.0,0.0,0.0,0.0,0.0,0.0,0.0,0.0,0.0,0.0,0.0,0.0,0.0,0.0,0.0,0.0,0.0,0.0,0.0,-2.8473,-3.3256,-3.6303,-3.6303,-3.7734,-3.8065,-3.645,-3.4614,-3.1898,-2.8044,-2.43,0.0,0.0,0.0,0.0,0.0,0.0,0.0,0.0,0.0,0.0,0.0,0.0,0.0,0.0,0.0,0.0,0.0,0.0,0.0,0.0,0.0,0.0,0.0,0.0,0.0,0.0,0.0,0.0,0.0,0.0,0.0,0.0,0.0,0.0,0.0,0.0,0.0,0.0,0.0,0.0,0.0,0.0,0.0,0.0,0.0,0.0,0.0,0.0,0.0,0.0,0.0,0.0,0.0,0.0,0.0,0.0,0.0,0.0,0.0,-2.9145,-2.6833,0.0,0.0,0.0,0.0,0.0,0.0,0.0,0.0,0.0,0.0,0.0,0.0,0.0,0.0,0.0,0.0,0.0,0.0,0.0,0.0,0.0,0.0,0.0,0.0,0.0,0.0,0.0,0.0,0.0,0.0,0.0,0.0,0.0,0.0,0.0,0.0,0.0,0.0,0.0,0.0,-2.8473,-3.3256,-3.6303,-3.6303,-3.7734,-3.8065,-3.645,-3.5128,-3.2839,-2.9182,-2.5915,0.0,0.0,0.0,0.0,0.0,0.0,0.0,0.0,0.0,0.0,0.0,0.0,0.0,0.0,0.0,0.0,0.0,0.0,0.0,0.0,0.0,0.0,0.0,0.0,0.0,0.0,0.0,0.0,0.0,0.0,0.0,0.0,0.0,0.0,0.0,0.0,0.0,0.0,0.0,0.0,0.0,0.0,0.0,0.0,0.0,0.0,0.0,0.0,0.0,0.0,0.0,0.0,0.0,-3.4908,-3.5642,-3.6288,-3.6619,-3.7404,-3.8374,-3.5142,-3.2779,-3.1201,-3.0234,0.0,0.0,0.0,0.0,0.0,0.0,0.0,0.0,0.0,0.0,0.0,0.0,0.0,0.0,0.0,0.0,0.0,0.0,0.0,0.0,0.0,0.0,-3.0834,-3.0014,-3.0454,-2.9941,-2.5941,0.0,0.0,0.0,0.0,0.0,0.0,0.0,0.0,0.0,0.0,0.0,-2.8913,-3.344,-3.634,-3.6486,-3.7808,-3.8065,-3.645,-3.5481,-3.3647,-3.0393,-2.7431,-2.475,0.0,0.0,0.0,0.0,0.0,0.0,0.0,0.0,0.0,0.0,0.0,0.0,0.0,0.0,0.0,0.0,0.0,0.0,0.0,0.0,0.0,0.0,0.0,0.0,0.0,0.0,0.0,0.0,0.0,0.0,0.0,0.0,-2.2382,-2.2492,0.0,0.0,0.0,0.0,0.0,0.0,0.0,0.0,0.0,0.0,0.0,0.0,0.0,-3.399,-3.6354,-3.7404,-3.8615,-3.9994,-4.0818,-4.1222,-4.1405,-4.28,-4.3167,-4.2743,-4.2873,0.0,-3.5385,-3.3807,0.0,0.0,0.0,0.0,0.0,0.0,0.0,0.0,0.0,0.0,0.0,0.0,0.0,0.0,0.0,0.0,0.0,0.0,0.0,0.0,0.0,0.0,-3.416,-3.3366,-3.3793,-3.4197,-3.3573,-3.1298,-2.8741,-2.6429,-2.5227,-2.3832,0.0,0.0,0.0,0.0,0.0,0.0,-3.0589,-3.4137,-3.656,-3.7272,-3.8175,-3.8065,-3.645,-3.5481,-3.3647,-3.0393,-2.8484,-2.6403,-2.3969,-2.1391,0.0,0.0,0.0,0.0,0.0,0.0,0.0,0.0,0.0,0.0,0.0,0.0,0.0,0.0,0.0,0.0,0.0,0.0,0.0,0.0,0.0,0.0,0.0,0.0,0.0,0.0,0.0,0.0,0.0,-2.3043,-2.5024,-2.5024,-2.5328,-2.5217,0.0,0.0,0.0,0.0,0.0,0.0,0.0,0.0,0.0,-3.4908,-3.689,-3.8872,-4.0871,-4.2103,-4.3351,-4.4471,-4.4838,-4.548,-4.6452,-4.7131,-4.7498,-4.7572,-4.6985,-4.5333,-4.28,-3.9313,-3.6743,-3.4761,0.0,0.0,0.0,0.0,-3.1164,-3.1959,-3.2816,-3.3109,-3.2816,-3.1201,0.0,0.0,0.0,0.0,0.0,0.0,0.0,-2.9953,-3.2852,-3.5349,-3.6986,-3.6633,-3.6817,-3.6949,-3.6486,-3.5312,-3.36,-3.1127,-2.9989,-2.8374,-2.5071,-2.2464,0.0,0.0,0.0,-2.7871,-3.0993,-3.4665,-3.7125,-3.7456,-3.8212,-3.8065,-3.645,-3.5936,-3.4527,-3.1739,-3.0467,-2.8753,-2.6319,-2.3896,-2.1767,0.0,0.0,0.0,0.0,0.0,0.0,0.0,0.0,0.0,0.0,0.0,0.0,0.0,0.0,0.0,0.0,0.0,0.0,0.0,0.0,0.0,0.0,0.0,0.0,0.0,0.0,0.0,0.0,-2.6062,-2.7824,-2.7824,-2.8363,-2.8338,0.0,0.0,0.0,0.0,0.0,0.0,-3.4124,-3.6068,-3.8123,-4.0194,-4.1792,-4.3424,-4.5057,-4.625,-4.7241,-4.803,-4.803,-4.871,-4.9904,-5.0124,-5.0435,-5.0729,-4.9701,-4.915,-4.86,-4.392,-4.1168,-3.9717,-3.7426,-3.6582,-3.6545,-3.5899,-3.6193,-3.6949,-3.7624,-3.7845,-3.7551,-3.5899,-3.4541,-3.317,-3.1152,0.0,0.0,0.0,0.0,-3.3563,-3.6229,-3.8102,-3.9313,-3.9313,-3.9313,-3.9166,-3.8542,-3.841,-3.7566,-3.4688,-3.361,-3.2069,-2.8448,-2.5978,0.0,-2.5621,-2.742,-2.9597,-3.2008,-3.5363,-3.7566,-3.7786,-3.8322,-3.8065,-3.645,-3.6303,-3.5165,-3.2449,-3.1715,-3.0332,-2.7897,-2.5878,-2.3749,-2.1502,0.0,0.0,0.0,0.0,0.0,0.0,0.0,0.0,0.0,0.0,0.0,0.0,0.0,0.0,0.0,0.0,0.0,0.0,0.0,0.0,0.0,0.0,0.0,0.0,0.0,0.0,0.0,0.0,0.0,-3.1176,-3.317,0.0,0.0,0.0,0.0,-3.344,-3.6486,-3.8358,-3.8395,-4.1368,-4.3461,-4.4361,-4.5938,-4.7609,-4.928,-4.939,-4.9831,-5.0618,-5.0618,-5.0655,-5.0765,-5.1536,-5.1463,-5.0839,-5.1499,-5.1389,-5.0362,-4.6214,-4.4011,-4.3094,-4.1425,-4.0802,-4.0802,-4.0728,-4.1242,-4.1956,-4.1992,-4.1992,-4.1735,-4.012,-3.8028,-3.5936,-3.5004,-3.4124,0.0,0.0,-3.5936,-3.7419,-3.8358,-3.9774,-4.0985,-4.0985,-4.0985,-4.0948,-4.0912,-4.0912,-3.9738,-3.5738,-3.4931,-3.4087,-3.1568,0.0,-2.8987,-2.9769,-3.065,-3.2082,-3.4527,-3.6376,-3.7786,-3.8579,-3.8689,-3.8065,-3.645,-3.6303,-3.4908,-3.169,-3.1433,-3.0332,-2.7897,-2.6943,-2.5695,-2.4043,-2.1538,0.0,0.0,0.0,0.0,0.0,0.0,0.0,0.0,0.0,0.0,0.0,0.0,0.0,0.0,0.0,0.0,0.0,0.0,0.0,0.0,0.0,0.0,0.0,0.0,0.0,0.0,0.0,0.0,-3.5899,-3.6853,0.0,-3.7294,-3.7551,-3.7955,-3.8469,-4.1022,-4.3003,-4.403,-4.57,-4.7205,-4.86,-4.9187,-4.9774,-5.0362,-5.0362,-5.0765,-5.1573,-5.1573,-5.183,-5.2344,-5.2637,-5.2637,-5.2344,-5.2087,-5.183,-5.1426,-4.9444,-4.7829,-4.6434,-4.4819,-4.4195,-4.4121,-4.359,-4.3938,-4.4635,-4.4635,-4.4635,-4.4452,-4.3351,-4.1699,-4.001,-3.9187,-3.8358,-3.7771,-3.8065,-3.8579,-3.935,-4.0671,-4.1442,-4.1992,-4.2506,-4.2249,-4.1735,-4.1205,-4.0708,-3.9753,-3.7756,-3.7808,-3.7404,-3.4981,-3.361,-3.2766,-3.2559,-3.322,-3.4234,-3.5642,-3.7257,-3.8395,-3.8689,-3.8689,-3.8065,-3.645,-3.6303,-3.5128,-3.2339,-3.1678,-3.054,-2.8656,-2.7787,-2.6355,-2.4226,-2.2822,-2.1025,0.0,0.0,0.0,0.0,0.0,0.0,0.0,0.0,0.0,0.0,0.0,0.0,0.0,0.0,0.0,0.0,0.0,0.0,0.0,0.0,0.0,0.0,0.0,0.0,0.0,-3.4087,-3.7353,-3.9276,-4.0487,-4.1148,-4.1128,-4.1589,-4.2029,-4.2269,-4.4544,-4.6269,-4.7076,-4.8397,-4.9664,-5.0765,-5.1059,-5.1353,-5.161,-5.161,-5.1867,-5.2417,-5.2417,-5.2674,-5.3203,-5.3203,-5.3203,-5.3167,-5.2637,-5.2417,-5.2344,-5.183,-5.0802,-4.9407,-4.7755,-4.7131,-4.7058,-4.6214,-4.625,-4.6654,-4.6397,-4.614,-4.581,-4.5296,-4.4378,-4.3424,-4.2873,-4.2176,-4.1515,-4.1515,-4.1332,-4.1368,-4.2433,-4.269,-4.2837,-4.3351,-4.3094,-4.247,-4.1699,-4.0891,-4.0084,-3.9276,-3.9313,-3.8909,-3.7052,-3.6229,-3.5569,-3.4761,-3.5349,-3.6046,-3.6633,-3.7881,-3.8689,-3.8689,-3.8689,-3.8065,-3.645,-3.6303,-3.5128,-3.2375,-3.1421,-3.0393,-2.906,-2.8227,-2.7064,-2.5438,-2.3566,-2.1363,-1.8911,0.0,0.0,0.0,0.0,0.0,0.0,0.0,0.0,0.0,0.0,0.0,0.0,0.0,0.0,0.0,0.0,0.0,0.0,0.0,0.0,0.0,0.0,0.0,-3.3697,-3.7404,-4.0304,-4.1168,-4.4048,-4.5369,-4.3882,-4.5112,-4.57,-4.4929,-4.7021,-4.8012,-4.7223,-4.9481,-5.0765,-5.0802,-5.1573,-5.2344,-5.313,-5.3188,-5.3203,-5.3203,-5.3203,-5.3203,-5.3203,-5.3203,-5.3203,-5.3203,-5.3203,-5.3203,-5.3203,-5.3203,-5.2747,-5.1867,-5.0308,-4.9647,-4.9537,-4.8673,-4.8379,-4.8233,-4.7406,-4.6654,-4.5957,-4.5957,-4.5957,-4.5957,-4.592,-4.5369,-4.4728,-4.4654,-4.4085,-4.3515,-4.3515,-4.3515,-4.3515,-4.3515,-4.3515,-4.3277,-4.247,-4.1662,-4.0838,-4.0047,-3.9239,-3.8469,-3.7676,-3.7529,-3.7272,-3.6486,-3.7052,0.0,-3.7529,-3.8212,-3.8689,-3.8689,-3.8689,-3.8065,-3.645,-3.6303,-3.4908,-3.1617,-3.0613,-2.9794,-2.8987,-2.8227,-2.7798,-2.7798,-2.3906,-2.0637,-1.8163,0.0,0.0,0.0,0.0,0.0,0.0,0.0,0.0,0.0,0.0,0.0,0.0,0.0,0.0,0.0,0.0,0.0,0.0,0.0,0.0,0.0,-3.3697,-3.5987,-3.6427,-3.946,-4.258,-4.5131,-4.6764,-4.7939,-4.871,-4.8673,-4.8509,-4.8269,-4.8876,-4.915,-4.893,-4.9554,-5.0178,-5.0765,-5.1022,-5.1536,-5.2307,-5.2931,-5.3203,-5.3203,-5.3203,-5.3203,-5.3203,-5.3203,-5.3203,-5.3203,-5.3203,-5.3203,-5.3203,-5.3203,-5.3057,-5.2784,-5.172,-5.0986,-5.0435,-5.0215,-4.9738,-4.9114,-4.8269,-4.7829,-4.7645,-4.7645,-4.7645,-4.7425,-4.625,-4.5736,-4.5333,-4.4158,-4.3644,-4.3515,-4.3515,-4.3515,-4.3515,-4.3515,-4.3515,-4.3277,-4.247,-4.1662,-4.0838,-4.0047,-3.9239,-3.8615,-3.8395,-3.8358,-3.8285,-3.8065,-3.8248,-3.8358,-3.8358,-3.8579,-3.8689,-3.8689,-3.8689,-3.8065,-3.645,-3.6303,-3.4908,-3.1617,-3.0099,-2.895,-2.8154,-2.7934,-2.7798,-2.7798,-2.5007,-2.2318,0.0,0.0,0.0,0.0,0.0,0.0,0.0,0.0,0.0,0.0,0.0,0.0,0.0,0.0,0.0,0.0,0.0,0.0,0.0,0.0,0.0,0.0,-3.711,-3.9606,-4.1295,-4.313,-4.5131,-4.7333,-4.893,-5.0105,-5.0729,-5.0362,-5.0105,-5.0105,-5.0105,-5.0105,-5.0105,-5.0105,-5.0472,-5.1279,-5.0986,-5.1353,-5.2491,-5.2968,-5.3203,-5.3203,-5.3203,-5.3203,-5.3203,-5.3203,-5.3203,-5.3203,-5.3203,-5.3203,-5.3203,-5.3203,-5.3203,-5.3093,0.0,0.0,0.0,0.0,-5.0288,-4.9537,-4.9003,-4.86,-4.8306,-4.8306,-4.8306,-4.8049,-4.6801,-4.6177,-4.5553,-4.3938,-4.324,-4.2983,-4.2983,-4.2983,-4.3057,-4.3441,-4.3515,-4.3277,-4.247,-4.1662,-4.0948,-4.0487,-3.9753,0.0,-3.9203,-3.8909,-3.8689,-3.8689,-3.8689,-3.8689,-3.8689,-3.8689,-3.8689,-3.8689,-3.8689,-3.8175,-3.6905,-3.6486,0.0,0.0,0.0,-2.9133,-2.8338,-2.8962,0.0,0.0,0.0,0.0,0.0,0.0,0.0,0.0,-2.0217,-2.1061,0.0,0.0,0.0,0.0,0.0,0.0,0.0,0.0,0.0,0.0,0.0,0.0,0.0,0.0,0.0,0.0,-4.0084,-4.293,-4.6709,-4.748,-4.792,-4.8636,-5.0655,-5.1756,-5.1132,-5.0986,-5.0949,-5.0949,-5.0949,-5.0912,-5.0802,-5.0802,0.0,0.0,0.0,-5.1683,-5.3188,-5.3408,-5.3482,-5.3482,-5.3482,-5.3445,-5.3314,-5.3314,-5.3277,-5.3203,-5.3203,-5.3203,-5.3203,-5.3203,-5.3203,-5.3151,-5.2417,-5.2123,-5.205,-5.1242,-5.0472,-4.9831,-4.9647,0.0,0.0,-4.8343,-4.8306,-4.8159,-4.7333,-4.6526,-4.559,-4.4048,-4.3057,-4.2433,-4.2433,-4.2433,-4.2616,-4.3331,-4.3515,-4.3294,-4.258,-4.1809,-4.1242,-4.1242,-4.0598,-4.0047,-4.0047,-3.9386,-3.8799,-3.8726,-3.8689,-3.8689,-3.8689,-3.8799,-3.8836,-3.8836,-3.8836,0.0,-3.7713,-3.6905,-3.5716,-3.4027,-3.1751,-3.0173,-2.9427,-3.0687,-3.076,-2.9427,-2.8631,-2.786,-2.7126,-2.6513,-2.699,-2.8411,-2.5805,-2.5474,0.0,0.0,0.0,0.0,0.0,0.0,0.0,0.0,0.0,0.0,0.0,0.0,0.0,0.0,0.0,-4.0818,-4.3387,-4.57,-4.7792,-4.9774,-5.1096,-5.1279,-5.172,-5.2197,-5.2711,-5.216,-5.1756,-5.1756,-5.1756,-5.1463,-5.0839,-5.0802,-5.0875,-5.1022,-5.1499,-5.2234,-5.3167,-5.4473,-5.5133,-5.5133,-5.5133,0.0,-5.4179,-5.4179,-5.3812,-5.3203,-5.3203,-5.3203,-5.3203,-5.3203,-5.3203,-5.3167,-5.3041,-5.2968,-5.2858,-5.205,-5.1646,-5.1353,-5.0051,-4.95,-4.9224,-4.8526,-4.8306,-4.8159,-4.7333,-4.6526,0.0,-4.4745,-4.3901,-4.3294,-4.3294,-4.3294,-4.3314,-4.3478,-4.3515,-4.3478,-4.3294,-4.2653,-4.2066,-4.2066,-4.1442,-4.0891,-4.0891,-4.0194,-3.946,-3.8799,-3.8689,-3.8689,-3.8689,-3.9276,-3.968,-3.968,-3.968,-3.935,-3.8542,-3.7734,-3.656,-3.4857,-3.3096,-3.2069,-3.1922,-3.1568,-3.1568,-3.1885,-3.1127,-3.0625,-3.0479,-3.098,-3.1715,-3.2559,-2.8815,-2.797,0.0,0.0,0.0,0.0,0.0,0.0,0.0,0.0,0.0,0.0,0.0,-3.4468,-3.6472,0.0,-4.0671,-4.313,-4.5186,-4.7205,-4.926,-5.0949,-5.1977,-5.1977,-5.2344,-5.2747,-5.3188,-5.2454,-5.216,-5.2564,-5.2234,-5.1977,-5.2013,-5.161,-5.1756,-5.2564,-5.2601,-5.3188,-5.4399,-5.5207,-5.5596,-5.5596,-5.5596,-5.539,-5.4987,-5.4583,-5.4179,-5.3775,-5.335,-5.3203,-5.3203,-5.3203,-5.3203,-5.3203,-5.3203,-5.3203,-5.313,-5.2747,-5.2344,-5.1867,-5.1079,-5.0271,-4.9537,-4.9077,-4.8673,-4.8159,-4.7333,-4.6819,-4.625,-4.5039,-4.4415,-4.4085,-4.4085,-4.3791,-4.3625,-4.4011,-4.3791,-4.3515,-4.3515,-4.3167,-4.291,-4.291,-4.258,-4.2176,-4.1772,-4.1368,-4.0671,-3.9496,-3.8946,-3.8689,-3.8689,-3.9386,-3.99,-3.99,-4.0267,-4.0157,-3.9386,-3.819,-3.678,-3.5114,-3.4637,-3.4284,-3.383,-3.3844,-3.3844,-3.3793,-3.339,-3.322,-3.322,-3.361,-3.4234,-3.4981,-3.2999,-3.2485,0.0,0.0,0.0,0.0,0.0,0.0,0.0,-3.1054,-3.2082,-3.3697,-3.6376,-3.8741,-3.968,-4.1479,-4.3277,-4.4911,-4.6379,-4.814,-5.0472,-5.1646,-5.216,-5.2013,-5.2711,-5.3203,-5.3203,-5.2601,-5.2491,-5.313,-5.2601,-5.2527,-5.3167,-5.2747,-5.3041,-5.4363,-5.4069,-5.4509,-5.5794,-5.5978,-5.6073,-5.6073,-5.6073,-5.5978,-5.5794,-5.517,-5.4693,-5.4363,-5.3555,-5.3203,-5.3203,-5.3203,-5.3203,-5.3203,-5.3203,-5.3203,-5.3203,-5.3203,-5.2784,-5.2197,-5.205,-5.1022,-4.9831,-4.9647,-4.9003,-4.8196,-4.7516,-4.7223,-4.6819,-4.5535,-4.5058,-4.4929,-4.4929,-4.4452,-4.4085,-4.4599,-4.4195,-4.3681,-4.3551,-4.3515,-4.3515,-4.3515,-4.3515,-4.3277,-4.2653,-4.2396,-4.1735,-4.012,-3.935,-3.8872,-3.8726,-3.9533,-4.012,-4.012,-4.0855,-4.0928,-3.9974,-3.8704,-3.7331,-3.5811,-3.6229,-3.6229,-3.5518,-3.6009,-3.6046,-3.5481,-3.5481,-3.5555,-3.5738,-3.5738,-3.6068,-3.678,-3.678,-3.6597,-2.5852,-2.721,-2.9953,-3.1629,-3.3807,-3.5495,0.0,-3.6134,-3.7125,-3.8726,-4.0524,-4.2213,-4.3754,-4.4268,-4.4948,-4.6562,-4.759,-4.8783,-5.0545,-5.2123,-5.2821,-5.2087,-5.2711,-5.3203,-5.3203,-5.3093,-5.3093,-5.3167,-5.3093,-5.3115,-5.3203,-5.3812,-5.4216,-5.4399,-5.5721,-5.6492,-5.6675,-5.7373,-5.774,-5.774,-5.774,-5.7373,-5.6675,-5.6565,-5.5757,-5.4363,-5.3555,-5.3203,-5.3203,-5.3203,-5.3203,-5.3203,-5.3203,-5.3203,-5.3203,-5.3203,-5.313,-5.2968,-5.2234,-5.1389,-5.0545,-4.9831,-4.9003,-4.8269,-4.8196,-4.7663,-4.7076,-4.6892,-4.6324,-4.5773,-4.5773,-4.57,-4.548,-4.4856,-4.4635,-4.4378,-4.3662,-4.3515,-4.3515,-4.3515,-4.3515,-4.3478,-4.3404,-4.2763,-4.1735,-4.012,-3.9827,-3.9496,-3.8799,-4.0047,-4.0948,-4.0948,-4.1699,-4.1552,-4.001,-3.9717,-3.9239,-3.8358,-3.7713,-3.7309,-3.7235,-3.6633,-3.6597,-3.7199,-3.7235,-3.7551,-3.8285,-3.8285,-3.8358,-3.8432,-3.8432,-3.7661,-2.8558,-3.021,-3.2926,-3.5495,-3.7991,-3.99,-4.0377,-4.0761,-4.1311,-4.247,-4.3975,-4.5168,-4.5369,-4.5773,-4.6452,-4.759,-4.8526,-4.9627,-5.1279,-5.2087,-5.2197,-5.1389,-5.1169,-5.1279,-5.1756,-5.2234,-5.2491,-5.2491,-5.2931,-5.3203,-5.3203,-5.3959,-5.462,-5.506,-5.6198,-5.7042,-5.7483,-5.7813,-5.7997,-5.7997,-5.7997,-5.7813,-5.7483,-5.7005,-5.5941,-5.4363,-5.4032,-5.3628,-5.3203,-5.3203,-5.3203,-5.3203,-5.3203,-5.3203,-5.3203,-5.3203,-5.3203,-5.313,-5.2821,-5.216,-5.1353,-5.0545,-4.9738,-4.8967,-4.8453,-4.8086,-4.7773,-4.7773,-4.7572,-4.7315,-4.7315,-4.6948,-4.6489,-4.6159,-4.5388,-4.4635,-4.4268,-4.3828,-4.3515,-4.3515,-4.3515,-4.3515,-4.3515,-4.3204,-4.2616,-4.1479,-4.0487,-3.979,-3.9423,-4.0414,-4.1462,-4.2396,-4.2396,-4.1846,-4.0708,-4.0146,-3.9475,-3.8585,-3.822,-3.8,-3.8,-3.7754,-3.7799,-3.8175,-3.8212,-3.8358,-3.8689,-3.8689,-3.8689,-3.8689,-3.8689,-3.8358,-3.1225,-3.3146,-3.5605,-3.8872,-4.1515,-4.3461,-4.4011,-4.4158,-4.4342,-4.4929,-4.5938,-4.6599,-4.5993,-4.6397,-4.7039,-4.7865,-4.8893,-5.0088,-5.1463,-5.205,-5.194,-5.0912,-5.0088,-4.9738,-5.0068,-5.1059,-5.1756,-5.1977,-5.2747,-5.3203,-5.3203,-5.4179,-5.4987,-5.5596,-5.6602,-5.7409,-5.7997,-5.7997,-5.7997,-5.7997,-5.7997,-5.7997,-5.796,-5.7189,-5.6161,-5.506,-5.4583,-5.4069,-5.3518,-5.3277,-5.3203,-5.3203,-5.3203,-5.3203,-5.3203,-5.3203,-5.3203,-5.3203,-5.3203,-5.2674,-5.1903,-5.1316,-5.0435,-4.95,-4.8857,-4.8489,-4.8306,-4.8306,-4.8306,-4.8306,-4.8306,-4.7846,-4.7369,-4.7112,-4.614,-4.5169,-4.4693,-4.4089,-4.3614,-4.3412,-4.341,-4.3428,-4.3463,-4.3497,-4.3314,-4.2693,-4.1392,-4.0329,-3.9937,-4.0598,-4.1735,-4.3331,-4.2983,-4.2323,-4.1515,-4.0776,-3.9966,-3.8942,-3.8905,-3.8905,-3.8905,-3.9004,-3.9061,-3.9019,-3.9239,-3.9239,-3.9019,-3.9239,-3.935,-3.935,-3.935,-3.935,-3.3793,-3.6083,-3.8153,-4.1405,-4.4011,-4.581,-4.581,-4.581,-4.5847,-4.5847,-4.5883,-4.592,-4.5883,-4.592,-4.6214,-4.7003,-4.8526,-4.9904,-5.0729,-5.2197,-5.2601,-5.0986,-5.0088,-4.928,-4.8453,-4.9884,-5.1169,-5.194,-5.2747,-5.3203,-5.3203,-5.4693,-5.5596,-5.5596,-5.7152,-5.796,-5.7997,-5.7997,-5.7997,-5.7997,-5.7997,-5.7997,-5.796,-5.7189,-5.6785,-5.6638,-5.5097,-5.4399,-5.4289,-5.3518,-5.3203,-5.3203,-5.3203,-5.3203,-5.3203,-5.3203,-5.3203,-5.3203,-5.3203,-5.2674,-5.1977,-5.1977,-5.0896,-4.961,-4.9574,-4.8967,-4.8306,-4.8306,-4.8306,-4.8306,-4.8306,-4.8269,-4.8047,-4.7219,-4.6866,-4.6295,-4.4652,-4.4191,-4.3879,-4.3231,-4.316,-4.3251,-4.3394,-4.3445,-4.348,-4.3375,-4.2556,-4.1423,-4.0068,-4.0598,-4.1735,-4.3331,-4.3478,-4.313,-4.2323,-4.206,-4.1414,-4.0221,-4.0203,-4.0203,-4.0167,-4.0401,-4.03,-3.9863,-4.0634,-4.0634,-3.9863,-4.0671,-4.1022,-4.1022,-4.1022,-4.1022,-3.4761,-3.7441,-3.9863,-4.3094,-4.5315,-4.6819,-4.7388,-4.7498,-4.7352,-4.6819,-4.5847,-4.5112,-4.5112,-4.4672,-4.4929,-4.6782,-4.8526,-5.0088,-5.1389,-5.205,-5.2013,-5.0949,-4.9591,-4.8636,-4.8343,-4.882,-4.9701,-5.1096,-5.194,-5.2858,-5.3959,-5.5023,-5.5831,-5.6381,-5.7446,-5.7997,-5.7997,-5.7997,-5.7997,-5.7997,-5.7997,-5.7997,-5.7997,-5.7703,-5.7299,-5.6748,-5.5647,-5.4876,-5.4326,-5.3555,-5.3203,-5.3203,-5.3203,-5.3203,-5.3203,-5.3203,-5.3203,-5.3203,-5.3203,-5.3041,-5.2711,-5.216,-5.161,-5.1006,-4.9941,-4.939,-4.904,-4.8453,-4.8306,-4.8306,-4.8306,-4.8306,-4.8175,-4.7763,-4.7013,-4.6189,-4.5462,-4.4241,-4.3272,-4.3243,-4.3035,-4.2939,-4.3087,-4.3358,-4.3173,-4.2232,-4.1996,-4.1559,-4.045,-4.0628,-4.128,-4.2408,-4.2587,-4.2565,-4.2323,-4.2064,-4.1397,-4.0125,-4.005,-3.9973,-3.988,-4.0181,-4.0383,-4.0474,-4.0813,-4.0863,-4.0708,-4.0948,-4.1095,-4.1095,-4.1095,-4.1095,-3.7331,-4.001,-4.2249,-4.4892,-4.6562,-4.7663,-4.8196,-4.8067,-4.7553,-4.6452,-4.4728,-4.3407,-4.3407,-4.2983,-4.3424,-4.5828,-4.8122,-5.0031,-5.1389,-5.205,-5.2123,-5.1316,-5.0031,-4.9077,-4.8783,-4.8489,-4.9003,-5.0655,-5.1536,-5.2711,-5.4326,-5.5427,-5.6271,-5.6785,-5.7593,-5.7997,-5.7997,-5.7997,-5.7997,-5.7997,-5.7997,-5.7997,-5.7997,-5.7997,-5.7703,-5.7189,-5.6051,-5.5317,-5.473,-5.3665,-5.3203,-5.3203,-5.3203,-5.3203,-5.3203,-5.3203,-5.3203,-5.3203,-5.3203,-5.3203,-5.3115,-5.2601,-5.2234,-5.1793,-5.0725,-4.9951,-4.9325,-4.8736,-4.8331,-4.8072,-4.8072,-4.8072,-4.8012,-4.7731,-4.7003,-4.6211,-4.5637,-4.4468,-4.3427,-4.3142,-4.2965,-4.2877,-4.2842,-4.3087,-4.2941,-4.1914,-4.184,-4.148,-4.0289,-4.0293,-4.0745,-4.1723,-4.1975,-4.2279,-4.2673,-4.2449,-4.1793,-4.0717,-4.0573,-4.0389,-4.013,-4.0537,-4.0826,-4.0997,-4.1429,-4.1604,-4.1552,-4.1809,-4.1956,-4.1956,-4.1956,-4.1956,-4.1332,-4.3608,-4.5205,-4.6782,-4.7736,-4.8306,-4.8269,-4.7626,-4.6562,-4.4911,-4.2599,-4.0875,-4.0912,-4.0875,-4.1682,-4.4177,-4.7315,-4.9774,-5.0655,-5.2197,-5.2931,-5.216,-5.1353,-5.0545,-4.9794,-4.8893,-4.9077,-5.0729,-5.1573,-5.2711,-5.4363,-5.5941,-5.6822,-5.6859,-5.7593,-5.7997,-5.7997,-5.7997,-5.7997,-5.7997,-5.7997,-5.7997,-5.7997,-5.7997,-5.7997,-5.7923,-5.6308,-5.5596,-5.5464,-5.3849,-5.3203,-5.3203,-5.3203,-5.3203,-5.3203,-5.3203,-5.3203,-5.3203,-5.3203,-5.3203,-5.3203,-5.3203,-5.2674,-5.2029,-5.1831,-5.0608,-4.9242,-4.9029,-4.8357,-4.7672,-4.7636,-4.7636,-4.7515,-4.7129,-4.6822,-4.633,-4.5245,-4.4753,-4.4178,-4.2975,-4.2988,-4.3074,-4.2658,-4.2749,-4.2768,-4.2418,-4.2071,-4.1294,-3.9737,-3.9684,-4.0259,-4.1358,-4.1687,-4.2304,-4.3389,-4.3087,-4.2557,-4.1832,-4.1644,-4.1333,-4.092,-4.1388,-4.1597,-4.1446,-4.2448,-4.2777,-4.2343,-4.313,-4.3497,-4.3515,-4.3515,-4.3515,-4.3167,-4.5241,-4.6746,-4.7736,-4.8159,-4.8159,-4.7553,-4.6782,-4.559,-4.3387,-4.0047,-3.7698,-3.83,-3.7918,-3.8726,-4.2323,-4.614,-4.9114,-5.0582,-5.2197,-5.3093,-5.2931,-5.2197,-5.161,-5.1389,-5.0124,-4.9921,-5.1573,-5.1867,-5.2968,-5.517,-5.6235,-5.7079,-5.7666,-5.7886,-5.7997,-5.7997,-5.7997,-5.7997,-5.7997,-5.7997,-5.7997,-5.7997,-5.7997,-5.7997,-5.7923,-5.6308,-5.5596,-5.5464,-5.3849,-5.3203,-5.3203,-5.3203,-5.3203,-5.3203,-5.3203,-5.3203,-5.3203,-5.3203,-5.3203,-5.3203,-5.3203,-5.3078,-5.2742,-5.1892,-5.11,-5.0195,-4.8803,-4.8028,-4.7488,-4.6883,-4.6705,-4.6671,-4.6412,-4.6074,-4.5689,-4.5243,-4.4369,-4.3644,-4.3529,-4.3184,-4.2831,-4.2701,-4.2577,-4.2398,-4.2,-4.1644,-4.1006,-4.0005,-4.0095,-4.0439,-4.1002,-4.1235,-4.1825,-4.2941,-4.2635,-4.2139,-4.1595,-4.1311,-4.1024,-4.0707,-4.1082,-4.1495,-4.1818,-4.2426,-4.2791,-4.2958,-4.3284,-4.3445,-4.3515,-4.3515,-4.3515,-4.5058,-4.6672,-4.7736,-4.8196,-4.8049,-4.7553,-4.6746,-4.5406,-4.3644,-4.1222,-3.7514,-3.5018,-3.6193,-3.5752,-3.6633,-4.1075,-4.5149,-4.8233,-4.9517,-5.1426,-5.2674,-5.2674,-5.227,-5.1977,-5.1977,-5.1189,-5.1169,-5.2417,-5.2527,-5.3445,-5.5486,-5.6712,-5.7519,-5.7997,-5.7997,-5.7997,-5.7997,-5.7997,-5.7997,-5.7997,-5.7997,-5.7997,-5.7997,-5.7997,-5.7997,-5.7923,-5.6308,-5.5596,-5.5464,-5.3849,-5.3203,-5.3203,-5.3203,-5.3203,-5.3203,-5.3203,-5.3203,-5.3203,-5.3203,-5.3203,-5.3203,-5.3124,-5.306,-5.2864,-5.2037,-5.12,-5.0319,-4.9148,-4.806,-4.7187,-4.673,-4.6369,-4.6074,-4.586,-4.5554,-4.5302,-4.5069,-4.4436,-4.3925,-4.3875,-4.345,-4.3122,-4.3349,-4.2965,-4.2505,-4.2233,-4.1543,-4.0781,-4.0133,-3.9974,-4.006,-4.0383,-4.063,-4.1217,-4.2311,-4.2098,-4.1717,-4.1263,-4.099,-4.0693,-4.0402,-4.0717,-4.1082,-4.1508,-4.1987,-4.2474,-4.2976,-4.3124,-4.3322,-4.3515,-4.3515,-4.3515,-4.6856,-4.7773,-4.8269,-4.8196,-4.7626,-4.6819,-4.5663,-4.3534,-4.1111,-3.8579,-3.4784,-3.2436,-3.4087,-3.388,-3.5092,-3.9994,-4.4141,-4.7149,-4.8159,-5.0251,-5.172,-5.183,-5.183,-5.1867,-5.1977,-5.2197,-5.2601,-5.3335,-5.3534,-5.4289,-5.5684,-5.7189,-5.7997,-5.7997,-5.7997,-5.7997,-5.7997,-5.7997,-5.7997,-5.7997,-5.7997,-5.7997,-5.7997,-5.7997,-5.7997,-5.7923,-5.6308,-5.5596,-5.5464,-5.3849,-5.3203,-5.3203,-5.3203,-5.3203,-5.3203,-5.3203,-5.3203,-5.3203,-5.3203,-5.3146,-5.3124,-5.3017,-5.285,-5.259,-5.2066,-5.1101,-5.0079,-4.9618,-4.8293,-4.6984,-4.6776,-4.6282,-4.5702,-4.5371,-4.5203,-4.5076,-4.4831,-4.4665,-4.4461,-4.4031,-4.3699,-4.3589,-4.4069,-4.3495,-4.2879,-4.2647,-4.1673,-4.0748,-4.0163,-3.971,-3.9532,-3.9859,-4.0108,-4.0674,-4.1647,-4.1508,-4.1241,-4.0897,-4.0683,-4.0427,-4.0138,-4.0337,-4.0621,-4.085,-4.1366,-4.1966,-4.2596,-4.2863,-4.3124,-4.3463,-4.348,-4.3497,-4.7865,-4.8196,-4.8159,-4.748,-4.7186,-4.6379,-4.3571,-4.1075,0.0,-3.5312,-3.1421,-2.9108,-3.076,-3.1458,-3.3403,-3.8322,-4.2506,-4.5883,-4.8012,-4.9297,-5.0271,-5.0949,-5.1022,-5.1279,-5.194,-5.3188,-5.4032,-5.4179,-5.5427,-5.6308,-5.6602,-5.7483,-5.7997,-5.7997,-5.7997,-5.7997,-5.7997,-5.7997,-5.7997,-5.7997,-5.7997,-5.7997,-5.7997,-5.7997,-5.7997,-5.7923,-5.6308,-5.5596,-5.5464,-5.3849,-5.3203,-5.3203,-5.3203,-5.3203,-5.3203,-5.3203,-5.3203,-5.3167,-5.3082,-5.2937,-5.285,-5.2828,-5.2568,-5.2149,-5.164,-5.0814,-4.9861,-4.9026,-4.8254,-4.7432,-4.6238,-4.5796,-4.5558,-4.4918,-4.472,-4.4665,-4.4637,-4.4615,-4.4378,-4.3654,-4.3625,-4.3658,-4.3419,-4.3294,-4.2992,-4.2309,-4.1861,-4.1243,-4.0231,-4.0136,-4.0207,-4.0429,-4.0595,-4.0874,-4.1265,-4.1082,-4.0849,-4.0659,-4.0451,-4.0288,-4.0113,-4.0238,-4.0427,-4.0659,-4.1059,-4.1556,-4.2118,-4.2494,-4.288,-4.3269,-4.3358,-4.3428,-4.8196,-4.8306,-4.8122,-4.7296,-4.6452,-4.5021,-4.1772,0.0,0.0,-3.2596,-2.9402,-2.753,-2.8741,-2.9622,-3.1604,-3.6032,-4.0178,-4.3517,-4.5516,-4.7241,-4.86,-4.9407,-4.9884,-5.0618,-5.1867,-5.3445,-5.4583,-5.4987,-5.6124,-5.6822,-5.6822,-5.7556,-5.7997,-5.7997,-5.7997,-5.7997,-5.7997,-5.7997,-5.7997,-5.7997,-5.7997,-5.7997,-5.7997,-5.7997,-5.7997,-5.7923,-5.6308,-5.5596,-5.5464,-5.3849,-5.3203,-5.3203,-5.3203,-5.3203,-5.3203,-5.3203,-5.3203,-5.3146,-5.2974,-5.268,-5.2394,-5.2137,-5.1946,-5.164,-5.1035,-5.0384,-4.9717,-4.9115,-4.8413,-4.7736,-4.7027,-4.6278,-4.5602,-4.5263,-4.4857,-4.4615,-4.4615,-4.4615,-4.4513,-4.4079,-4.4177,-4.4285,-4.4277,-4.3898,-4.3494,-4.3131,-4.2208,-4.1375,-4.0747,-4.04,-4.0238,-4.0328,-4.0402,-4.05,-4.0621,-4.0524,-4.0427,-4.0353,-4.0263,-4.0163,-4.0113,-4.0163,-4.0263,-4.0353,-4.0669,-4.1036,-4.1442,-4.1924,-4.2398,-4.2939,-4.3105,-4.3322,-4.8269,-4.8306,-4.8086,-4.7076,-4.5608,-4.3571,-4.0157,-3.6707,-3.3353,-3.032,-2.7787,-2.6319,-2.7137,-2.7934,-2.9757,-3.361,-3.7499,-4.0744,-4.269,-4.4929,-4.6746,-4.7883,-4.8746,-4.9884,-5.1573,-5.3518,-5.4913,-5.5559,-5.6492,-5.7079,-5.7079,-5.7666,-5.7997,-5.7997,-5.7997,-5.7997,-5.7997,-5.7997,-5.7997,-5.7997,-5.7997,-5.7997,-5.7997,-5.7813,-5.774,-5.7666,-5.6051,-5.5317,-5.5207,-5.3812,-5.3203,-5.3203,-5.3203,-5.3203,-5.3203,-5.3203,-5.3203,-5.3146,-5.285,-5.244,-5.1946,-5.1414,-5.1218,-5.0973,-5.0418,-4.9913,-4.95,-4.9229,-4.867,-4.8075,-4.7939,-4.7056,-4.6109,-4.5771,-4.5128,-4.4615,-4.4615,-4.4615,-4.4615,-4.4615,-4.4699,-4.4831,-4.5049,-4.4517,-4.3985,-4.3886,-4.2704,-4.1672,-4.1238,-4.0696,-4.0282,-4.0113,-4.0113,-4.0113,-4.0113,-4.0113,-4.0113,-4.0113,-4.0113,-4.0113,-4.0113,-4.0113,-4.0113,-4.0113,-4.0337,-4.0597,-4.0827,-4.1343,-4.1924,-4.2557,-4.2751,-4.305,-4.8122,-4.8306,-4.7939,-4.6397,-4.4782,-4.2597,-3.8631,0.0,-3.1029,-2.8521,-2.6098,-2.4667,-2.5485,-2.6282,-2.7897,-3.1201,-3.4541,-3.7808,-4.0875,-4.2763,-4.4672,-4.6929,0.0,0.0,-5.0765,-5.3665,-5.5522,-5.5574,-5.7005,-5.7886,-5.7886,-5.796,-5.7997,-5.7997,-5.7997,-5.7997,-5.7997,-5.7997,-5.7997,-5.7997,-5.7997,-5.7997,-5.796,-5.7262,-5.6932,-5.6822,-5.5207,-5.4509,-5.4436,-5.3555,-5.3203,-5.3203,-5.3203,-5.3203,-5.3203,-5.3203,-5.3203,-5.3124,-5.2761,-5.2255,-5.1725,-5.1096,-5.055,-5.0061,-4.9849,-4.9441,-4.908,-4.9049,-4.8951,-4.8748,-4.8041,-4.7804,-4.7331,-4.6041,-4.5128,-4.4615,-4.4615,-4.4615,-4.4615,-4.4615,-4.4615,-4.4643,-4.4671,-4.4603,-4.4304,-4.3559,-4.3328,-4.2726,-4.1373,-4.1136,-4.0832,-4.018,-4.0113,-4.0113,-4.0113,-4.0113,-4.0113,-4.0113,-4.0113,-4.0113,-4.0113,-4.0113,-4.0113,-4.0113,-4.0238,-4.0436,-4.0635,-4.1036,-4.1534,-4.2056,-4.2338,-4.2616,-4.7369,-4.792,-4.7792,-4.57,-4.3975,-4.1589,-3.7037,-3.3256,-2.9989,-2.7567,-2.5548,-2.43,-2.464,-2.5338,-2.6759,-2.9512,-3.2265,-3.5202,-3.8469,-4.0744,-4.2763,-4.4709,-4.6067,-4.7498,-4.915,-5.1793,-5.4216,-5.6198,-5.7373,-5.7997,-5.7997,-5.7997,-5.7997,-5.7997,-5.7997,-5.7997,-5.7997,-5.7997,-5.7997,-5.7997,-5.7997,-5.7997,-5.796,-5.7189,-5.6822,-5.6712,-5.5097,-5.4399,-5.4326,-5.3555,-5.3203,-5.3203,-5.3203,-5.3203,-5.3203,-5.3203,-5.3203,-5.3124,-5.2672,-5.1982,-5.1276,-5.0749,-5.0022,-4.9406,-4.9411,-4.9199,-4.9018,-4.9018,-4.9018,-4.8951,-4.8646,-4.824,-4.75,-4.6075,-4.5466,-4.5128,-4.4716,-4.4615,-4.4615,-4.4615,-4.4615,-4.4615,-4.4615,-4.4615,-4.4513,-4.4181,-4.3707,-4.3172,-4.2598,-4.1745,-4.1102,-4.0798,-4.0383,-4.0113,-4.0113,-4.0113,-4.0113,-4.0113,-4.0113,-4.0113,-4.0113,-4.0113,-4.0113,-4.0113,-4.0163,-4.0238,-4.0303,-4.0621,-4.0966,-4.1353,-4.1595,-4.1931,-4.5975,-4.6966,-4.7058,-4.4892,-4.28,-4.0084,-3.5665,-3.1959,-2.8888,-2.6686,-2.5144,-2.419,-2.419,-2.4677,-2.5778,-2.7923,-3.0124,-3.2669,-3.595,-3.8505,-4.0708,-4.258,-4.4195,-4.581,-4.7425,-5.0251,-5.3335,-5.6565,-5.7336,-5.774,-5.7997,-5.7997,-5.7997,-5.7997,-5.7997,-5.7997,-5.7997,-5.7997,-5.7997,-5.7997,-5.7776,-5.7666,-5.7593,-5.6565,-5.6088,-5.6014,-5.4656,-5.4069,-5.3995,-5.3424,-5.3203,-5.3203,-5.3146,-5.3103,-5.3082,-5.3039,-5.2995,-5.2872,-5.2361,-5.164,-5.0911,-5.0418,-4.9679,-4.9049,-4.9107,-4.9077,-4.9018,-4.9018,-4.9018,-4.9018,-4.9018,-4.8477,-4.7635,-4.6616,-4.6177,-4.5872,-4.5331,-4.5089,-4.4925,-4.4925,-4.475,-4.4615,-4.4615,-4.4615,-4.4615,-4.4615,-4.4113,-4.3673,-4.3409,-4.2489,-4.1779,-4.1542,-4.1035,-4.0654,-4.0426,-4.0654,-4.0654,-4.0451,-4.0451,-4.035,-4.0113,-4.0113,-4.0113,-4.0113,-4.0113,-4.0113,-4.0113,-4.0337,-4.0573,-4.0803,-4.1047,-4.1366,-4.3864,-4.5333,-4.5553,-4.3901,-4.1111,-3.7881,-3.4578,-3.0723,-2.7357,-2.5742,-2.4787,-2.419,-2.419,-2.419,-2.474,-2.6345,-2.7996,-3.0161,-3.3403,-3.5987,-3.8447,-4.0838,-4.2543,-4.4158,-4.5773,-4.9591,-5.3335,-5.6565,-5.6822,-5.7152,-5.796,-5.7997,-5.7997,-5.7997,-5.7997,-5.7997,-5.7997,-5.7997,-5.7997,-5.7997,-5.7189,-5.6822,-5.6748,-5.517,-5.4436,-5.4363,-5.3592,-5.3203,-5.3203,-5.3203,-5.3203,-5.3203,-5.306,-5.2915,-5.2783,-5.2635,-5.2522,-5.2338,-5.1775,-5.1209,-5.0616,-5.0102,-4.9496,-4.9018,-4.9018,-4.9018,-4.9018,-4.9018,-4.9018,-4.9018,-4.9018,-4.8477,-4.7906,-4.7872,-4.7327,-4.6786,-4.6786,-4.621,-4.5703,-4.5703,-4.5094,-4.4615,-4.4615,-4.4615,-4.4615,-4.4615,-4.4615,-4.4282,-4.3477,-4.3375,-4.3098,-4.2354,-4.2286,-4.1982,-4.1271,-4.1847,-4.1982,-4.1238,-4.1204,-4.0865,-4.0146,-4.0113,-4.0113,-4.0113,-4.0113,-4.0113,-4.0113,-4.0238,-4.0412,-4.0587,-4.0731,-4.1117,-4.0157,-4.1992,-4.291,-4.0744,-3.8615,-3.6193,-3.2889,-2.9891,-2.7346,-2.5664,-2.4671,-2.4046,-2.4046,-2.4046,-2.4614,-2.6255,-2.7471,-2.9512,-3.3256,-3.595,-3.841,-4.0802,-4.3497,-4.5773,-4.7388,-5.0251,-5.2858,-5.4987,-5.5684,-5.6088,-5.6345,-5.6345,-5.6859,-5.796,-5.7997,-5.7997,-5.7997,-5.7997,-5.7997,-5.7997,-5.7189,-5.6822,-5.6748,-5.5133,-5.4399,-5.4363,-5.3555,-5.3203,-5.3203,-5.3203,-5.3203,-5.3203,-5.2974,-5.2635,-5.2289,-5.2137,-5.1813,-5.1454,-5.1095,-5.0643,-5.0174,-4.9844,-4.9411,-4.9018,-4.9018,-4.9018,-4.9018,-4.9018,-4.9018,-4.9018,-4.9018,-4.8849,-4.8545,-4.8007,-4.7703,-4.7428,-4.6921,-4.6616,-4.6312,-4.5805,-4.55,-4.5196,-4.4716,-4.4615,-4.4615,-4.4615,-4.4615,-4.4513,-4.4248,-4.3741,-4.3308,-4.3098,-4.3064,-4.276,-4.2016,-4.2151,-4.1982,-4.1271,-4.1204,-4.0865,-4.0146,-4.0113,-4.0113,-4.0113,-4.0113,-4.0113,-4.0113,-4.0138,-4.0213,-4.0254,-4.0303,-4.05,-3.5936,-3.7734,-3.8652,-3.6853,-3.5202,-3.3293,-3.0662,-2.8422,-2.6492,-2.51,-2.4314,-2.3868,-2.3868,-2.3868,-2.4335,-2.5757,-2.6731,-2.8631,-3.2375,-3.5289,-3.8395,-4.2012,-4.4764,-4.6985,-4.86,-5.0435,-5.2344,-5.4252,-5.484,-5.528,-5.5596,-5.5596,-5.6051,-5.7042,-5.7079,-5.7079,-5.7079,-5.7079,-5.7079,-5.7079,-5.6271,-5.5904,-5.5868,-5.4546,-5.3959,-5.3922,-5.3445,-5.3203,0.0,-5.3203,-5.3203,-5.3182,-5.285,-5.2417,-5.1958,-5.1701,-5.126,-5.0813,-5.0515,-5.0181,-4.9873,-4.9585,-4.926,-4.9018,-4.9018,-4.9018,-4.9018,-4.9018,-4.9018,-4.9018,-4.9018,-4.9018,-4.8883,-4.8443,-4.8342,-4.8206,-4.7733,-4.7394,-4.709,-4.6616,-4.6075,-4.5568,-4.5094,-4.4784,-4.4615,-4.4615,-4.4615,-4.4615,-4.4615,-4.4147,-4.3741,-4.3409,-4.3673,-4.3538,-4.2794,-4.2997,-4.2828,-4.2083,-4.2049,-4.1711,-4.0959,-4.0925,-4.0925,-4.0925,-4.0925,-4.0925,-4.0925,-4.0925,-4.0925,-4.0925,-4.0925,-4.1061,0.0,-3.2816,-3.344,-3.2546,-3.1225,-2.9696,-2.8081,-2.6502,0.0,-2.4188,-2.3816,-2.3689,-2.3689,-2.37,-2.4032,-2.5092,-2.6092,-2.7934,-3.1274,-3.4711,-3.8894,-4.427,-4.6287,-4.7883,-4.9444,-5.0362,-5.183,-5.4142,-5.4326,-5.462,-5.539,-5.5449,-5.5449,-5.5449,-5.5449,-5.5464,-5.5596,-5.5596,-5.5596,-5.5574,-5.4766,-5.4399,-5.4363,-5.3592,-5.3203,-5.3203,-5.3203,-5.3203,-5.3203,-5.3203,-5.3203,-5.3146,-5.2761,-5.2232,-5.1725,-5.1296,-5.0776,-5.0257,-4.9936,-4.9762,-4.959,-4.929,-4.9077,-4.9018,-4.9018,-4.9018,-4.9018,-4.9018,-4.9018,-4.9018,-4.9018,-4.9018,-4.9018,-4.9018,-4.9018,-4.9018,-4.9018,-4.8477,-4.7939,-4.7906,-4.679,-4.5838,-4.5737,-4.5162,-4.475,-4.4682,-4.4716,-4.475,-4.475,-4.4716,-4.4384,-4.3612,-4.4181,-4.4282,-4.3572,-4.4181,-4.4248,-4.3443,-4.3375,-4.3064,-4.232,-4.2286,-4.2286,-4.2286,-4.2286,-4.2286,-4.2286,-4.2286,-4.2286,-4.2286,-4.2286,-4.2366,-2.5952,0.0,-3.1604,-3.0198,-2.9574,-2.8828,0.0,-2.6004,-2.496,-2.3898,-2.358,-2.3457,-2.347,-2.3513,-2.4305,-2.6558,-2.7762,-2.9953,-3.4371,-3.9321,-4.3652,-4.6827,-4.8184,-4.9272,-5.0398,-5.1242,-5.2197,-5.3408,-5.3482,-5.3555,-5.3739,-5.3775,-5.3775,-5.3775,-5.3775,-5.4363,-5.5574,-5.5596,-5.5596,-5.5574,-5.4766,-5.4399,-5.4363,-5.3592,-5.3203,-5.3203,-5.3203,-5.3203,-5.3203,-5.3203,-5.3203,-5.3124,-5.2613,-5.1958,-5.1225,-5.0776,-5.0022,-4.932,-4.9229,-4.9199,-4.9138,-4.9046,-4.9049,-4.9018,-4.9018,-4.9018,-4.9018,-4.9018,-4.9018,-4.9018,-4.9018,-4.9018,-4.9018,-4.9018,-4.9018,-4.9018,-4.9018,-4.8883,-4.8578,-4.8007,-4.7601,-4.7022,-4.5906,-4.6007,-4.6075,-4.5534,-4.5906,-4.6278,-4.6278,-4.5771,-4.5365,-4.5196,-4.4823,-4.4513,-4.4316,-4.4513,-4.4248,-4.3443,-4.3375,-4.3064,-4.232,-4.2286,-4.2286,-4.2286,-4.2286,-4.2286,-4.2286,-4.2286,-4.2286,-4.2286,-4.2286,-4.2313,-2.4511,-2.6596,-2.8349,-2.7126,-2.709,-2.6995,-2.5675,-2.4913,-2.4328,-2.3641,-2.3271,-2.3128,-2.3199,-2.359,-2.4694,-2.7031,-2.8907,-3.2185,-3.8168,-4.292,-4.6674,-4.9053,-5.022,-5.114,-5.1846,-5.2307,-5.2747,-5.3167,-5.3203,-5.3203,-5.3203,-5.3203,-5.3203,-5.3203,-5.3203,-5.3628,-5.4473,-5.4509,-5.4509,-5.4473,-5.4069,-5.3849,-5.3849,-5.3387,-5.3203,-5.3203,-5.3124,-5.3082,-5.3017,-5.2974,-5.2872,-5.2783,-5.2244,-5.159,-5.0885,-5.0356,-4.9644,-4.9018,-4.9018,-4.9018,-4.9018,-4.9018,-4.9018,-4.9018,-4.9018,-4.9018,-4.9018,-4.9018,-4.9018,-4.9018,-4.9018,-4.9018,-4.9018,-4.9018,-4.9018,-4.9018,-4.9018,-4.9018,-4.8883,-4.8477,-4.8108,-4.7635,-4.6853,-4.6752,-4.665,-4.6244,-4.6549,-4.6786,-4.6786,-4.6143,-4.5568,-4.5229,-4.4852,-4.4479,-4.4079,-4.4412,-4.4384,-4.3978,-4.3944,-4.3775,-4.3369,-4.3362,-4.3362,-4.3362,-4.3362,-4.3362,-4.3362,-4.3362,-4.3362,-4.3362,-4.3362,-4.3362,-2.4773,-2.536,-2.5507,-2.4721,-2.5254,-2.5674,-2.46,0.0,-2.3983,-2.3732,-2.3263,-2.2985,-2.3428,-2.4196,-2.5536,-2.7821,-3.0922,-3.5374,-4.2128,-4.5714,-4.8482,-5.0813,-5.2019,-5.2783,-5.3146,-5.3203,-5.3203,-5.3203,-5.3203,-5.3203,-5.3203,-5.3203,-5.3203,-5.3203,-5.3203,-5.3203,-5.3203,-5.3203,-5.3203,-5.3203,-5.3203,-5.3203,-5.3203,-5.3203,-5.3203,-5.3203,-5.3039,-5.2872,-5.2658,-5.2545,-5.2384,-5.2137,-5.1676,-5.1105,-5.0535,-5.0045,-4.9496,-4.9018,-4.9018,-4.9018,-4.9018,-4.9018,-4.9018,-4.9018,-4.9018,-4.9018,-4.9018,-4.9018,-4.9018,-4.9018,-4.9018,-4.9018,-4.9018,-4.9018,-4.9018,-4.9018,-4.9018,-4.9018,-4.9018,-4.9018,-4.8511,-4.8007,-4.7906,-4.7496,-4.709,-4.6989,-4.7056,-4.7124,-4.7124,-4.6481,-4.5737,-4.5021,-4.4852,-4.4485,-4.3815,-4.4384,-4.4818,-4.4953,-4.4716,-4.4615,-4.4615,-4.4615,-4.4615,-4.4615,-4.4615,-4.4615,-4.4615,-4.4615,-4.4615,-4.4615,-4.4615,-4.4615,-2.4408,-2.5829,-2.6883,-2.6275,-2.7303,-2.8024,-2.6322,-2.5731,-2.5468,0.0,-2.4253,-2.3998,-2.5447,-2.612,-2.7705,-3.1665,-3.6837,-4.1596,-4.5122,-4.737,-4.9495,-5.1739,-5.245,-5.2872,-5.3146,-5.3203,-5.3203,-5.3203,-5.3203,-5.3203,-5.3203,-5.3203,-5.3203,-5.3203,-5.3203,-5.3203,-5.3203,-5.3203,-5.3203,-5.3203,-5.3203,-5.3203,-5.3203,-5.3203,-5.3203,-5.3203,-5.2952,-5.2613,-5.2183,-5.1982,-5.169,-5.1241,-5.0964,-5.0535,-5.0061,-4.982,-4.9411,-4.9018,-4.9018,-4.9018,-4.9018,-4.9018,-4.9018,-4.9018,-4.9018,-4.9018,-4.9018,-4.9018,-4.9018,-4.9018,-4.9018,-4.9018,-4.9018,-4.9018,-4.9018,-4.9018,-4.9018,-4.9018,-4.9018,-4.9018,-4.8917,-4.8646,-4.8007,-4.8342,-4.8443,-4.7834,-4.8274,-4.8646,-4.8646,-4.8037,-4.7293,-4.6515,-4.5906,-4.55,-4.5365,-4.5466,-4.5805,-4.6413,-4.5292,-4.4615,-4.4615,-4.4615,-4.4615,-4.4615,-4.4615,-4.4615,-4.4615,-4.4615,-4.4615,-4.4615,-4.4615,-4.4615,-2.4178,-2.5765,-2.7196,-2.7405,-2.8591,-2.9258,-2.7864,-2.7253,-2.6876,-2.6591,-2.5577,-2.5282,-2.7072,-2.8132,-3.0643,-3.6521,-4.1119,-4.4759,-4.7111,-4.8576,-5.0064,-5.1932,-5.2463,-5.2828,-5.3182,-5.3203,-5.3203,-5.3203,-5.3203,-5.3203,-5.3203,-5.3203,-5.3203,-5.3203,-5.3203,-5.3203,-5.3203,-5.3203,-5.3203,-5.3203,-5.3124,-5.306,-5.2995,-5.2893,-5.2828,-5.2761,-5.2408,-5.2066,-5.1714,-5.1398,-5.1061,-5.0714,-5.0377,-5.0067,-4.9786,-4.9471,-4.9168,-4.9018,-4.9018,-4.9018,-4.9018,-4.9018,-4.9018,-4.9018,-4.9018,-4.9018,-4.9018,-4.9018,-4.9018,-4.9018,-4.9018,-4.9018,-4.9018,-4.9018,-4.9018,-4.9018,-4.9018,-4.9018,-4.9018,-4.9018,-4.9018,-4.8883,-4.8578,-4.8781,-4.8883,-4.8545,-4.8781,-4.9018,-4.9018,-4.8376,-4.777,-4.7428,-4.6718,-4.6278,-4.6278,-4.6278,-4.6278,-4.621,-4.5568,-4.4993,-4.4615,-4.4615,-4.4615,-4.4615,-4.4615,-4.4615,-4.4615,-4.4615,-4.4615,-4.4615,-4.4615,-4.4615,-2.3872,-2.5315,-2.6837,-2.7892,-2.9261,-3.0197,-2.9541,-2.9189,-2.8906,-2.865,-2.7752,-2.7487,-2.9162,-3.0999,-3.4331,-4.0513,-4.378,-4.6246,-4.8229,-4.9298,-5.0439,-5.1932,-5.2371,-5.2694,-5.2995,-5.3039,-5.306,-5.3103,-5.3124,-5.3182,-5.3203,-5.3146,-5.3124,-5.3103,-5.3082,-5.3039,-5.3017,-5.3017,-5.3082,-5.3203,-5.3039,-5.285,-5.2635,-5.2499,-5.2278,-5.209,-5.169,-5.1363,-5.1052,-5.0686,-5.0369,-5.0057,-4.9791,-4.9615,-4.95,-4.9107,-4.9018,-4.9018,-4.9018,-4.9018,-4.9018,-4.9018,-4.9018,-4.9018,-4.9018,-4.9018,-4.9018,-4.9018,-4.9018,-4.9018,-4.9018,-4.9018,-4.9018,-4.9018,-4.9018,-4.9018,-4.9018,-4.9018,-4.9018,-4.9018,-4.9018,-4.9018,-4.9018,-4.9018,-4.9018,-4.9018,-4.9018,-4.9018,-4.9018,-4.8511,-4.8075,-4.7906,-4.7394,-4.7056,-4.7056,-4.7225,-4.6989,-4.6278,-4.5906,-4.5466,-4.4857,-4.4716,-4.4615,-4.4615,-4.4615,-4.4615,-4.4615,-4.4615,-4.4615,-4.4615,-4.4615,-4.4615,-2.3411,-2.4483,-2.5708,-2.7245,-2.9319,-3.1061,-3.1542,-3.1958,-3.2186,-3.1916,-3.1477,-3.1442,-3.2383,-3.5533,-3.9062,-4.2247,-4.4205,-4.6085,-4.8287,-4.9458,-5.0588,-5.2028,-5.2374,-5.2503,-5.2454,-5.2568,-5.268,-5.2806,-5.2937,-5.3082,-5.3167,-5.3082,-5.2937,-5.2828,-5.2717,-5.2568,-5.2454,-5.2454,-5.2717,-5.3203,-5.2952,-5.259,-5.2136,-5.1934,-5.1615,-5.1164,-5.0911,-5.0535,-5.009,-4.9878,-4.95,-4.9111,-4.9046,-4.908,-4.908,-4.9018,-4.9018,-4.9018,-4.9018,-4.9018,-4.9018,-4.9018,-4.9018,-4.9018,-4.9018,-4.9018,-4.9018,-4.9018,-4.9018,-4.9018,-4.9018,-4.9018,-4.9018,-4.9018,-4.9018,-4.9018,-4.9018,-4.9018,-4.9018,-4.9018,-4.9018,-4.9018,-4.9018,-4.9018,-4.9018,-4.9018,-4.9018,-4.9018,-4.9018,-4.8951,-4.868,-4.7973,-4.7838,-4.7804,-4.7804,-4.8443,-4.8545,-4.777,-4.6481,-4.5669,-4.5635,-4.4959,-4.4615,-4.4615,-4.4615,-4.4615,-4.4615,-4.4615,-4.4615,-4.4615,-4.4615,-4.4615,-2.2759,-2.3584,-2.4829,-2.6879,-2.8844,-3.0603,-3.2038,-3.3268,-3.4322,-3.5024,-3.5296,-3.5495,-3.5772,-3.83,-4.0933,-4.268,-4.4835,-4.7032,-4.9081,-5.0101,-5.104,-5.2004,-5.209,-5.1922,-5.1604,-5.1813,-5.209,-5.2335,-5.2613,-5.2872,-5.3167,-5.2995,-5.2702,-5.2394,-5.2208,-5.1934,-5.1579,-5.1579,-5.1679,-5.1898,-5.209,-5.1994,-5.1665,-5.1347,-5.0982,-5.0659,-5.0356,-5.0074,-4.9786,-4.9496,-4.9229,-4.9018,-4.9018,-4.9018,-4.9018,-4.9018,-4.9018,-4.9018,-4.9018,-4.9018,-4.9018,-4.9018,-4.9018,-4.9018,-4.9018,-4.9018,-4.9018,-4.9018,-4.9018,-4.9018,-4.9018,-4.9018,-4.9018,-4.9018,-4.9018,-4.9018,-4.9018,-4.9018,-4.9018,-4.9018,-4.9018,-4.9018,-4.9018,-4.9018,-4.9018,-4.9018,-4.9018,-4.9018,-4.9018,-4.9018,-4.8883,-4.8612,-4.8578,-4.8578,-4.8578,-4.8849,-4.8883,-4.8612,-4.7631,-4.6887,-4.6413,-4.6109,-4.594,-4.594,-4.594,-4.594,-4.594,-4.594,-4.594,-4.594,-4.594,-4.594,-2.2349,-2.2835,-2.387,-2.6177,-2.7991,-2.9902,-3.2686,-3.4905,-3.6675,-3.7757,-3.8132,-3.8334,-3.8498,-3.9797,-4.1368,-4.2911,-4.4713,-4.6786,-4.9228,-5.0018,-5.0713,-5.1766,-5.164,-5.1241,-5.0559,-5.0828,-5.1101,-5.125,-5.1542,-5.1908,-5.2291,-5.2229,-5.1963,-5.1515,-5.1508,-5.1286,-5.0858,-5.0893,-5.0893,-5.0858,-5.1105,-5.1131,-5.0947,-5.0605,-5.025,-4.9942,-4.9703,-4.9555,-4.9471,-4.9229,-4.9077,-4.9018,-4.9018,-4.9018,-4.9018,-4.9018,-4.9018,-4.9018,-4.9018,-4.9018,-4.9018,-4.9018,-4.9018,-4.9018,-4.9018,-4.9018,-4.9018,-4.9018,-4.9018,-4.9018,-4.9018,-4.9018,-4.9018,-4.9018,-4.9018,-4.9018,-4.9018,-4.9018,-4.9018,-4.9018,-4.9018,-4.9018,-4.9018,-4.9018,-4.9018,-4.9018,-4.9018,-4.9018,-4.9018,-4.9018,-4.9018,-4.9018,-4.9018,-4.9018,-4.9018,-4.9018,-4.9018,-4.9018,-4.8545,-4.7936,-4.7192,-4.6921,-4.6786,-4.6786,-4.6786,-4.6786,-4.6786,-4.6786,-4.6786,-4.6786,-4.6786,-4.6786,-2.2313,-2.2313,-2.2854,-2.5085,-2.6742,-2.9114,-3.3871,-3.7207,-3.9491,-4.0013,-3.9813,-3.9763,-4.0484,-4.0122,-4.0527,-4.3051,-4.3733,-4.5117,-4.8602,-4.8965,-4.9508,-5.116,-5.1008,-5.0379,-4.9276,-4.9618,-4.9766,-4.9412,-4.969,-5.0053,-5.0399,-5.0629,-5.0617,-5.0225,-5.0594,-5.064,-5.0369,-5.0369,-5.0369,-5.0369,-5.0051,-4.9959,-4.9976,-4.9791,-4.9441,-4.9018,-4.9018,-4.9018,-4.9018,-4.9018,-4.9018,-4.9018,-4.9018,-4.9018,-4.9018,-4.9018,-4.9018,-4.9018,-4.9018,-4.9018,-4.9018,-4.9018,-4.9018,-4.9018,-4.9018,-4.9018,-4.9018,-4.9018,-4.9018,-4.9018,-4.9018,-4.9018,-4.9018,-4.9018,-4.9018,-4.9018,-4.9018,-4.9018,-4.9018,-4.9018,-4.9018,-4.9018,-4.9018,-4.9018,-4.9018,-4.9018,-4.9018,-4.9018,-4.9018,-4.9018,-4.9018,-4.9018,-4.9018,-4.9018,-4.9018,-4.9018,-4.9018,-4.9018,-4.9018,-4.868,-4.7939,-4.7225,-4.6819,-4.6819,-4.6819,-4.6819,-4.6819,-4.6819,-4.6819,-4.6819,-4.6819,-4.6819,-2.2936,-2.3444,-2.4508,-2.7317,-2.9871,-3.2686,-3.6321,-3.8491,-4.0535,-4.3315,-4.3251,-4.2501,-4.1912,-4.1648,-4.1767,-4.2552,-4.3777,-4.5312,-4.7168,-4.7867,-4.8364,-4.881,-4.8645,-4.8224,-4.7557,-4.8038,-4.8548,-4.8968,-4.9293,-4.9598,-4.9945,-4.9744,-4.9497,-4.9291,-4.925,-4.9304,-4.9411,-4.9411,-4.9411,-4.9411,-4.932,-4.9436,-4.9791,-4.9466,-4.9229,-4.9018,-4.9018,-4.9018,-4.9018,-4.9018,-4.9018,-4.9018,-4.9018,-4.9018,-4.9018,-4.9018,-4.9018,-4.9018,-4.9018,-4.9018,-4.9018,-4.9018,-4.9018,-4.9018,-4.9018,-4.9018,-4.9018,-4.9018,-4.9018,-4.9018,-4.9018,-4.9018,-4.9018,-4.9018,-4.9018,-4.9018,-4.9018,-4.9018,-4.9018,-4.9018,-4.9018,-4.9018,-4.9018,-4.9018,-4.9018,-4.9018,-4.9018,-4.9018,-4.9018,-4.9018,-4.9018,-4.9018,-4.9018,-4.9018,-4.9018,-4.9018,-4.9018,-4.9018,-4.9018,-4.8917,-4.868,-4.8477,-4.8342,-4.8342,-4.8342,-4.8342,-4.8342,-4.8342,-4.8342,-4.8342,-4.8342,-4.8342,-2.3477,-2.4372,-2.5726,-2.9044,-3.2104,-3.534,-3.9306,-4.0891,-4.224,-4.4854,-4.4585,-4.3644,-4.2881,-4.2489,-4.2388,-4.2692,-4.3722,-4.4974,-4.6339,-4.6926,-4.7313,-4.7644,-4.747,-4.7056,-4.6409,-4.6862,-4.7288,-4.7703,-4.7959,-4.82,-4.8559,-4.8364,-4.8128,-4.7886,-4.7923,-4.8021,-4.8105,-4.8139,-4.8139,-4.8139,-4.8409,-4.8731,-4.9001,-4.9063,-4.9077,-4.9018,-4.9018,-4.9018,-4.9018,-4.9018,-4.9018,-4.9018,-4.9018,-4.9018,-4.9018,-4.9018,-4.9018,-4.9018,-4.9018,-4.9018,-4.9018,-4.9018,-4.9018,-4.9018,-4.9018,-4.9018,-4.9018,-4.9018,-4.9018,-4.9018,-4.9018,-4.9018,-4.9018,-4.9018,-4.9018,-4.9018,-4.9018,-4.9018,-4.9018,-4.9018,-4.9018,-4.9018,-4.9018,-4.9018,-4.9018,-4.9018,-4.9018,-4.9018,-4.9018,-4.9018,-4.9018,-4.9018,-4.9018,-4.9018,-4.9018,-4.9018,-4.9018,-4.9018,-4.9018,-4.9018,-4.9018,-4.9018,-4.9018,-4.9018,-4.9018,-4.9018,-4.9018,-4.9018,-4.9018,-4.9018,-4.9018,-4.9018,-2.3966,-2.5169,-2.6691,-3.0446,-3.3795,-3.7391,-4.2361,-4.3756,-4.4202,-4.4986,-4.4421,-4.3736,-4.3538,-4.2963,-4.2726,-4.3375,-4.3647,-4.434,-4.5912,-4.6035,-4.6253,-4.7112,-4.6988,-4.6457,-4.5669,-4.5964,-4.614,-4.607,-4.6119,-4.6291,-4.659,-4.6675,-4.6584,-4.6289,-4.6658,-4.6864,-4.6786,-4.6786,-4.6786,-4.6819,-4.7496,-4.7804,-4.7906,-4.868,-4.9018,-4.9018,-4.9018,-4.9018,-4.9018,-4.9018,-4.9018,-4.9018,-4.9018,-4.9018,-4.9018,-4.9018,-4.9018,-4.9018,-4.9018,-4.9018,-4.9018,-4.9018,-4.9018,-4.9018,-4.9018,-4.9018,-4.9018,-4.9018,-4.9018,-4.9018,-4.9018,-4.9018,-4.9018,-4.9018,-4.9018,-4.9018,-4.9018,-4.9018,-4.9018,-4.9086,-4.9086,-4.912,-4.9187,-4.9221,-4.9221,-4.9221,-4.9221,-4.9221,-4.9221,-4.9221,-4.9221,-4.9221,-4.9221,-4.9221,-4.9221,-4.9221,-4.9187,-4.912,-4.9086,-4.9086,-4.9018,-4.9018,-4.9018,-4.9018,-4.9018,-4.9018,-4.9018,-4.9018,-4.9018,-4.9018,-4.9018,-4.9018,-2.4594,-2.6302,-2.8229,-3.2002,-3.6502,-4.0764,-4.3673,-4.4406,-4.4495,-4.4686,-4.4563,-4.4406,-4.4344,-4.4209,-4.4175,-4.4344,-4.4406,-4.4535,-4.4924,-4.493,-4.4998,-4.5196,-4.5173,-4.5049,-4.4852,-4.5097,-4.5402,-4.5631,-4.5692,-4.5743,-4.5749,-4.5624,-4.5637,-4.5812,-4.5925,-4.624,-4.6786,-4.6786,-4.6786,-4.6786,-4.6955,-4.7327,-4.7906,-4.868,-4.9018,-4.9018,-4.9018,-4.9018,-4.9018,-4.9018,-4.9018,-4.9018,-4.9018,-4.9018,-4.9018,-4.9018,-4.9018,-4.9018,-4.9018,-4.9018,-4.9018,-4.9018,-4.9018,-4.9018,-4.9018,-4.9018,-4.9018,-4.9018,-4.9018,-4.9018,-4.9018,-4.9018,-4.9018,-4.9018,-4.9018,-4.9018,-4.9018,-4.9018,-4.9187,-4.9729,-4.9864,-5.0033,-5.0642,-5.0744,-5.0744,-5.0744,-5.0744,-5.0744,-5.0744,-5.0744,-5.0744,-5.0744,-5.0744,-5.0744,-5.0744,-5.0744,-5.0473,-4.9898,-4.9864,-4.9593,-4.9018,-4.9018,-4.9018,-4.9018,-4.9018,-4.9018,-4.9018,-4.9018,-4.9018,-4.9018,-4.9018,-4.9018,-2.5135,-2.7232,-2.9634,-3.4776,-3.8937,-4.2117,-4.3673,-4.4316,-4.4615,-4.4615,-4.4615,-4.4615,-4.4615,-4.4615,-4.4615,-4.4615,-4.4615,-4.4615,-4.4615,-4.4615,-4.4615,-4.4615,-4.4615,-4.4615,-4.4615,-4.4776,-4.5015,-4.5354,-4.5302,-4.5336,-4.5354,-4.515,-4.5056,-4.519,-4.5162,-4.5365,-4.5737,-4.5766,-4.5766,-4.5766,-4.6109,-4.6853,-4.7906,-4.868,-4.9018,-4.9018,-4.9018,-4.9018,-4.9018,-4.9018,-4.9018,-4.9018,-4.9018,-4.9018,-4.9018,-4.9018,-4.9018,-4.9018,-4.9018,-4.9018,-4.9018,-4.9018,-4.9018,-4.9018,-4.9018,-4.9018,-4.9018,-4.9018,-4.9018,-4.9018,-4.9018,-4.9018,-4.9086,-4.9424,-4.9255,-4.9018,-4.9018,-4.9289,-4.9627,-5.0033,-5.0371,-5.0744,-5.1117,-5.1185,-5.1185,-5.1185,-5.1185,-5.1185,-5.1185,-5.1185,-5.1185,-5.1185,-5.1185,-5.1185,-5.1185,-5.1185,-5.1048,-5.0642,-5.0304,-4.9932,-4.9526,-4.9187,-4.9018,-4.9018,-4.9018,-4.9018,-4.9018,-4.9018,-4.9018,-4.9018,-4.9018,-4.9018,-2.5169,-2.8096,-3.1413,-3.7483,-4.0663,-4.2489,-4.3234,-4.4012,-4.4615,-4.4615,-4.4615,-4.4615,-4.4615,-4.4615,-4.4615,-4.4615,-4.4615,-4.4615,-4.4615,-4.4615,-4.4615,-4.4615,-4.4615,-4.4615,-4.4615,-4.4692,-4.4858,-4.5069,-4.4961,-4.4995,-4.5069,-4.4886,-4.4692,-4.4615,-4.4615,-4.4615,-4.4615,-4.4615,-4.4615,-4.4615,-4.5365,-4.6346,-4.7534,-4.8443,-4.8883,-4.9018,-4.9018,-4.9018,-4.9018,-4.9018,-4.9018,-4.9018,-4.9018,-4.9018,-4.9018,-4.9018,-4.9018,-4.9018,-4.9018,-4.9018,-4.9018,-4.9018,-4.9018,-4.9018,-4.9018,-4.9018,-4.9018,-4.9018,-4.9018,-4.9018,-4.9018,-4.9086,-4.9357,-4.9932,-4.9729,-4.939,-4.939,-4.9864,-5.0338,-5.0439,-5.1082,-5.1623,-5.1623,-5.1623,-5.1623,-5.1623,-5.1623,-5.1623,-5.1623,-5.1623,-5.1623,-5.1623,-5.1623,-5.1623,-5.1623,-5.1623,-5.1555,-5.142,-5.0811,-5.0405,-5.0304,-4.9695,-4.939,-4.939,-4.912,-4.9018,-4.9018,-4.9018,-4.9018,-4.9018,-4.9018,-4.9018,-2.3932,0.0,-3.4607,0.0,-4.0663,-4.2489,-4.3234,-4.4012,-4.4615,-4.4615,-4.4615,-4.4615,-4.4615,-4.4615,-4.4615,-4.4615,-4.4615,-4.4615,-4.4615,-4.4615,-4.4615,-4.4615,-4.4615,-4.4615,-4.4615,-4.4615,-4.4643,-4.4699,-4.4637,-4.4671,-4.4665,-4.4671,-4.4643,-4.4615,-4.4615,-4.4615,-4.4615,-4.4615,-4.4615,-4.4615,-4.5365,-4.5805,-4.6041,-4.7428,-4.8409,-4.9018,-4.9018,-4.9018,-4.9018,-4.9018,-4.9018,-4.9018,-4.9018,-4.9018,-4.9018,-4.9018,-4.9018,-4.9018,-4.9018,-4.9018,-4.9018,-4.9018,-4.9018,-4.9018,-4.9018,-4.9018,-4.9018,-4.9018,-4.9018,-4.9018,-4.9018,-4.9458,-4.9965,-5.0067,-5.0507,-5.0881,-5.0881,-5.098,-5.1251,-5.1894,-5.2672,-5.3213,-5.3213,-5.3213,-5.3213,-5.3213,-5.3213,-5.3213,-5.3213,-5.3213,-5.3213,-5.3213,-5.3213,-5.3213,-5.3213,-5.3213,-5.2909,-5.2198,-5.2063,-5.1725,-5.1082,-5.098,-5.0881,-5.0881,-4.9661,-4.9018,-4.9018,-4.9018,-4.9018,-4.9018,-4.9018,-4.9018,-2.5101,-3.0345,-3.5115,0.0,-4.0054,-4.1779,-4.2083,-4.276,-4.3328,-4.3328,-4.3639,-4.4079,-4.4513,-4.4615,-4.4615,-4.4615,-4.4615,-4.4615,-4.4615,-4.4615,-4.4615,-4.4615,-4.4615,-4.4615,-4.4615,-4.4615,-4.4615,-4.4615,-4.4615,-4.4615,-4.4615,-4.4615,-4.4615,-4.4615,-4.4615,-4.4615,-4.4615,-4.4615,-4.4615,-4.4615,-4.4925,-4.5297,-4.5737,-4.638,-4.7293,-4.8409,-4.8815,-4.9018,-4.9018,-4.9018,-4.9018,-4.9018,-4.9018,-4.9018,-4.9018,-4.9018,-4.9018,-4.9018,-4.9018,-4.9018,-4.9018,-4.9018,-4.9018,-4.9018,-4.9018,-4.9018,-4.9086,-4.9492,-4.9627,-4.9695,-5.0135,-5.0473,-5.0811,-5.1217,-5.1589,-5.1961,-5.2401,-5.2131,-5.2063,-5.2841,-5.3281,-5.3518,-5.3518,-5.3518,-5.3518,-5.3518,-5.3518,-5.3518,-5.3518,-5.3518,-5.3518,-5.3518,-5.3518,-5.3518,-5.3518,-5.3518,-5.3348,-5.301,-5.257,-5.2164,-5.1826,-5.142,-5.1185,-5.1185,-5.0574,-5.0236,-5.0236,-5.0236,-5.0033,-4.9627,-4.9627,-4.939,-2.5829,0.0,-3.3931,-3.6197,-3.8565,-4.0426,-4.0595,-4.1339,-4.2049,-4.2252,-4.2895,-4.3606,-4.4181,-4.4479,-4.4615,-4.4615,-4.4615,-4.4615,-4.4615,-4.4615,-4.4615,-4.4615,-4.4615,-4.4615,-4.4615,-4.4615,-4.4615,-4.4615,-4.4615,-4.4615,-4.4615,-4.4615,-4.4615,-4.4615,-4.4615,-4.4615,-4.4615,-4.4615,-4.4615,-4.4615,-4.4615,-4.4886,-4.5432,-4.5602,-4.6312,-4.7365,-4.8139,-4.8545,-4.8714,-4.8714,-4.8849,-4.9018,-4.9018,-4.9018,-4.9018,-4.9018,-4.9018,-4.9018,-4.9018,-4.9018,-4.9018,-4.9018,-4.9018,-4.9018,-4.9018,-4.9018,-4.9154,-4.9898,-5.0101,-5.027,-5.1014,-5.132,-5.1623,-5.2164,-5.2469,-5.2773,-5.3382,-5.3044,-5.2773,-5.3382,-5.3518,-5.3518,-5.3518,-5.3518,-5.3518,-5.3518,-5.3518,-5.3518,-5.3518,-5.3518,-5.3518,-5.3518,-5.3518,-5.3518,-5.3518,-5.3518,-5.3518,-5.3518,-5.2942,-5.2604,-5.2604,-5.2097,-5.1792,-5.1792,-5.1792,-5.1589,-5.1185,-5.1185,-5.0913,-5.0371,-5.0168,-4.9796,-2.4864,-2.7959,0.0,-3.3085,-3.5893,-3.8261,-3.8937,-4.0223,-4.1474,-4.2151,-4.2895,-4.3409,-4.3443,-4.4079,-4.4615,-4.4615,-4.4615,-4.4615,-4.4615,-4.4615,-4.4615,-4.4615,-4.4615,-4.4615,-4.4615,-4.4615,-4.4615,-4.4615,-4.4615,-4.4615,-4.4615,-4.4615,-4.4615,-4.4615,-4.4615,-4.4615,-4.4615,-4.4615,-4.4615,-4.4615,-4.4615,-4.4615,-4.4682,-4.5365,-4.5737,-4.5872,-4.6583,-4.7327,-4.7939,-4.7939,-4.8376,-4.9018,-4.9018,-4.9018,-4.9018,-4.9018,-4.9018,-4.9018,-4.9018,-4.9018,-4.9018,-4.9018,-4.9018,-4.9018,-4.9018,-4.9018,-4.9154,-4.9898,-5.0101,-5.027,-5.1014,-5.1725,-5.2266,-5.23,-5.2875,-5.345,-5.3484,-5.3484,-5.345,-5.3484,-5.3518,-5.3518,-5.3518,-5.3518,-5.3518,-5.3518,-5.3518,-5.3518,-5.3518,-5.3518,-5.3518,-5.3518,-5.3518,-5.3518,-5.3518,-5.3518,-5.3518,-5.3518,-5.345,-5.345,-5.345,-5.3416,-5.3382,-5.3382,-5.3382,-5.2672,-5.1185,-5.1185,-5.1151,-5.115,-5.0439,-5.0067,-2.2922,0.0,0.0,-3.0108,-3.2814,-3.5216,-3.5926,-3.7652,-3.9309,-4.002,-4.1136,-4.2016,-4.2016,-4.3403,-4.4615,-4.4615,-4.4615,-4.4615,-4.4615,-4.4615,-4.4615,-4.4615,-4.4615,-4.4615,-4.4615,-4.4615,-4.4615,-4.4615,-4.4615,-4.4615,-4.4615,-4.4615,-4.4615,-4.4615,-4.4615,-4.4615,-4.4615,-4.4615,-4.4615,-4.4615,-4.4615,-4.4615,-4.4615,-4.4886,-4.4993,-4.4993,-4.5292,-4.6075,-4.7225,-4.7703,-4.8071,-4.8342,-4.8815,-4.9018,-4.9018,-4.9018,-4.9018,-4.9018,-4.9018,-4.9018,-4.9018,-4.9018,-4.9018,-4.9018,-4.9018,-4.9018,-4.9255,-5.0473,-5.0811,-5.1116,-5.2367,-5.2875,-5.3078,-5.3078,-5.3281,-5.3518,-5.3518,-5.3518,-5.3518,-5.3518,-5.3518,-5.3518,-5.3518,-5.3518,-5.3518,-5.3518,-5.3518,-5.3518,-5.3518,-5.3518,-5.3518,-5.3518,-5.3518,-5.3518,-5.3518,-5.3518,-5.3518,-5.3518,-5.3518,-5.3518,-5.3518,-5.3518,-5.3518,-5.3518,-5.3518,-5.3247,-5.2672,-5.2672,-5.2435,-5.1894,-5.1623,-5.1251,-2.1164,-2.3342,0.0,0.0,-2.9533,-3.1867,-3.3119,-3.5148,-3.711,-3.8362,-3.9817,-4.0933,-4.117,-4.2625,-4.3836,-4.3836,-4.3836,-4.3836,-4.3836,-4.3836,-4.3836,-4.3836,-4.4073,-4.4181,-4.4181,-4.4445,-4.4615,-4.4615,-4.4615,-4.4615,-4.4615,-4.4615,-4.4615,-4.4615,-4.4615,-4.4615,-4.4615,-4.4615,-4.4615,-4.4615,-4.4615,-4.4615,-4.4615,-4.4615,-4.4615,-4.4615,-4.4857,-4.5669,-4.6819,-4.7327,-4.7834,-4.8342,-4.8815,-4.9018,-4.9018,-4.9018,-4.9018,-4.9018,-4.9018,-4.9018,-4.9018,-4.9018,-4.9018,-4.9018,-4.9018,-4.9187,-4.9627,-5.0879,-5.1386,-5.1894,-5.3179,-5.3518,-5.3518,-5.3518,-5.3518,-5.3518,-5.3518,-5.3518,-5.3518,-5.3518,-5.3518,-5.3518,-5.3518,-5.3518,-5.3518,-5.3518,-5.3518,-5.3518,-5.3518,-5.3518,-5.3518,-5.3518,-5.3518,-5.3518,-5.3518,-5.3518,-5.3518,-5.3518,-5.3518,-5.3518,-5.3518,-5.3518,-5.3518,-5.3518,-5.3518,-5.3518,-5.3518,-5.3518,-5.3247,-5.2706,-5.2435,-5.1894,0.0,0.0,0.0,0.0,-2.6015,-2.8263,-3.048,-3.2747,-3.5047,-3.7313,-3.898,-4.0265,-4.1001,-4.1745,-4.2219,-4.2219,-4.2252,-4.2286,-4.2286,-4.2286,-4.2286,-4.2286,-4.2929,-4.3375,-4.3375,-4.4113,-4.4581,-4.4615,-4.4615,-4.4615,-4.4615,-4.4615,-4.4615,-4.4615,-4.4615,-4.4615,-4.4615,-4.4615,-4.4615,-4.4615,-4.4615,-4.4615,-4.4615,-4.4615,-4.4615,-4.4649,-4.5365,-4.6109,-4.6786,-4.6819,-4.7665,-4.8984,-4.8984,-4.9018,-4.9018,-4.9018,-4.9018,-4.9018,-4.9018,-4.9018,-4.9018,-4.9018,-4.9018,-4.9018,-4.9018,-4.9526,-5.0236,-5.1014,-5.1758,-5.2503,-5.3281,-5.3518,-5.3518,-5.3518,-5.3518,-5.3518,-5.3518,-5.3518,-5.3518,-5.3518,-5.3518,-5.3518,-5.3518,-5.3518,-5.3518,-5.3518,-5.3518,-5.3518,-5.3518,-5.3518,-5.3518,-5.3518,-5.3518,-5.3518,-5.3518,-5.3518,-5.3518,-5.3518,-5.3518,-5.3518,-5.3518,-5.3518,-5.3518,-5.3518,-5.3518,-5.3518,-5.3518,-5.3518,-5.3518,-5.3484,-5.2706,-5.1961,-1.9934,0.0,0.0,0.0,0.0,0.0,-2.6099,-2.9348,-3.2577,-3.4303,-3.6705,-3.8734,-3.9478,-4.0189,-4.0722,-4.0722,-4.1576,-4.2286,-4.2286,-4.2286,-4.2286,-4.2286,-4.2489,-4.2828,-4.3341,-4.3606,-4.3978,-4.4581,-4.4615,-4.4615,-4.4615,-4.4615,-4.4615,-4.4615,-4.4615,-4.4615,-4.4615,-4.4615,-4.4615,-4.4615,-4.4615,-4.4615,-4.4615,-4.4615,-4.4615,-4.4615,-4.4818,-4.563,-4.6819,-4.7394,-4.7868,-4.8274,-4.8815,-4.9018,-4.9018,-4.9018,-4.9018,-4.9018,-4.9018,-4.9018,-4.9018,-4.9018,-4.9018,-4.9086,-4.9627,-4.9932,-5.0338,-5.1657,-5.2131,-5.2503,-5.3281,-5.3518,-5.3518,-5.3518,-5.3518,-5.3518,-5.3518,-5.3518,-5.3518,-5.3518,-5.3518,-5.3518,-5.3518,-5.3518,-5.3518,-5.3518,-5.3518,-5.3518,-5.3518,-5.3518,-5.3518,-5.3518,-5.3518,-5.3518,-5.3518,-5.3518,-5.3518,-5.3518,-5.3518,-5.3518,-5.3518,-5.3518,-5.3518,-5.3518,-5.3518,-5.3518,-5.3518,-5.3518,-5.3518,-5.3484,-5.3281,-5.3078,-2.0002,-2.0002,-2.0002,-2.0002,0.0,0.0,-2.3864,-2.7029,-3.0311,-3.2104,-3.437,-3.6332,-3.7381,-3.7922,-3.8227,-3.8227,-3.9233,-4.035,-4.1264,-4.1399,-4.1399,-4.1399,-4.1644,-4.2016,-4.2455,-4.276,-4.3132,-4.3633,-4.3667,-4.3741,-4.4079,-4.4079,-4.4248,-4.4581,-4.4615,-4.4615,-4.4615,-4.4615,-4.4615,-4.4615,-4.4615,-4.4615,-4.4615,-4.4615,-4.4615,-4.4615,-4.4925,-4.5534,-4.6413,-4.7496,-4.8075,-4.8409,-4.8849,-4.9018,-4.9018,-4.9018,-4.9018,-4.9018,-4.9018,-4.9018,-4.9018,-4.9018,-4.9018,-4.9154,-4.9864,-5.0304,-5.0811,-5.1961,-5.2536,-5.2909,-5.3382,-5.3518,-5.3518,-5.3518,-5.3518,-5.3518,-5.3518,-5.3518,-5.3518,-5.3518,-5.3518,-5.3518,-5.3518,-5.3518,-5.3518,-5.3518,-5.3518,-5.3518,-5.3518,-5.3788,-5.3957,-5.3957,-5.4228,-5.4431,-5.4431,-5.4431,-5.4296,-5.3991,-5.3957,-5.3822,-5.3518,-5.3518,-5.3518,-5.3518,-5.3518,-5.3518,-5.3518,-5.3518,-5.3518,-5.3518,-5.3518,-5.3518,-2.0521,-2.0386,0.0,-2.0251,-2.1231,0.0,-2.3004,-2.5372,-2.8027,-3.0142,-3.1833,-3.3355,-3.4721,-3.5059,-3.5092,-3.5092,-3.5859,-3.7235,-3.9537,-3.9943,-4.0011,-4.0079,-4.0663,-4.1102,-4.1204,-4.1779,-4.2185,-4.2286,-4.2286,-4.2591,-4.324,-4.3341,-4.3741,-4.4445,-4.4547,-4.4615,-4.4615,-4.4615,-4.4615,-4.4615,-4.4615,-4.4615,-4.4615,-4.4615,-4.4615,-4.4649,-4.5297,-4.5635,-4.5805,-4.7225,-4.8206,-4.8883,-4.8984,-4.9018,-4.9018,-4.9018,-4.9018,-4.9018,-4.9018,-4.9018,-4.9018,-4.9018,-4.9018,-4.9154,-4.9965,-5.0676,-5.1386,-5.2198,-5.2942,-5.3518,-5.3518,-5.3518,-5.3518,-5.3518,-5.3518,-5.3518,-5.3518,-5.3518,-5.3518,-5.3518,-5.3518,-5.3518,-5.3518,-5.3518,-5.3518,-5.3518,-5.3518,-5.3518,-5.3518,-5.4126,-5.46,-5.46,-5.5277,-5.5683,-5.5546,-5.5581,-5.5277,-5.4499,-5.4465,-5.416,-5.3518,-5.3518,-5.3518,-5.3518,-5.3518,-5.3518,-5.3518,-5.3518,-5.3518,-5.3518,-5.3518,-5.3518,-2.3628,-2.2767,-2.184,-2.184,-2.1617,0.0,-2.1597,-2.3458,-2.5439,-2.6488,-2.8383,-3.0127,-3.1021,-3.1664,-3.207,-3.207,-3.3186,-3.5047,-3.7922,-3.8836,-3.9411,-4.0045,-4.0248,-4.0553,-4.1136,-4.1339,-4.1644,-4.2252,-4.2286,-4.2354,-4.2489,-4.3098,-4.3477,-4.3639,-4.4248,-4.4615,-4.4615,-4.4615,-4.4615,-4.4615,-4.4615,-4.4615,-4.4615,-4.4615,-4.4615,-4.4615,-4.475,-4.5128,-4.5771,-4.665,-4.7462,-4.8142,-4.8781,-4.9018,-4.9018,-4.9018,-4.9018,-4.9018,-4.9018,-4.9018,-4.9018,-4.9018,-4.9018,-4.9255,-5.0608,-5.1116,-5.1488,-5.2875,-5.3382,-5.3518,-5.3518,-5.3518,-5.3518,-5.3518,-5.3518,-5.3518,-5.3518,-5.3518,-5.3518,-5.3518,-5.3518,-5.3518,-5.3518,-5.3518,-5.3518,-5.3518,-5.3518,-5.3518,-5.3518,-5.4126,-5.46,-5.46,-5.5277,-5.548,-5.4871,-5.4803,-5.4499,-5.3754,-5.3721,-5.3653,-5.3518,-5.3518,-5.3518,-5.3518,-5.3518,-5.3518,-5.3518,-5.3518,-5.3518,-5.3518,-5.3518,-5.3518,-2.5591,-2.4797,-2.3782,-2.3038,-2.2564,0.0,0.0,-2.2612,-2.4169,-2.4898,-2.6251,-2.7537,-2.8281,-2.8721,-2.8958,-2.8958,-3.0209,-3.2002,-3.4235,-3.6468,-3.8183,-3.8903,-3.9309,-3.9706,-4.0054,-4.0426,-4.0798,-4.117,-4.1196,-4.1339,-4.1745,-4.2117,-4.2632,-4.3375,-4.3809,-4.4181,-4.4615,-4.4615,-4.4615,-4.4615,-4.4615,-4.4615,-4.4615,-4.4615,-4.4615,-4.4615,-4.4615,-4.4818,-4.5229,-4.6346,-4.7022,-4.7462,-4.8578,-4.9018,-4.9018,-4.9018,-4.9018,-4.9018,-4.9018,-4.9018,-4.9018,-4.9018,-4.9018,-4.9289,-5.0745,-5.1758,-5.2536,-5.3281,-5.3518,-5.3518,-5.3518,-5.3518,-5.3518,-5.3518,-5.3518,-5.3518,-5.3518,-5.3518,-5.3518,-5.3518,-5.3518,-5.3518,-5.3518,-5.3518,-5.3518,-5.3518,-5.3822,-5.4059,-5.4059,-5.5006,-5.5683,-5.5683,-5.6359,-5.6494,-5.575,-5.5683,-5.5243,-5.4126,-5.4059,-5.389,-5.3518,-5.3518,-5.3518,-5.3518,-5.3518,-5.3518,-5.3518,-5.3518,-5.3518,-5.3518,-5.3518,-5.3518,-2.7131,-2.6488,-2.5507,-2.4154,-2.3613,-2.3038,0.0,0.0,0.0,-2.3966,-2.456,-2.5169,-2.5744,-2.5845,-2.5845,-2.5845,-2.7148,-2.8604,-2.9939,-3.2983,-3.5656,-3.728,-3.8125,-3.8633,-3.8768,-3.9309,-3.9673,-3.9673,-3.9673,-3.9986,-4.073,-4.1068,-4.1813,-4.3166,-4.3308,-4.3809,-4.4615,-4.4615,-4.4615,-4.4615,-4.4615,-4.4615,-4.4615,-4.4615,-4.4615,-4.4615,-4.4615,-4.4615,-4.4716,-4.6177,-4.6786,-4.6955,-4.8409,-4.9018,-4.9018,-4.9018,-4.9018,-4.9018,-4.9018,-4.9018,-4.9018,-4.9018,-4.9187,-4.9661,-5.0813,-5.23,-5.3518,-5.3518,-5.3518,-5.3518,-5.3518,-5.3518,-5.3518,-5.3518,-5.3518,-5.3518,-5.3518,-5.3518,-5.3518,-5.3518,-5.3518,-5.3518,-5.3518,-5.3518,-5.3518,-5.3518,-5.4126,-5.46,-5.46,-5.5886,-5.6799,-5.6799,-5.7442,-5.7543,-5.6664,-5.6596,-5.5953,-5.4465,-5.4397,-5.4126,-5.3518,-5.3518,-5.3518,-5.3518,-5.3518,-5.3518,-5.3518,-5.3518,-5.3518,-5.3518,-5.3518,-5.3518,-2.8739,-2.769,-2.6387,-2.5575,-2.4357,-2.3173,-2.2361,0.0,-2.2448,-2.2516,0.0,-2.2685,-2.2786,0.0,0.0,-2.2801,-2.4052,-2.532,-2.6116,-2.7722,-3.0562,-3.5295,-3.6569,-3.7337,-3.7956,-3.8091,-3.8159,-3.8159,-3.8159,-3.8464,-3.9208,-4.0493,-4.1576,-4.2388,-4.3064,-4.3809,-4.4615,-4.4615,-4.4615,-4.4615,-4.4615,-4.4615,-4.4615,-4.4615,-4.4615,-4.4615,-4.4615,-4.4615,-4.4716,-4.6177,-4.6786,-4.6955,-4.8409,-4.9018,-4.9018,-4.9018,-4.9018,-4.9018,-4.9018,-4.9018,-4.9018,-4.9018,-4.9898,-5.098,-5.1151,-5.23,-5.3518,-5.3518,-5.3518,-5.3518,-5.3518,-5.3518,-5.3518,-5.3518,-5.3518,-5.3518,-5.3518,-5.3518,-5.3518,-5.3518,-5.3518,-5.3518,-5.3518,-5.3518,-5.3518,-5.3518,-5.4126,-5.46,-5.46,-5.5886,-5.6799,-5.6799,-5.7442,-5.734,-5.5953,-5.5817,-5.5209,-5.3721,-5.3619,-5.3585,-5.3518,-5.3518,-5.3518,-5.3518,-5.3518,-5.3518,-5.3518,-5.3518,-5.3518,-5.3518,-5.3518,-5.3518,-3.0905,-2.9517,-2.7757,-2.6522,-2.5151,-2.3729,-2.2564,-2.2632,-2.2936,-2.2936,0.0,0.0,0.0,0.0,0.0,0.0,-2.3444,-2.4135,-2.488,-2.5879,-2.7824,-3.136,-3.3207,-3.4832,-3.6411,-3.6197,-3.6096,-3.6512,-3.6163,-3.6637,-3.8261,-3.9343,-4.0663,-4.2252,-4.2591,-4.3335,-4.4581,-4.4615,-4.4615,-4.4615,-4.4615,-4.4615,-4.4615,-4.4615,-4.4615,-4.4615,-4.4615,-4.4615,-4.4716,-4.6177,-4.6786,-4.6955,-4.8409,-4.9018,-4.9018,-4.9018,-4.9018,-4.9018,-4.9018,-4.9018,-4.9086,-4.9492,-5.0338,-5.1285,-5.1725,-5.2638,-5.3518,-5.3518,-5.3518,-5.3518,-5.3518,-5.3518,-5.3518,-5.3518,-5.3518,-5.3518,-5.3518,-5.3518,-5.3518,-5.3518,-5.3518,-5.3518,-5.3518,-5.3856,-5.4126,-5.4126,-5.5141,-5.5886,-5.5886,-5.6799,-5.7442,-5.7442,-5.7712,-5.7476,-5.6427,-5.6359,-5.5886,-5.4837,-5.4803,-5.4803,-5.4803,-5.4363,-5.4126,-5.4126,-5.3721,-5.3518,-5.3518,-5.3518,-5.3518,-5.3518,-5.3518,-5.3518,-3.2361,-3.0838,-2.8874,-2.7131,-2.5591,-2.4101,-2.2632,-2.2868,-2.341,-2.341,-2.4,0.0,0.0,0.0,0.0,0.0,0.0,-2.3274,-2.3831,-2.4357,-2.5609,-2.8096,-3.0533,-3.2611,-3.4235,-3.3897,-3.3829,-3.4349,-3.41,-3.4878,-3.7144,-3.8362,-3.9986,-4.2219,-4.2286,-4.3031,-4.4581,-4.4615,-4.4615,-4.4615,-4.4615,-4.4615,-4.4615,-4.4615,-4.4615,-4.4615,-4.4615,-4.4716,-4.4993,-4.6278,-4.6921,-4.7225,-4.8511,-4.9018,-4.9018,-4.9018,-4.9018,-4.9018,-4.9018,-4.912,-4.939,-4.9932,-5.0744,-5.1623,-5.2131,-5.2875,-5.3518,-5.3518,-5.3518,-5.3518,-5.3518,-5.3518,-5.3518,-5.3518,-5.3518,-5.3518,-5.3518,-5.3518,-5.3518,-5.3518,-5.3518,-5.3518,-5.3518,-5.3923,-5.4363,-5.4566,-5.5683,-5.6562,-5.6765,-5.7442,-5.7881,-5.7881,-5.7881,-5.7577,-5.6867,-5.6799,-5.6494,-5.5749,-5.5681,-5.5615,-5.5412,-5.4871,-5.4499,-5.4296,-5.3788,-5.3518,-5.3518,-5.3518,-5.3518,-5.3518,-5.3518,-5.3518,-3.2496,-3.119,-2.9533,-2.7266,-2.5591,-2.4101,-2.2632,-2.2868,-2.341,-2.341,-2.4,-2.4508,-2.4508,0.0,0.0,0.0,0.0,0.0,0.0,-2.2381,-2.3496,-2.6437,-2.9397,-3.1258,-3.1326,-3.1326,-3.1326,-3.1326,-3.1989,-3.3322,-3.5566,-3.7787,-3.9986,-4.2219,-4.2286,-4.3031,-4.4581,-4.4615,-4.4615,-4.4615,-4.4615,-4.4615,-4.4615,-4.4615,-4.4615,-4.4615,-4.4615,-4.4993,-4.5737,-4.6481,-4.7225,-4.7939,-4.8714,-4.9018,-4.9018,-4.9018,-4.9018,-4.9018,-4.9018,-4.9458,-5.0067,-5.0067,-5.1082,-5.2266,-5.23,-5.2875,-5.3518,-5.3518,-5.3518,-5.3518,-5.3518,-5.3518,-5.3518,-5.3518,-5.3518,-5.3518,-5.3518,-5.3518,-5.3518,-5.3518,-5.3518,-5.3518,-5.3518,-5.3518,-5.3788,-5.4465,-5.5243,-5.6021,-5.6697,-5.7442,-5.7881,-5.7881,-5.7881,-5.7577,-5.6867,-5.6799,-5.6494,-5.5749,-5.5681,-5.5378,-5.4668,-5.46,-5.4262,-5.3551,-5.3518,-5.3518,-5.3518,-5.3518,-5.3518,-5.3518,-5.3518,-5.3518,-3.4573,-3.3051,-3.1123,-2.9397,-2.8213,-2.6945,-2.4932,-2.5423,-2.6167,-2.5676,-2.6606,-2.7486,-2.7486,0.0,0.0,0.0,0.0,0.0,0.0,-2.2313,-2.2854,-2.4323,-2.6285,0.0,-2.818,-2.7774,-2.7909,-2.8872,-2.9176,-3.0751,-3.3977,-3.6299,-3.8768,-4.1474,-4.2049,-4.3031,-4.4581,-4.4615,-4.4615,-4.4615,-4.4615,-4.4615,-4.4615,-4.4615,-4.4615,-4.4649,-4.5128,-4.5466,-4.5805,-4.7022,-4.7669,-4.7973,-4.8714,-4.9018,-4.9018,-4.9018,-4.9018,-4.9018,-4.9018,-4.9492,-5.0168,-5.0676,-5.1488,-5.2401,-5.2942,-5.3281,-5.3518,-5.3518,-5.3518,-5.3518,-5.3518,-5.3518,-5.3518,-5.3518,-5.3518,-5.3518,-5.3518,-5.3518,-5.3518,-5.3518,-5.3518,-5.3518,-5.3518,-5.3518,-5.3754,-5.4465,-5.5649,-5.6528,-5.6765,-5.7442,-5.7881,-5.7881,-5.7881,-5.778,-5.7543,-5.7509,-5.7408,-5.7171,-5.6697,-5.6325,-5.6055,-5.5108,-5.4465,-5.4228,-5.3754,-5.3518,-5.3518,-5.3518,-5.3518,-5.3518,-5.3518,-5.3518,-3.6096,-3.4776,-3.3119,-3.163,-3.0514,-2.9281,-2.7266,-2.7774,-2.8398,-2.7672,-2.8739,-2.9788,-2.9788,0.0,0.0,0.0,0.0,0.0,0.0,-2.2313,-2.2482,-2.297,-2.4323,0.0,0.0,-2.571,-2.5998,-2.6945,-2.7486,-2.9311,-3.2814,-3.5148,-3.7855,-4.1102,-4.1914,-4.3031,-4.4581,-4.4615,-4.4615,-4.4615,-4.4615,-4.4615,-4.4615,-4.4615,-4.4615,-4.4649,-4.5365,-4.5838,-4.6177,-4.7428,-4.8041,-4.8342,-4.8815,-4.9018,-4.9018,-4.9018,-4.9187,-4.939,-4.939,-5.0033,-5.0947,-5.1454,-5.2131,-5.2841,-5.3348,-5.3518,-5.3518,-5.3518,-5.3518,-5.3518,-5.3518,-5.3518,-5.3518,-5.3518,-5.3518,-5.3518,-5.3518,-5.3518,-5.3518,-5.3518,-5.3518,-5.3518,-5.3518,-5.3518,-5.3754,-5.4465,-5.5412,-5.6122,-5.6393,-5.6833,-5.7205,-5.7476,-5.7509,-5.7611,-5.7881,-5.7881,-5.778,-5.7509,-5.707,-5.6562,-5.6055,-5.5108,-5.4465,-5.4194,-5.3754,-5.3518,-5.3518,-5.3518,-5.3518,-5.3518,-5.3518,-5.3518]},{"header":{"parameterUnit":"m.s-1","parameterCategory":1,"la1":30.6,"la2":29.2853,"lo1":-89.7004,"lo2":-87.6739,"dy":0.0162,"dx":0.0183,"nx":112,"ny":82,"refTime":"2026-04-12T00:00:00:Z","depth":0,"parameterNumber":3,"parameterNumberName":"V-component_of_WINDS"},"data":[0.0,0.0,0.0,0.0,0.0,0.0,0.0,0.0,0.0,0.0,0.0,0.0,0.0,0.0,0.0,0.0,0.0,0.0,0.0,0.0,0.0,0.0,0.0,0.0,0.0,0.0,0.0,0.0,0.0,0.0,0.0,0.0,0.0,0.0,0.0,0.0,0.0,0.0,0.0,0.0,0.0,0.0,0.0,0.0,0.0,0.0,0.0,0.0,0.0,0.0,0.0,0.0,0.0,0.0,0.0,0.0,0.0,0.0,0.0,0.0,0.0,0.0,0.0,0.0,0.0,0.0,0.0,0.0,0.0,0.0,0.0,0.0,0.0,0.0,0.0,0.0,0.0,0.0,0.0,0.0,0.0,0.0,0.0,0.0,0.0,0.0,0.0,0.0,0.0,0.0,0.8791,1.072,1.2318,1.2933,1.2114,1.1423,1.0448,0.9031,0.0,0.0,0.0,0.0,0.0,0.0,0.0,0.0,0.0,0.0,0.0,0.0,0.0,0.0,0.0,0.0,0.0,0.0,0.0,0.0,0.0,0.0,0.0,0.0,0.0,0.0,0.0,0.0,0.0,0.0,0.0,0.0,0.0,0.0,0.0,0.0,0.0,0.0,0.0,0.0,0.0,0.0,0.0,0.0,0.0,0.0,0.0,0.0,0.0,0.0,0.0,0.0,0.0,0.0,0.0,0.0,0.0,0.0,0.0,0.0,0.0,0.0,0.0,0.0,0.0,0.0,0.0,0.0,0.0,0.0,0.0,0.0,0.0,0.0,0.0,0.0,0.0,0.0,0.0,0.0,0.0,0.0,0.0,0.0,0.0,0.0,0.0,0.0,0.0,0.0,0.0,0.0,0.0,0.0,0.0,0.0,0.0,0.0,0.0,0.0,0.0,0.0,0.0,0.0,0.9633,1.2181,1.312,1.332,1.2703,1.185,1.0835,0.9633,0.0,0.0,0.0,0.0,0.0,0.0,0.0,0.0,0.0,0.0,0.0,0.0,0.0,0.0,0.0,0.0,0.0,0.0,0.0,0.0,0.0,0.0,0.0,0.0,0.0,0.0,0.0,0.0,0.0,0.0,0.0,0.0,0.0,0.0,0.0,0.0,0.0,0.0,0.0,0.0,0.0,0.0,0.0,0.0,0.0,0.0,0.0,0.0,0.0,0.0,0.0,0.0,0.0,0.0,0.0,0.0,0.0,0.0,0.0,0.0,0.0,0.0,0.0,0.0,0.0,0.0,0.0,0.0,0.0,0.0,0.0,0.0,0.0,0.0,0.0,0.0,0.0,0.0,0.0,0.0,0.0,0.0,0.0,0.0,0.0,0.0,0.0,0.0,0.0,0.0,0.0,0.0,0.0,0.0,0.0,0.0,0.0,0.0,0.0,0.0,0.0,0.0,0.0,0.9285,1.1082,1.2623,1.3427,1.3641,1.3092,1.2184,1.1102,0.9796,0.8163,0.0,0.0,0.0,0.0,0.0,0.0,0.0,0.0,0.0,0.0,0.0,0.0,0.0,0.0,0.0,0.0,0.0,0.0,0.0,0.0,0.0,0.0,0.0,0.0,0.0,0.0,0.0,0.0,0.0,0.0,0.0,0.0,0.0,0.0,0.0,0.0,0.0,0.0,0.0,0.0,0.0,0.0,0.0,0.0,0.0,0.0,0.0,0.0,0.0,0.0,0.0,0.0,0.0,0.0,0.0,0.0,0.0,0.0,0.0,0.0,0.0,0.0,0.0,0.0,0.0,0.0,0.0,0.0,0.0,0.0,0.0,0.0,0.0,0.0,0.0,0.0,0.0,0.0,0.0,0.0,0.0,0.0,0.0,0.0,0.0,0.0,0.0,0.0,0.0,0.0,0.0,0.0,0.0,0.0,0.0,0.0,0.0,0.0,0.0,0.0,0.0,0.0,1.0929,1.2234,1.2824,1.3641,1.3828,1.316,1.2278,1.1203,0.9796,0.8241,0.0,0.0,0.0,0.0,0.0,0.0,0.0,0.0,0.0,0.0,0.0,0.0,0.0,0.0,0.0,0.0,0.0,0.0,0.0,0.0,0.0,0.0,0.0,0.0,0.0,0.0,0.0,0.0,0.0,0.0,0.0,0.0,0.0,0.0,0.0,0.0,0.0,0.0,0.0,0.0,0.0,0.0,0.0,0.0,0.0,0.0,0.0,0.0,0.0,0.0,0.0,0.0,0.0,0.0,0.0,0.0,0.0,0.0,0.0,0.0,0.0,0.0,0.0,0.0,0.0,0.0,0.0,0.0,0.0,0.0,0.0,0.0,0.0,0.0,0.0,0.0,0.0,0.0,0.0,0.0,0.0,0.0,0.0,0.0,0.0,0.0,0.0,0.0,0.0,0.0,0.0,0.0,0.0,0.0,0.0,0.0,0.0,0.0,0.0,0.0,0.0,0.0,1.1356,1.2505,1.312,1.3721,1.3734,1.2891,1.1971,1.0955,0.9766,0.8029,0.0,0.0,0.0,0.0,0.0,0.0,0.0,0.0,0.0,0.0,0.0,0.0,0.0,0.0,0.0,0.0,0.0,0.0,0.0,0.0,0.0,0.0,0.0,0.0,0.0,0.0,0.0,0.0,0.0,0.0,0.0,0.0,0.0,0.0,0.0,0.0,0.0,0.0,0.0,0.0,0.0,0.0,0.0,0.0,0.0,0.0,0.0,0.0,0.0,0.0,0.0,0.0,0.0,0.0,0.0,0.0,0.0,0.0,0.0,0.0,0.0,0.0,0.0,0.0,0.0,0.0,0.0,0.0,0.0,0.0,0.0,0.0,0.0,0.0,0.0,0.0,0.0,0.0,0.0,0.0,0.0,0.0,0.0,0.0,0.0,0.0,0.0,0.0,0.0,0.0,0.0,0.0,0.0,0.0,0.0,0.0,0.0,0.0,0.0,0.0,0.0,0.0,1.1557,1.2746,1.316,1.3734,1.3762,1.2864,1.1931,1.0816,0.9471,0.0,0.0,0.0,0.0,0.0,0.0,0.0,0.0,0.0,0.0,0.0,0.0,0.0,0.0,0.0,0.0,0.0,0.0,0.0,0.0,0.0,0.0,0.0,0.0,0.0,0.0,0.0,0.0,0.0,0.0,0.0,0.0,0.0,0.0,0.0,0.0,0.0,0.0,0.0,0.0,0.0,0.0,0.0,0.0,0.0,0.0,0.0,0.0,0.0,0.0,0.0,0.0,0.0,0.0,0.0,0.0,0.0,0.0,0.0,0.0,0.0,0.0,0.0,0.0,0.0,0.0,0.0,0.0,0.0,0.0,0.0,0.0,0.0,0.0,0.0,0.0,0.0,0.0,0.0,0.0,0.0,0.0,0.0,0.0,0.0,0.0,0.0,0.0,0.0,0.0,0.0,0.0,0.0,0.0,0.0,0.0,0.0,0.0,0.0,0.0,0.0,0.0,1.01,1.1832,1.3012,1.3186,1.3734,1.3762,1.2864,1.185,1.0669,0.9297,0.0,0.0,0.0,0.0,0.0,0.0,0.0,0.0,0.0,0.0,0.0,0.0,0.0,0.0,0.0,0.0,0.0,0.0,0.0,0.0,0.0,0.0,0.0,0.0,0.0,0.0,0.0,0.0,0.0,0.0,0.0,0.0,0.0,0.0,0.0,0.0,0.0,0.0,0.0,0.0,0.0,0.0,0.0,0.0,0.0,0.0,0.0,0.0,0.0,0.0,0.0,0.0,0.0,0.0,0.0,0.0,0.0,0.0,0.0,0.0,0.0,0.0,0.0,0.0,0.0,0.0,0.0,0.0,0.0,0.0,0.0,0.0,0.0,0.0,0.0,0.0,0.0,0.0,0.0,0.0,0.0,0.0,0.0,0.0,0.0,0.0,0.0,0.0,0.0,0.0,0.0,0.0,0.0,0.0,0.0,0.0,0.0,0.0,0.0,0.0,0.0,0.0,1.0399,1.2104,1.3213,1.3213,1.3734,1.3762,1.2864,1.1712,1.0501,0.0,0.0,0.0,0.0,0.0,0.0,0.0,0.0,0.0,0.0,0.0,0.0,0.0,0.0,0.0,0.0,0.0,0.0,0.0,0.0,0.0,0.0,0.0,0.0,0.0,0.0,0.0,0.0,0.0,0.0,0.0,0.0,0.0,0.0,0.0,0.0,0.0,0.0,0.0,0.0,0.0,0.0,0.0,0.0,0.0,0.0,0.0,0.0,0.0,0.0,0.0,0.0,0.0,0.0,0.0,0.0,0.0,0.0,0.0,0.0,0.0,0.0,0.0,0.0,0.0,0.0,0.0,0.0,0.0,0.0,0.0,0.0,0.0,0.0,0.0,0.0,0.0,0.0,0.0,0.0,0.0,0.0,0.0,0.0,0.0,0.0,0.0,0.0,0.0,0.0,0.0,0.0,0.0,0.0,0.0,0.0,0.0,0.0,0.0,0.0,0.0,0.0,0.0,1.0399,1.2104,1.3213,1.3213,1.3734,1.3762,1.2864,1.2087,1.0929,0.9311,0.0,0.0,0.0,0.0,0.0,0.0,0.0,0.0,0.0,0.0,0.0,0.0,0.0,0.0,0.0,0.0,0.0,0.0,0.0,0.0,0.0,0.0,0.0,0.0,0.0,0.0,0.0,0.0,0.0,0.0,0.0,0.0,0.0,0.0,0.0,0.0,0.0,0.0,0.0,0.0,0.0,0.0,0.0,0.0,0.0,0.0,0.0,0.0,0.0,0.0,0.0,0.0,0.0,0.0,0.0,0.0,0.0,0.0,0.0,0.0,0.0,0.0,0.0,0.0,0.0,0.0,0.0,0.0,0.0,0.0,0.0,0.0,0.0,0.0,0.0,0.0,0.0,0.0,0.0,0.0,0.0,0.0,0.0,0.0,0.0,0.0,0.0,0.0,0.0,0.0,0.0,0.0,0.0,0.0,0.0,0.0,0.0,0.0,0.0,0.0,0.0,0.0,1.0385,1.2104,1.3213,1.3213,1.3734,1.3774,1.3038,1.2315,1.1209,0.9657,0.0,0.0,0.0,0.0,0.0,0.0,0.0,0.0,0.0,0.0,0.0,0.0,0.0,0.0,0.0,0.0,0.0,0.0,0.0,0.0,0.0,0.0,0.0,0.0,0.0,0.0,0.0,0.0,0.0,0.0,0.0,0.0,0.0,0.0,0.0,0.0,0.0,0.0,0.0,0.0,0.0,0.0,0.0,0.0,0.0,0.0,0.0,0.0,0.0,0.0,0.0,0.0,0.0,0.0,0.0,0.0,0.0,0.0,0.0,0.0,0.0,0.0,0.0,0.0,0.0,0.0,0.0,0.0,0.0,0.0,0.0,0.0,0.0,0.0,0.0,0.0,0.0,0.0,0.0,0.0,0.0,0.0,0.0,0.0,0.0,0.0,0.0,0.0,0.0,0.0,0.0,0.0,0.0,0.0,0.0,0.0,0.0,0.0,0.0,0.0,0.0,0.0,1.0372,1.2104,1.3213,1.3213,1.3734,1.3854,1.3267,1.2412,1.1396,1.0194,0.0,0.0,0.0,0.0,0.0,0.0,0.0,0.0,0.0,0.0,0.0,0.0,0.0,0.0,0.0,0.0,0.0,0.0,0.0,0.0,0.0,0.0,0.0,0.0,0.0,0.0,0.0,0.0,0.0,0.0,0.0,0.0,0.0,0.0,0.0,0.0,0.0,0.0,0.0,0.0,0.0,0.0,0.0,0.0,0.0,0.0,0.0,0.0,0.0,0.0,0.0,0.0,0.0,0.0,0.0,0.0,0.0,0.0,0.0,0.0,0.8978,0.8308,0.0,0.0,0.0,0.0,0.0,0.0,0.0,0.0,0.0,0.0,0.0,0.0,0.0,0.0,0.0,0.0,0.0,0.0,0.0,0.0,0.0,0.0,0.0,0.0,0.0,0.0,0.0,0.0,0.0,0.0,0.0,0.0,0.0,0.0,0.0,0.0,0.0,0.0,0.0,0.0,1.0399,1.2104,1.3213,1.3213,1.3734,1.3854,1.3267,1.2599,1.161,1.0207,0.8844,0.0,0.0,0.0,0.0,0.0,0.0,0.0,0.0,0.0,0.0,0.0,0.0,0.0,0.0,0.0,0.0,0.0,0.0,0.0,0.0,0.0,0.0,0.0,0.0,0.0,0.0,0.0,0.0,0.0,0.0,0.0,0.0,0.0,0.0,0.0,0.0,0.0,0.0,0.0,0.0,0.0,0.0,0.0,0.0,0.0,0.0,0.0,0.0,0.0,0.0,0.0,0.0,0.0,0.0,0.0,0.0,0.0,0.0,0.0,1.0608,0.9766,0.0,0.0,0.0,0.0,0.0,0.0,0.0,0.0,0.0,0.0,0.0,0.0,0.0,0.0,0.0,0.0,0.0,0.0,0.0,0.0,0.0,0.0,0.0,0.0,0.0,0.0,0.0,0.0,0.0,0.0,0.0,0.0,0.0,0.0,0.0,0.0,0.0,0.0,0.0,0.0,1.0399,1.2104,1.3213,1.3213,1.3734,1.3854,1.3267,1.2786,1.1993,1.0621,0.9432,0.0,0.0,0.0,0.0,0.0,0.0,0.0,0.0,0.0,0.0,0.0,0.0,0.0,0.0,0.0,0.0,0.0,0.0,0.0,0.0,0.0,0.0,0.0,0.0,0.0,0.0,0.0,0.0,0.0,0.0,0.0,0.0,0.0,0.0,0.0,0.0,0.0,0.0,0.0,0.0,0.0,0.0,0.0,0.0,0.0,0.0,0.0,0.0,0.0,0.0,0.0,0.0,0.0,1.2705,1.2973,1.3253,1.3373,1.3614,1.3919,1.2747,1.1931,1.1356,1.1042,0.0,0.0,0.0,0.0,0.0,0.0,0.0,0.0,0.0,0.0,0.0,0.0,0.0,0.0,0.0,0.0,0.0,0.0,0.0,0.0,0.0,0.0,1.1223,1.0961,1.1122,1.0935,0.9474,0.0,0.0,0.0,0.0,0.0,0.0,0.0,0.0,0.0,0.0,0.0,1.0559,1.2171,1.3227,1.328,1.3761,1.3854,1.3267,1.2958,1.2288,1.1062,0.995,0.8978,0.0,0.0,0.0,0.0,0.0,0.0,0.0,0.0,0.0,0.0,0.0,0.0,0.0,0.0,0.0,0.0,0.0,0.0,0.0,0.0,0.0,0.0,0.0,0.0,0.0,0.0,0.0,0.0,0.0,0.0,0.0,0.0,0.8174,0.8214,0.0,0.0,0.0,0.0,0.0,0.0,0.0,0.0,0.0,0.0,0.0,0.0,0.0,1.2371,1.3187,1.3614,1.4055,1.4606,1.4856,1.5003,1.507,1.5578,1.5712,1.5505,1.5605,0.0,1.2879,1.2305,0.0,0.0,0.0,0.0,0.0,0.0,0.0,0.0,0.0,0.0,0.0,0.0,0.0,0.0,0.0,0.0,0.0,0.0,0.0,0.0,0.0,0.0,1.2476,1.2144,1.2342,1.2489,1.2261,1.143,1.0461,0.9619,0.9151,0.8645,0.0,0.0,0.0,0.0,0.0,0.0,1.1096,1.2425,1.3307,1.352,1.3895,1.3854,1.3267,1.2958,1.2288,1.1062,1.0367,0.9577,0.8724,0.7812,0.0,0.0,0.0,0.0,0.0,0.0,0.0,0.0,0.0,0.0,0.0,0.0,0.0,0.0,0.0,0.0,0.0,0.0,0.0,0.0,0.0,0.0,0.0,0.0,0.0,0.0,0.0,0.0,0.0,0.8415,0.9139,0.9139,0.9218,0.9178,0.0,0.0,0.0,0.0,0.0,0.0,0.0,0.0,0.0,1.2705,1.3427,1.4148,1.4825,1.5324,1.5778,1.6241,1.6375,1.6553,1.685,1.7154,1.7288,1.7315,1.7101,1.65,1.5578,1.4309,1.3373,1.2652,0.0,0.0,0.0,0.0,1.1343,1.1672,1.1944,1.2051,1.1944,1.1356,0.0,0.0,0.0,0.0,0.0,0.0,0.0,1.0902,1.1957,1.2866,1.3507,1.3333,1.34,1.3494,1.328,1.2852,1.2188,1.1329,1.0915,1.0327,0.9125,0.8176,0.0,0.0,0.0,1.011,1.1242,1.2574,1.3467,1.3586,1.3908,1.3854,1.3267,1.308,1.261,1.1591,1.1089,1.043,0.9579,0.8697,0.7923,0.0,0.0,0.0,0.0,0.0,0.0,0.0,0.0,0.0,0.0,0.0,0.0,0.0,0.0,0.0,0.0,0.0,0.0,0.0,0.0,0.0,0.0,0.0,0.0,0.0,0.0,0.0,0.0,0.9486,1.0127,1.0127,1.0358,1.0314,0.0,0.0,0.0,0.0,0.0,0.0,1.2462,1.3172,1.3923,1.4629,1.5263,1.5805,1.6344,1.6834,1.7194,1.7541,1.7541,1.7729,1.8102,1.8182,1.8357,1.8464,1.809,1.7889,1.7689,1.604,1.5035,1.4456,1.3668,1.336,1.3347,1.3066,1.3173,1.3494,1.3694,1.3774,1.3667,1.3066,1.2572,1.2114,1.1377,0.0,0.0,0.0,0.0,1.2175,1.3186,1.3868,1.4309,1.4309,1.4309,1.4255,1.4028,1.3933,1.3626,1.2625,1.2275,1.1712,1.0354,0.9487,0.0,0.9325,0.998,1.0736,1.165,1.2827,1.3626,1.3706,1.3948,1.3854,1.3267,1.3213,1.2799,1.181,1.1543,1.1002,1.0154,0.9419,0.8644,0.7852,0.0,0.0,0.0,0.0,0.0,0.0,0.0,0.0,0.0,0.0,0.0,0.0,0.0,0.0,0.0,0.0,0.0,0.0,0.0,0.0,0.0,0.0,0.0,0.0,0.0,0.0,0.0,0.0,0.0,1.1309,1.2114,0.0,0.0,0.0,0.0,1.2171,1.328,1.3961,1.3975,1.5057,1.5818,1.6201,1.6777,1.7328,1.7876,1.7916,1.8075,1.8424,1.8424,1.8437,1.8477,1.8758,1.8731,1.8504,1.8744,1.8704,1.833,1.682,1.6019,1.5685,1.5129,1.4901,1.4901,1.4874,1.5062,1.5271,1.5284,1.5284,1.519,1.4603,1.3841,1.308,1.2784,1.2462,0.0,0.0,1.308,1.3573,1.3961,1.4526,1.4968,1.4968,1.4968,1.4955,1.4941,1.4941,1.4512,1.3052,1.2757,1.2449,1.149,0.0,1.0586,1.0835,1.1156,1.1677,1.261,1.324,1.3706,1.4041,1.4082,1.3854,1.3267,1.3213,1.2705,1.1495,1.1402,1.1002,1.0154,0.9806,0.9352,0.8751,0.7866,0.0,0.0,0.0,0.0,0.0,0.0,0.0,0.0,0.0,0.0,0.0,0.0,0.0,0.0,0.0,0.0,0.0,0.0,0.0,0.0,0.0,0.0,0.0,0.0,0.0,0.0,0.0,0.0,1.3066,1.3414,0.0,1.3574,1.3667,1.3814,1.4001,1.4981,1.5705,1.608,1.6633,1.7181,1.7689,1.7903,1.8116,1.833,1.833,1.8477,1.8771,1.8771,1.8865,1.9052,1.9158,1.9158,1.9052,1.8958,1.8865,1.8718,1.7996,1.7408,1.6901,1.6313,1.6086,1.6059,1.5919,1.5992,1.6246,1.6246,1.6246,1.6179,1.5778,1.5177,1.4563,1.4311,1.3961,1.3748,1.3854,1.4041,1.4322,1.4803,1.5084,1.5284,1.5471,1.5378,1.519,1.5048,1.4816,1.4469,1.3789,1.3761,1.3614,1.2732,1.2275,1.1966,1.185,1.2091,1.2502,1.2973,1.3561,1.3975,1.4082,1.4082,1.3854,1.3267,1.3213,1.2786,1.177,1.153,1.1116,1.0466,1.0114,0.9593,0.8818,0.8335,0.7678,0.0,0.0,0.0,0.0,0.0,0.0,0.0,0.0,0.0,0.0,0.0,0.0,0.0,0.0,0.0,0.0,0.0,0.0,0.0,0.0,0.0,0.0,0.0,0.0,0.0,1.2449,1.3641,1.4295,1.4736,1.4977,1.4918,1.5137,1.5297,1.5437,1.6268,1.6898,1.7192,1.7675,1.8076,1.8477,1.8584,1.8691,1.8784,1.8784,1.8878,1.9078,1.9078,1.9172,1.943,1.943,1.943,1.9417,1.9158,1.9078,1.9052,1.8865,1.849,1.7983,1.7382,1.7154,1.7128,1.682,1.6834,1.6981,1.6887,1.6794,1.6673,1.6486,1.6152,1.5805,1.5605,1.5351,1.511,1.511,1.5044,1.5057,1.5444,1.5538,1.5591,1.5778,1.5685,1.5458,1.5177,1.4883,1.4589,1.4295,1.4309,1.4162,1.344,1.3186,1.2946,1.2652,1.2866,1.312,1.3333,1.3788,1.4082,1.4082,1.4082,1.3854,1.3267,1.3213,1.2786,1.1784,1.1436,1.1062,1.0613,1.0274,0.9817,0.9259,0.8577,0.7776,0.686,0.0,0.0,0.0,0.0,0.0,0.0,0.0,0.0,0.0,0.0,0.0,0.0,0.0,0.0,0.0,0.0,0.0,0.0,0.0,0.0,0.0,0.0,0.0,1.2265,1.3614,1.4669,1.5035,1.6032,1.6513,1.5917,1.642,1.6633,1.6353,1.7114,1.7475,1.7246,1.8009,1.8477,1.849,1.8771,1.9052,1.9403,1.9359,1.943,1.943,1.943,1.943,1.943,1.943,1.943,1.943,1.943,1.943,1.943,1.943,1.9199,1.8878,1.8249,1.8009,1.7969,1.7716,1.7609,1.7555,1.7313,1.6981,1.6727,1.6727,1.6727,1.6727,1.6714,1.6513,1.6335,1.6308,1.6046,1.5784,1.5784,1.5784,1.5784,1.5784,1.5784,1.5752,1.5458,1.5164,1.4914,1.4576,1.4282,1.4001,1.3666,1.3613,1.352,1.328,1.344,0.0,1.3613,1.3908,1.4082,1.4082,1.4082,1.3854,1.3267,1.3213,1.2705,1.1469,1.1142,1.0881,1.0586,1.0274,1.0083,1.0083,0.8671,0.7486,0.6633,0.0,0.0,0.0,0.0,0.0,0.0,0.0,0.0,0.0,0.0,0.0,0.0,0.0,0.0,0.0,0.0,0.0,0.0,0.0,0.0,0.0,1.2265,1.3054,1.3214,1.4362,1.5498,1.6482,1.7021,1.7448,1.7729,1.7716,1.7596,1.7569,1.7729,1.7889,1.7809,1.8036,1.8263,1.8477,1.8571,1.8758,1.9038,1.9265,1.943,1.943,1.943,1.943,1.943,1.943,1.943,1.943,1.943,1.943,1.943,1.943,1.9377,1.9212,1.8824,1.8557,1.8357,1.8277,1.8103,1.7876,1.7569,1.7408,1.7341,1.7341,1.7341,1.7261,1.6834,1.6647,1.65,1.6072,1.5885,1.5784,1.5784,1.5784,1.5784,1.5784,1.5784,1.5752,1.5458,1.5164,1.4914,1.4576,1.4282,1.4055,1.3975,1.3961,1.3935,1.3854,1.3921,1.3961,1.3961,1.4041,1.4082,1.4082,1.4082,1.3854,1.3267,1.3213,1.2705,1.1469,1.0955,1.0573,1.0247,1.0167,1.0083,1.0083,0.9071,0.8123,0.0,0.0,0.0,0.0,0.0,0.0,0.0,0.0,0.0,0.0,0.0,0.0,0.0,0.0,0.0,0.0,0.0,0.0,0.0,0.0,0.0,0.0,1.3507,1.4416,1.503,1.5698,1.6482,1.7286,1.7809,1.8237,1.8464,1.833,1.8237,1.8237,1.8237,1.8237,1.8237,1.8237,1.837,1.8664,1.8557,1.8691,1.9105,1.9279,1.943,1.943,1.943,1.943,1.943,1.943,1.943,1.943,1.943,1.943,1.943,1.943,1.943,1.939,0.0,0.0,0.0,0.0,1.8303,1.7969,1.7836,1.7689,1.7582,1.7582,1.7582,1.7488,1.7034,1.6807,1.658,1.5992,1.5738,1.5645,1.5645,1.5645,1.5671,1.5758,1.5784,1.5752,1.5458,1.5164,1.4955,1.4736,1.4469,0.0,1.4269,1.4162,1.4082,1.4082,1.4082,1.4082,1.4082,1.4082,1.4082,1.4082,1.4082,1.3895,1.3387,1.328,0.0,0.0,0.0,1.064,1.0314,1.0541,0.0,0.0,0.0,0.0,0.0,0.0,0.0,0.0,0.7383,0.7692,0.0,0.0,0.0,0.0,0.0,0.0,0.0,0.0,0.0,0.0,0.0,0.0,0.0,0.0,0.0,0.0,1.4589,1.5678,1.7058,1.734,1.7501,1.7702,1.8437,1.8838,1.8611,1.8557,1.8544,1.8544,1.8544,1.8531,1.849,1.849,0.0,0.0,0.0,1.8811,1.9359,1.9439,1.9466,1.9466,1.9466,1.9452,1.947,1.947,1.9457,1.943,1.943,1.943,1.943,1.943,1.943,1.9345,1.9078,1.8971,1.8945,1.8651,1.837,1.8075,1.8009,0.0,0.0,1.7595,1.7582,1.7528,1.7286,1.6991,1.6593,1.6032,1.5671,1.5444,1.5444,1.5444,1.5511,1.5718,1.5784,1.5704,1.5498,1.5217,1.5062,1.5062,1.4776,1.4576,1.4576,1.4335,1.4122,1.4095,1.4082,1.4082,1.4082,1.4122,1.4135,1.4135,1.4135,0.0,1.368,1.3387,1.2999,1.2385,1.1557,1.0982,1.0747,1.1169,1.1196,1.0747,1.0421,1.014,0.9873,0.9617,0.979,1.0341,0.9392,0.9272,0.0,0.0,0.0,0.0,0.0,0.0,0.0,0.0,0.0,0.0,0.0,0.0,0.0,0.0,0.0,1.4856,1.5792,1.6633,1.7395,1.8116,1.8597,1.8664,1.8824,1.8998,1.9185,1.8985,1.8838,1.8838,1.8838,1.8731,1.8504,1.849,1.8517,1.8571,1.8744,1.9011,1.9417,1.9826,2.0067,2.0067,2.0067,0.0,1.972,1.972,1.9586,1.943,1.943,1.943,1.943,1.943,1.943,1.9417,1.9305,1.9279,1.9239,1.8945,1.8798,1.8691,1.8155,1.7955,1.7916,1.7662,1.7582,1.7528,1.7286,1.6991,0.0,1.6286,1.5979,1.5704,1.5704,1.5704,1.5765,1.5771,1.5784,1.5771,1.5704,1.5524,1.5311,1.5311,1.5084,1.4883,1.4883,1.4629,1.4362,1.4122,1.4082,1.4082,1.4082,1.4295,1.4442,1.4442,1.4442,1.4322,1.4028,1.3734,1.3307,1.273,1.2087,1.1712,1.1658,1.149,1.149,1.1645,1.1329,1.1109,1.1056,1.1276,1.1543,1.185,1.0488,1.018,0.0,0.0,0.0,0.0,0.0,0.0,0.0,0.0,0.0,0.0,0.0,1.2545,1.332,0.0,1.4803,1.5698,1.6446,1.7181,1.7929,1.8544,1.8918,1.8918,1.9052,1.9199,1.9359,1.9092,1.8985,1.9132,1.9011,1.8918,1.8931,1.8784,1.8838,1.9132,1.9145,1.9359,1.98,2.0094,2.0167,2.0167,2.0167,2.016,2.0013,1.9867,1.972,1.9573,1.9484,1.943,1.943,1.943,1.943,1.943,1.943,1.943,1.9403,1.9199,1.9052,1.8878,1.8528,1.8235,1.7969,1.7862,1.7716,1.7528,1.7286,1.7099,1.6834,1.6393,1.6166,1.6046,1.6046,1.5939,1.5824,1.6019,1.5939,1.5784,1.5784,1.5712,1.5618,1.5618,1.5498,1.5351,1.5204,1.5057,1.4803,1.4376,1.4175,1.4082,1.4082,1.4335,1.4522,1.4522,1.4656,1.4616,1.4335,1.3853,1.3387,1.2824,1.265,1.2478,1.2355,1.2318,1.2318,1.2342,1.2194,1.2091,1.2091,1.2275,1.2502,1.2732,1.2011,1.1824,0.0,0.0,0.0,0.0,0.0,0.0,0.0,1.1303,1.1677,1.2265,1.324,1.4053,1.4442,1.5097,1.5752,1.6402,1.6938,1.7581,1.837,1.8798,1.8985,1.8931,1.9185,1.943,1.943,1.9145,1.9105,1.9403,1.9145,1.9118,1.9417,1.9199,1.9305,1.9786,1.9679,1.984,2.0307,2.0374,2.034,2.034,2.034,2.0374,2.0307,2.008,1.9907,1.9786,1.9492,1.943,1.943,1.943,1.943,1.943,1.943,1.943,1.943,1.943,1.9212,1.8998,1.8945,1.8571,1.8075,1.8009,1.7836,1.7542,1.7353,1.7246,1.7099,1.663,1.6455,1.6353,1.6353,1.6179,1.6046,1.6233,1.6086,1.5899,1.5798,1.5784,1.5784,1.5784,1.5784,1.5752,1.5524,1.5431,1.519,1.4603,1.4322,1.4148,1.4095,1.4389,1.4603,1.4603,1.487,1.4897,1.4549,1.4039,1.3587,1.3079,1.3186,1.3186,1.2971,1.3106,1.312,1.2958,1.2958,1.2985,1.3052,1.3052,1.3172,1.3387,1.3387,1.332,0.9377,0.987,1.0902,1.1551,1.2305,1.2919,0.0,1.3107,1.3467,1.4095,1.475,1.5364,1.5925,1.6112,1.6415,1.7005,1.738,1.7756,1.8397,1.8971,1.9225,1.8958,1.9185,1.943,1.943,1.939,1.939,1.9417,1.939,1.9332,1.943,1.9586,1.9733,1.98,2.0281,2.0561,2.0628,2.0882,2.1015,2.1015,2.1015,2.0882,2.0628,2.0588,2.0294,1.9786,1.9492,1.943,1.943,1.943,1.943,1.943,1.943,1.943,1.943,1.943,1.9403,1.9279,1.9011,1.8704,1.8397,1.8075,1.7836,1.7569,1.7542,1.7407,1.7192,1.7125,1.686,1.666,1.666,1.6633,1.6553,1.6326,1.6246,1.6152,1.5838,1.5784,1.5784,1.5784,1.5784,1.5771,1.5744,1.5565,1.519,1.4603,1.4496,1.4376,1.4122,1.4576,1.4955,1.4955,1.5177,1.5124,1.4563,1.4456,1.4282,1.3961,1.368,1.3533,1.3507,1.3333,1.332,1.3493,1.3507,1.3667,1.3935,1.3935,1.3961,1.3988,1.3988,1.3707,1.0394,1.0995,1.1984,1.2919,1.3828,1.4522,1.4696,1.4785,1.4985,1.5458,1.6005,1.6496,1.6513,1.666,1.6965,1.738,1.7662,1.8063,1.8664,1.8958,1.8998,1.8704,1.8624,1.8664,1.8838,1.9011,1.9105,1.9105,1.9265,1.943,1.943,1.9639,1.988,2.004,2.0454,2.0762,2.0922,2.1042,2.1109,2.1109,2.1109,2.1042,2.0922,2.0748,2.0361,1.9786,1.9666,1.9519,1.943,1.943,1.943,1.943,1.943,1.943,1.943,1.943,1.943,1.9403,1.9225,1.8985,1.8691,1.8397,1.8103,1.7822,1.7635,1.7502,1.7447,1.7447,1.7315,1.7221,1.7221,1.7088,1.6978,1.6857,1.6576,1.6246,1.6112,1.5952,1.5784,1.5784,1.5784,1.5784,1.5784,1.5725,1.5511,1.5097,1.4736,1.4482,1.4349,1.471,1.5142,1.5431,1.5431,1.5231,1.4816,1.4761,1.4661,1.4474,1.4337,1.4255,1.4255,1.4022,1.3898,1.3895,1.3908,1.3961,1.4082,1.4082,1.4082,1.4082,1.4082,1.3961,1.1404,1.2064,1.2959,1.4148,1.511,1.5818,1.6019,1.6072,1.6139,1.6353,1.6777,1.7018,1.674,1.6887,1.7179,1.7422,1.7796,1.8169,1.8731,1.8945,1.8905,1.8531,1.8169,1.8103,1.8223,1.8584,1.8838,1.8918,1.9199,1.943,1.943,1.972,2.0013,2.0167,2.0601,2.0895,2.1109,2.1109,2.1109,2.1109,2.1109,2.1109,2.1096,2.0815,2.0441,2.004,1.9867,1.9679,1.9479,1.9457,1.943,1.943,1.943,1.943,1.943,1.943,1.943,1.943,1.943,1.9172,1.8891,1.8677,1.8357,1.7955,1.7782,1.7649,1.7582,1.7582,1.7582,1.7582,1.7582,1.7474,1.73,1.7322,1.7022,1.672,1.6654,1.6484,1.6306,1.6177,1.6069,1.6021,1.5927,1.5832,1.5765,1.5644,1.5219,1.4828,1.4536,1.4776,1.519,1.5718,1.5645,1.5404,1.511,1.5195,1.5241,1.529,1.5276,1.5276,1.5276,1.5021,1.4653,1.4202,1.4282,1.4282,1.4202,1.4282,1.4322,1.4322,1.4322,1.4322,1.2342,1.3133,1.384,1.507,1.6019,1.6673,1.6673,1.6673,1.6687,1.6687,1.67,1.6714,1.67,1.6714,1.682,1.7166,1.7662,1.8102,1.8464,1.8998,1.9145,1.8557,1.8169,1.7876,1.7635,1.8156,1.8624,1.8905,1.9199,1.943,1.943,1.9907,2.0167,2.0167,2.0802,2.1096,2.1109,2.1109,2.1109,2.1109,2.1109,2.1109,2.1096,2.0815,2.0668,2.0615,2.0054,1.98,1.976,1.9479,1.943,1.943,1.943,1.943,1.943,1.943,1.943,1.943,1.943,1.9172,1.8918,1.8918,1.8462,1.7995,1.7982,1.7822,1.7582,1.7582,1.7582,1.7582,1.7582,1.7569,1.7607,1.7596,1.7756,1.7829,1.742,1.763,1.7673,1.7084,1.673,1.6494,1.6224,1.5974,1.5879,1.6163,1.6123,1.5694,1.4633,1.4776,1.519,1.5718,1.5771,1.5698,1.5404,1.5778,1.6261,1.6712,1.6755,1.6755,1.674,1.6272,1.5571,1.4509,1.479,1.479,1.4509,1.4803,1.4981,1.4981,1.4981,1.4981,1.2652,1.3627,1.4509,1.5685,1.6549,1.7099,1.7248,1.7288,1.7235,1.7099,1.6687,1.642,1.642,1.6259,1.6353,1.7085,1.7662,1.8169,1.8704,1.8945,1.8931,1.8544,1.805,1.7702,1.7595,1.7769,1.809,1.8597,1.8905,1.9239,1.9639,2.0027,2.0321,2.0521,2.0909,2.1109,2.1109,2.1109,2.1109,2.1109,2.1109,2.1109,2.1109,2.1002,2.0855,2.0655,2.0254,1.9973,1.9773,1.9492,1.943,1.943,1.943,1.943,1.943,1.943,1.943,1.943,1.943,1.9305,1.9185,1.8985,1.8784,1.8502,1.8115,1.7916,1.7849,1.7635,1.7582,1.7582,1.7582,1.7582,1.7713,1.8036,1.846,1.8838,1.9064,1.9236,1.9209,1.869,1.7881,1.7185,1.681,1.6211,1.6035,1.6742,1.6596,1.6213,1.5832,1.5697,1.5743,1.5961,1.5817,1.565,1.5404,1.5989,1.6621,1.7239,1.7414,1.7589,1.7704,1.7108,1.6316,1.5334,1.5209,1.5075,1.4816,1.4955,1.5008,1.5008,1.5008,1.5008,1.3587,1.4563,1.5378,1.6339,1.7005,1.7407,1.7542,1.7554,1.7367,1.6965,1.6335,1.5852,1.5852,1.5645,1.5805,1.6737,1.7515,1.821,1.8704,1.8945,1.8971,1.8677,1.821,1.7862,1.7756,1.7649,1.7836,1.8437,1.8758,1.9185,1.9773,2.0174,2.0481,2.0668,2.0962,2.1109,2.1109,2.1109,2.1109,2.1109,2.1109,2.1109,2.1109,2.1109,2.1002,2.0815,2.0401,2.0134,1.992,1.9533,1.943,1.943,1.943,1.943,1.943,1.943,1.943,1.943,1.943,1.943,1.9332,1.9145,1.9011,1.8851,1.8588,1.8428,1.8319,1.8222,1.819,1.8213,1.8213,1.8213,1.837,1.8982,1.9529,2.0093,2.0618,2.0913,2.083,2.006,1.9129,1.8255,1.7527,1.681,1.6645,1.7522,1.7599,1.7447,1.7154,1.6844,1.6566,1.6435,1.6113,1.586,1.5584,1.6295,1.7204,1.8128,1.8543,1.8941,1.9303,1.8527,1.7488,1.6253,1.6007,1.5659,1.5124,1.5217,1.5271,1.5271,1.5271,1.5271,1.5044,1.5872,1.6509,1.7085,1.7434,1.7582,1.7569,1.7393,1.7005,1.6402,1.5558,1.4928,1.4941,1.4928,1.5223,1.6134,1.7221,1.8116,1.8437,1.8998,1.9265,1.8985,1.8691,1.8397,1.8062,1.7796,1.7862,1.8464,1.8771,1.9185,1.9786,2.0361,2.0681,2.0695,2.0962,2.1109,2.1109,2.1109,2.1109,2.1109,2.1109,2.1109,2.1109,2.1109,2.1109,2.1082,2.0494,2.0167,2.0187,1.9599,1.943,1.943,1.943,1.943,1.943,1.943,1.943,1.943,1.943,1.943,1.943,1.943,1.9172,1.9001,1.9314,1.9237,1.9088,1.9313,1.9415,1.9442,1.9428,1.9428,1.962,2.0431,2.103,2.1543,2.2006,2.2558,2.257,2.131,2.0389,1.946,1.8272,1.7652,1.7606,1.8334,1.9117,1.931,1.8582,1.8137,1.7715,1.7131,1.6737,1.6345,1.59,1.681,1.801,1.9451,2.0031,2.0664,2.1302,2.0466,1.9121,1.7327,1.715,1.6528,1.5464,1.5698,1.5832,1.5784,1.5784,1.5784,1.5712,1.6522,1.7072,1.7434,1.7528,1.7528,1.7367,1.7085,1.6593,1.5792,1.4576,1.3721,1.3893,1.3801,1.4095,1.5404,1.6794,1.7876,1.841,1.8998,1.939,1.9265,1.8998,1.8784,1.8704,1.8182,1.817,1.8771,1.8878,1.9279,2.008,2.0468,2.0775,2.0989,2.1069,2.1109,2.1109,2.1109,2.1109,2.1109,2.1109,2.1109,2.1109,2.1109,2.1109,2.1082,2.0494,2.0167,2.0187,1.9599,1.943,1.943,1.943,1.943,1.943,1.943,1.943,1.943,1.943,1.943,1.943,1.943,1.9319,1.9327,1.9595,2.0129,2.0599,2.059,2.1008,2.1454,2.1181,2.11,2.1269,2.1828,2.2534,2.3217,2.3741,2.4216,2.4317,2.3634,2.1766,1.9802,1.807,1.7963,1.838,1.9085,2.0031,2.0445,2.0,1.9555,1.9018,1.8255,1.7823,1.7432,1.6969,1.7824,1.8872,1.9951,2.0709,2.1356,2.1872,2.1159,2.007,1.8728,1.8118,1.7343,1.6275,1.6183,1.5974,1.5784,1.5784,1.5784,1.6455,1.7045,1.7434,1.7542,1.7488,1.7367,1.7072,1.6526,1.5885,1.5003,1.3654,1.2746,1.3173,1.3013,1.3333,1.495,1.6433,1.7555,1.8023,1.8718,1.9172,1.9172,1.9025,1.8918,1.8918,1.8568,1.8624,1.9078,1.9118,1.9452,2.0127,2.0641,2.0935,2.1109,2.1109,2.1109,2.1109,2.1109,2.1109,2.1109,2.1109,2.1109,2.1109,2.1109,2.1109,2.1082,2.0494,2.0167,2.0187,1.9599,1.943,1.943,1.943,1.943,1.943,1.943,1.943,1.943,1.943,1.943,1.943,1.9533,1.9707,1.9897,2.0629,2.1339,2.201,2.2333,2.2731,2.3014,2.2792,2.2553,2.2534,2.3053,2.3651,2.4214,2.4726,2.514,2.5169,2.4383,2.2618,2.0742,1.9131,1.9129,1.9483,1.9975,2.0769,2.1399,2.162,2.1087,2.0412,1.9587,1.9162,1.873,1.8288,1.8964,1.9786,2.0629,2.1338,2.198,2.2511,2.1935,2.1159,2.0133,1.9301,1.8303,1.7091,1.6716,1.6305,1.5784,1.5784,1.5784,1.7112,1.7447,1.7569,1.7542,1.7393,1.7099,1.662,1.5845,1.4963,1.4041,1.2703,1.1846,1.2449,1.2331,1.2772,1.4606,1.612,1.7219,1.7528,1.829,1.8824,1.8865,1.8865,1.8878,1.8918,1.8998,1.9145,1.9412,1.9551,1.976,2.0267,2.0815,2.1109,2.1109,2.1109,2.1109,2.1109,2.1109,2.1109,2.1109,2.1109,2.1109,2.1109,2.1109,2.1109,2.1082,2.0494,2.0167,2.0187,1.9599,1.943,1.943,1.943,1.943,1.943,1.943,1.943,1.943,1.943,1.9475,1.9533,1.9822,2.0155,2.0716,2.19,2.2752,2.3485,2.4267,2.4474,2.4458,2.435,2.4029,2.3791,2.4251,2.448,2.4794,2.5235,2.5528,2.5412,2.4344,2.3235,2.209,2.0843,2.0688,2.0798,2.0916,2.1463,2.2124,2.3013,2.2467,2.1744,2.0971,2.0491,2.0058,1.9753,2.0133,2.0674,2.1346,2.1917,2.2467,2.3057,2.2706,2.2113,2.1436,2.0512,1.9347,1.7917,1.7372,1.6716,1.5927,1.5879,1.5832,1.7422,1.7542,1.7528,1.734,1.7233,1.6938,1.5858,1.495,0.0,1.2852,1.1436,1.0595,1.1196,1.145,1.2158,1.3948,1.5471,1.67,1.7475,1.7943,1.8235,1.8544,1.8571,1.8664,1.8905,1.9359,1.9666,1.972,2.0174,2.0494,2.0601,2.0922,2.1109,2.1109,2.1109,2.1109,2.1109,2.1109,2.1109,2.1109,2.1109,2.1109,2.1109,2.1109,2.1109,2.1082,2.0494,2.0167,2.0187,1.9599,1.943,1.943,1.943,1.943,1.943,1.943,1.943,1.9417,1.9649,1.9924,2.0155,2.0213,2.0773,2.1601,2.2789,2.4305,2.5612,2.5862,2.6473,2.6904,2.616,2.591,2.5775,2.5478,2.543,2.5528,2.5577,2.5693,2.5557,2.5013,2.4431,2.3643,2.2422,2.2238,2.2142,2.1849,2.2199,2.2685,2.3052,2.2824,2.2459,2.1894,2.1585,2.1221,2.0799,2.1159,2.1606,2.1961,2.2422,2.2794,2.3101,2.2882,2.2467,2.1961,2.1204,2.0212,1.8918,1.8257,1.7434,1.6447,1.6211,1.6021,1.7542,1.7582,1.7515,1.7273,1.6965,1.6442,1.5204,0.0,0.0,1.1864,1.0701,1.002,1.0461,1.0782,1.1503,1.3159,1.4673,1.5893,1.6567,1.7194,1.7689,1.7983,1.8156,1.8424,1.8878,1.9452,1.9867,2.0013,2.0428,2.0681,2.0681,2.0949,2.1109,2.1109,2.1109,2.1109,2.1109,2.1109,2.1109,2.1109,2.1109,2.1109,2.1109,2.1109,2.1109,2.1082,2.0494,2.0167,2.0187,1.9599,1.943,1.943,1.943,1.943,1.943,1.943,1.943,1.9475,1.9938,2.0486,2.1102,2.1729,2.2184,2.2789,2.4206,2.5533,2.6644,2.7015,2.7391,2.763,2.7219,2.6719,2.6328,2.6133,2.5898,2.5693,2.5693,2.5693,2.5635,2.5449,2.5121,2.4611,2.3729,2.3526,2.337,2.3054,2.3037,2.3171,2.3407,2.3149,2.2882,2.2643,2.2511,2.2334,2.2113,2.229,2.2467,2.2599,2.2838,2.3013,2.3101,2.3013,2.2838,2.2599,2.2024,2.1248,2.0268,1.9438,1.838,1.7185,1.6763,1.6305,1.7569,1.7582,1.7502,1.7192,1.6656,1.5858,1.4616,1.336,1.2181,1.1035,1.0114,0.9579,0.9844,1.0167,1.0868,1.2275,1.3695,1.483,1.5538,1.6353,1.7072,1.7487,1.7742,1.8156,1.8771,1.9479,1.9987,2.0153,2.0561,2.0775,2.0775,2.0989,2.1109,2.1109,2.1109,2.1109,2.1109,2.1109,2.1109,2.1109,2.1109,2.1109,2.1109,2.1042,2.1015,2.0989,2.0401,2.0134,2.0094,1.9586,1.943,1.943,1.943,1.943,1.943,1.943,1.943,1.9475,2.0155,2.0988,2.1983,2.3295,2.3815,2.4245,2.5551,2.6609,2.7368,2.7853,2.7888,2.7826,2.7748,2.7168,2.6621,2.6426,2.6055,2.5693,2.5693,2.5693,2.5693,2.5693,2.5547,2.5235,2.4843,2.4676,2.4507,2.4202,2.3916,2.3757,2.3809,2.3496,2.3198,2.3101,2.3101,2.3101,2.3101,2.3101,2.3101,2.3101,2.3101,2.3101,2.3101,2.3101,2.3101,2.3101,2.2706,2.2157,2.148,2.0557,1.9438,1.801,1.7544,1.6904,1.7515,1.7582,1.7448,1.6887,1.6299,1.5451,1.4013,0.0,1.1255,1.0381,0.9499,0.8978,0.9244,0.9566,1.0154,1.1356,1.2572,1.3761,1.4928,1.5565,1.6259,1.7139,0.0,0.0,1.8477,1.9533,2.014,2.0227,2.0748,2.1069,2.1069,2.1096,2.1109,2.1109,2.1109,2.1109,2.1109,2.1109,2.1109,2.1109,2.1109,2.1109,2.1096,2.0842,2.0722,2.0681,2.0094,1.984,1.9813,1.9492,1.943,1.943,1.943,1.943,1.943,1.943,1.943,1.9533,2.0385,2.1445,2.2692,2.4167,2.5203,2.5991,2.6645,2.7476,2.8194,2.8247,2.8262,2.8144,2.7806,2.7669,2.7395,2.6582,2.6055,2.5693,2.5693,2.5693,2.5693,2.5693,2.5693,2.5645,2.5596,2.5557,2.545,2.5022,2.4953,2.4668,2.3887,2.375,2.3574,2.314,2.3101,2.3101,2.3101,2.3101,2.3101,2.3101,2.3101,2.3101,2.3101,2.3101,2.3101,2.3101,2.2882,2.253,2.2006,2.1248,2.0257,1.9055,1.8519,1.787,1.73,1.7501,1.7395,1.6633,1.6005,1.5137,1.348,1.2104,1.0915,1.0033,0.9299,0.8844,0.8938,0.9191,0.974,1.0742,1.1744,1.2812,1.4001,1.483,1.5565,1.6273,1.6767,1.7288,1.7889,1.8851,1.9733,2.0454,2.0882,2.1109,2.1109,2.1109,2.1109,2.1109,2.1109,2.1109,2.1109,2.1109,2.1109,2.1109,2.1109,2.1109,2.1096,2.0815,2.0681,2.0641,2.0054,1.98,1.9773,1.9492,1.943,1.943,1.943,1.943,1.943,1.943,1.943,1.9533,2.0615,2.1998,2.3503,2.4889,2.6318,2.7457,2.753,2.7906,2.8301,2.8301,2.8301,2.8262,2.8086,2.7851,2.7493,2.6602,2.625,2.6055,2.5752,2.5693,2.5693,2.5693,2.5693,2.5693,2.5693,2.5693,2.5635,2.5508,2.5234,2.4988,2.4656,2.4102,2.373,2.3555,2.3257,2.3101,2.3101,2.3101,2.3101,2.3101,2.3101,2.3101,2.3101,2.3101,2.3101,2.3101,2.3013,2.2882,2.2687,2.2113,2.1382,2.0449,1.9951,1.933,1.679,1.7152,1.7128,1.6339,1.5578,1.4589,1.3025,1.1672,1.0514,0.9713,0.9152,0.8804,0.8804,0.8951,0.9351,1.0198,1.1002,1.1891,1.304,1.4015,1.4816,1.5498,1.6086,1.6673,1.7261,1.829,1.9412,2.0588,2.0869,2.1015,2.1109,2.1109,2.1109,2.1109,2.1109,2.1109,2.1109,2.1109,2.1109,2.1109,2.1029,2.0989,2.0962,2.0588,2.0414,2.0388,1.9893,1.9679,1.9653,1.9511,1.943,1.943,1.9475,1.9591,1.9649,1.9764,1.988,2.0097,2.1288,2.2789,2.4283,2.5551,2.7043,2.8247,2.8067,2.8121,2.8301,2.8301,2.8301,2.8301,2.8301,2.7988,2.7571,2.6914,2.666,2.6484,2.6172,2.5966,2.5937,2.5937,2.5771,2.5693,2.5693,2.5693,2.5693,2.5693,2.5469,2.5215,2.5125,2.4531,2.4121,2.3984,2.3691,2.3413,2.334,2.3413,2.3413,2.3296,2.3296,2.3237,2.3101,2.3101,2.3101,2.3101,2.3101,2.3101,2.3101,2.2706,2.2201,2.1525,2.1141,2.0512,1.5965,1.65,1.658,1.5979,1.4963,1.3788,1.2585,1.1182,0.9923,0.9337,0.8991,0.8804,0.8804,0.8804,0.9005,0.9621,1.0224,1.1015,1.2158,1.3054,1.3946,1.4914,1.5484,1.6072,1.666,1.805,1.9412,2.0588,2.0681,2.0802,2.1096,2.1109,2.1109,2.1109,2.1109,2.1109,2.1109,2.1109,2.1109,2.1109,2.0815,2.0681,2.0655,2.008,1.9813,1.9786,1.9506,1.943,1.943,1.943,1.943,1.943,1.9707,1.9982,2.0328,2.0601,2.0888,2.1345,2.258,2.3743,2.4893,2.6082,2.7295,2.8301,2.8301,2.8301,2.8301,2.8301,2.8301,2.8301,2.8301,2.7988,2.7728,2.7708,2.7324,2.7012,2.7012,2.668,2.6387,2.6387,2.6035,2.5693,2.5693,2.5693,2.5693,2.5693,2.5693,2.5566,2.5165,2.5106,2.4883,2.4453,2.4414,2.4238,2.3828,2.416,2.4238,2.3809,2.3789,2.3594,2.312,2.3101,2.3101,2.3101,2.3101,2.3101,2.3101,2.2882,2.2574,2.2094,2.1828,2.1177,1.4616,1.5284,1.5618,1.483,1.4055,1.3173,1.1971,1.0843,0.9953,0.9436,0.9193,0.908,0.908,0.908,0.9233,0.9751,1.0067,1.0742,1.2104,1.304,1.3933,1.4901,1.5832,1.666,1.7248,1.829,1.9239,2.0013,2.0267,2.0414,2.0508,2.0508,2.0695,2.1096,2.1109,2.1109,2.1109,2.1109,2.1109,2.1109,2.0815,2.0681,2.0655,2.0067,1.98,1.9786,1.9492,1.943,1.943,1.943,1.943,1.943,1.9938,2.0601,2.1259,2.1729,2.2394,2.3111,2.3894,2.4837,2.5772,2.6572,2.753,2.8301,2.8301,2.8301,2.8301,2.8301,2.8301,2.8301,2.8301,2.8203,2.8027,2.7787,2.7611,2.7383,2.709,2.6914,2.6738,2.6445,2.6269,2.6094,2.5752,2.5693,2.5693,2.5693,2.5693,2.5635,2.5547,2.5254,2.5067,2.4883,2.4863,2.4687,2.4258,2.4336,2.4238,2.3828,2.3789,2.3594,2.312,2.3101,2.3101,2.3101,2.3101,2.3101,2.3101,2.3057,2.2925,2.2775,2.2687,2.2334,1.308,1.3734,1.4068,1.3414,1.2812,1.2118,1.1122,1.031,0.9675,0.9384,0.9364,0.9432,0.9432,0.9432,0.9525,0.9855,0.9928,1.0421,1.1784,1.2801,1.3975,1.5343,1.6348,1.7101,1.7689,1.8357,1.9052,1.9746,1.996,2.012,2.0167,2.0167,2.0401,2.0762,2.0775,2.0775,2.0775,2.0775,2.0775,2.0775,2.0481,2.0347,2.0334,1.9853,1.9639,1.9626,1.9452,1.943,0.0,1.943,1.943,1.9488,2.0155,2.1045,2.2055,2.2749,2.3631,2.4578,2.5186,2.5845,2.6518,2.7133,2.7799,2.8301,2.8301,2.8301,2.8301,2.8301,2.8301,2.8301,2.8301,2.8301,2.8223,2.7969,2.791,2.7832,2.7559,2.7363,2.7187,2.6914,2.6602,2.6309,2.6035,2.5791,2.5693,2.5693,2.5693,2.5693,2.5693,2.5488,2.5254,2.5125,2.5215,2.5137,2.4707,2.4824,2.4727,2.4297,2.4277,2.4082,2.3588,2.3569,2.3569,2.3569,2.3569,2.3569,2.3569,2.3569,2.3569,2.3569,2.3569,2.3409,0.0,1.1944,1.2171,1.1886,1.1404,1.0808,1.0221,0.9646,0.0,0.9255,0.9562,0.9873,0.9873,0.9847,0.9862,0.9947,0.9853,1.0167,1.1383,1.2677,1.4204,1.6222,1.6962,1.7487,1.7996,1.833,1.8865,1.9706,1.9773,1.988,2.016,2.0113,2.0113,2.0113,2.0113,2.0187,2.0167,2.0167,2.0167,2.0227,1.9933,1.98,1.9786,1.9506,1.943,1.943,1.943,1.943,1.943,1.943,1.943,1.9475,2.0385,2.1502,2.2692,2.3648,2.4834,2.5953,2.6482,2.6808,2.7206,2.7745,2.8121,2.8301,2.8301,2.8301,2.8301,2.8301,2.8301,2.8301,2.8301,2.8301,2.8301,2.8301,2.8301,2.8301,2.8301,2.7988,2.7748,2.7728,2.7082,2.6465,2.6406,2.6074,2.5771,2.5732,2.5752,2.5771,2.5771,2.5752,2.5625,2.5243,2.5508,2.5566,2.5156,2.5508,2.5547,2.5145,2.5106,2.4863,2.4434,2.4414,2.4414,2.4414,2.4414,2.4414,2.4414,2.4414,2.4414,2.4414,2.4414,2.4275,0.9446,0.0,1.1503,1.1028,1.0801,1.0564,0.0,0.9755,0.9644,0.9777,1.0131,1.0413,1.048,1.0285,1.0223,1.0596,1.0518,1.1013,1.2808,1.4848,1.6647,1.7858,1.8135,1.8238,1.8343,1.8651,1.8998,1.9439,1.9466,1.9492,1.9559,1.9573,1.9573,1.9573,1.9573,1.9786,2.0227,2.0167,2.0167,2.0227,1.9933,1.98,1.9786,1.9506,1.943,1.943,1.943,1.943,1.943,1.943,1.943,1.9533,2.0658,2.2055,2.3615,2.4834,2.6318,2.7691,2.7853,2.7906,2.8014,2.8174,2.8247,2.8301,2.8301,2.8301,2.8301,2.8301,2.8301,2.8301,2.8301,2.8301,2.8301,2.8301,2.8301,2.8301,2.8301,2.8223,2.8047,2.7787,2.7552,2.7148,2.6504,2.6562,2.6602,2.6289,2.6504,2.6719,2.6719,2.6426,2.6191,2.6094,2.5879,2.5635,2.5586,2.5635,2.5547,2.5145,2.5106,2.4863,2.4434,2.4414,2.4414,2.4414,2.4414,2.4414,2.4414,2.4414,2.4414,2.4414,2.4414,2.4368,0.9286,0.9845,1.0283,0.9873,0.986,0.9892,0.9631,0.9657,0.986,1.0187,1.0728,1.1124,1.1065,1.0875,1.0801,1.1093,1.1024,1.2073,1.5228,1.7232,1.868,1.957,1.9592,1.9375,1.8934,1.9038,1.9199,1.9417,1.943,1.943,1.943,1.943,1.943,1.943,1.943,1.9519,1.9826,1.984,1.984,1.9826,1.9679,1.9599,1.9599,1.9497,1.943,1.943,1.9533,1.9649,1.9822,1.9938,2.0097,2.0328,2.1574,2.2902,2.4339,2.5588,2.7025,2.8301,2.8301,2.8301,2.8301,2.8301,2.8301,2.8301,2.8301,2.8301,2.8301,2.8301,2.8301,2.8301,2.8301,2.8301,2.8301,2.8301,2.8301,2.8301,2.8301,2.8301,2.8223,2.7988,2.7845,2.7571,2.7051,2.6992,2.6934,2.6699,2.6875,2.7012,2.7012,2.6641,2.6309,2.6113,2.583,2.5615,2.5449,2.5577,2.5625,2.5391,2.5371,2.5273,2.5039,2.4972,2.4972,2.4972,2.4972,2.4972,2.4972,2.4972,2.4972,2.4972,2.4972,2.4972,1.0009,0.9798,0.941,0.9059,0.9192,0.9408,0.9381,0.0,1.018,1.0753,1.1472,1.1933,1.1841,1.1606,1.1503,1.1738,1.1986,1.3579,1.772,1.9169,2.0144,2.1048,2.0885,2.0328,1.9475,1.943,1.943,1.943,1.943,1.943,1.943,1.943,1.943,1.943,1.943,1.943,1.943,1.943,1.943,1.943,1.943,1.943,1.943,1.943,1.943,1.943,1.9764,2.0097,2.0544,2.0831,2.1231,2.1729,2.2805,2.3966,2.5058,2.6191,2.7295,2.8301,2.8301,2.8301,2.8301,2.8301,2.8301,2.8301,2.8301,2.8301,2.8301,2.8301,2.8301,2.8301,2.8301,2.8301,2.8301,2.8301,2.8301,2.8301,2.8301,2.8301,2.8301,2.8301,2.8008,2.7787,2.7728,2.7422,2.7187,2.7129,2.7168,2.7207,2.7207,2.6836,2.6406,2.5927,2.583,2.5684,2.536,2.5625,2.581,2.5888,2.5752,2.5693,2.5693,2.5693,2.5693,2.5693,2.5693,2.5693,2.5693,2.5693,2.5693,2.5693,2.5693,2.5693,1.0772,1.0831,1.0623,0.9922,1.0073,1.0374,1.0236,1.0658,1.1273,0.0,1.2458,1.2861,1.3211,1.2564,1.2299,1.3278,1.4557,1.6333,1.8863,1.9561,2.0249,2.1365,2.0859,2.0097,1.9475,1.943,1.943,1.943,1.943,1.943,1.943,1.943,1.943,1.943,1.943,1.943,1.943,1.943,1.943,1.943,1.943,1.943,1.943,1.943,1.943,1.943,1.9996,2.0658,2.1415,2.1998,2.2677,2.3487,2.4172,2.5058,2.5991,2.6699,2.753,2.8301,2.8301,2.8301,2.8301,2.8301,2.8301,2.8301,2.8301,2.8301,2.8301,2.8301,2.8301,2.8301,2.8301,2.8301,2.8301,2.8301,2.8301,2.8301,2.8301,2.8301,2.8301,2.8301,2.8242,2.8086,2.7787,2.791,2.7969,2.7617,2.7871,2.8086,2.8086,2.7734,2.7305,2.6855,2.6504,2.6269,2.6191,2.625,2.6445,2.6797,2.6083,2.5693,2.5693,2.5693,2.5693,2.5693,2.5693,2.5693,2.5693,2.5693,2.5693,2.5693,2.5693,2.5693,1.1371,1.1471,1.1509,1.1212,1.0975,1.0866,1.1011,1.1674,1.2426,1.3113,1.3635,1.4014,1.4319,1.3607,1.3284,1.4294,1.5835,1.7575,1.9574,2.0121,2.0609,2.1511,2.0931,2.0213,1.9488,1.943,1.943,1.943,1.943,1.943,1.943,1.943,1.943,1.943,1.943,1.943,1.943,1.943,1.943,1.943,1.9533,1.9707,1.988,2.004,2.0213,2.0385,2.1174,2.19,2.262,2.3424,2.415,2.4872,2.5461,2.6063,2.6681,2.7422,2.796,2.8301,2.8301,2.8301,2.8301,2.8301,2.8301,2.8301,2.8301,2.8301,2.8301,2.8301,2.8301,2.8301,2.8301,2.8301,2.8301,2.8301,2.8301,2.8301,2.8301,2.8301,2.8301,2.8301,2.8301,2.8223,2.8047,2.8164,2.8223,2.8027,2.8164,2.8301,2.8301,2.793,2.765,2.7383,2.6973,2.6719,2.6719,2.6719,2.6719,2.668,2.6309,2.5977,2.5693,2.5693,2.5693,2.5693,2.5693,2.5693,2.5693,2.5693,2.5693,2.5693,2.5693,2.5693,1.2,1.2074,1.223,1.2455,1.1934,1.1478,1.1973,1.2806,1.371,1.4324,1.4951,1.5433,1.5546,1.5036,1.4794,1.545,1.6751,1.8275,2.0039,2.042,2.0828,2.1511,2.1159,2.0558,1.988,1.9764,1.9707,1.9591,1.9533,1.9488,1.943,1.9475,1.9533,1.9591,1.9649,1.9764,1.9822,1.9822,1.9649,1.943,1.9764,2.0155,2.0601,2.0945,2.1388,2.1843,2.2677,2.3407,2.4078,2.4927,2.5734,2.6336,2.6754,2.7079,2.7368,2.8067,2.8301,2.8301,2.8301,2.8301,2.8301,2.8301,2.8301,2.8301,2.8301,2.8301,2.8301,2.8301,2.8301,2.8301,2.8301,2.8301,2.8301,2.8301,2.8301,2.8301,2.8301,2.8301,2.8301,2.8301,2.8301,2.8301,2.8301,2.8301,2.8301,2.8301,2.8301,2.8301,2.8301,2.8008,2.7826,2.7728,2.7363,2.7168,2.7168,2.7266,2.7129,2.6719,2.6504,2.625,2.5898,2.5752,2.5693,2.5693,2.5693,2.5693,2.5693,2.5693,2.5693,2.5693,2.5693,2.5693,1.2877,1.2779,1.2783,1.3288,1.29,1.2589,1.3267,1.4271,1.518,1.5739,1.6517,1.7161,1.7309,1.7235,1.7137,1.723,1.7804,1.8678,2.0001,2.0234,2.0567,2.1484,2.136,2.1146,2.106,2.0773,2.0486,2.027,1.9924,1.9649,1.9417,1.9649,1.9924,2.0213,2.05,2.0773,2.106,2.106,2.05,1.943,1.9996,2.0716,2.1529,2.2112,2.2846,2.3654,2.4283,2.5058,2.5936,2.6591,2.7368,2.814,2.8174,2.8194,2.8194,2.8301,2.8301,2.8301,2.8301,2.8301,2.8301,2.8301,2.8301,2.8301,2.8301,2.8301,2.8301,2.8301,2.8301,2.8301,2.8301,2.8301,2.8301,2.8301,2.8301,2.8301,2.8301,2.8301,2.8301,2.8301,2.8301,2.8301,2.8301,2.8301,2.8301,2.8301,2.8301,2.8301,2.8301,2.8262,2.8105,2.7767,2.7689,2.7669,2.7669,2.7969,2.8027,2.765,2.6836,2.6367,2.6348,2.5957,2.5693,2.5693,2.5693,2.5693,2.5693,2.5693,2.5693,2.5693,2.5693,2.5693,1.2844,1.2805,1.296,1.3843,1.4107,1.423,1.4474,1.5073,1.5868,1.6941,1.7888,1.8527,1.8671,1.9044,1.9251,1.9002,1.9437,1.9964,2.033,2.0624,2.1011,2.1541,2.1843,2.224,2.2774,2.2394,2.1843,2.1145,2.0658,2.0097,1.9417,1.988,2.0429,2.1102,2.1559,2.2112,2.283,2.283,2.2605,2.2096,2.1843,2.207,2.2733,2.3536,2.4317,2.4982,2.5588,2.6136,2.6681,2.7295,2.7853,2.8301,2.8301,2.8301,2.8301,2.8301,2.8301,2.8301,2.8301,2.8301,2.8301,2.8301,2.8301,2.8301,2.8301,2.8301,2.8301,2.8301,2.8301,2.8301,2.8301,2.8301,2.8301,2.8301,2.8301,2.8301,2.8301,2.8301,2.8301,2.8301,2.8301,2.8301,2.8301,2.8301,2.8301,2.8301,2.8301,2.8301,2.8301,2.8301,2.8223,2.8066,2.8047,2.8047,2.8047,2.8203,2.8223,2.8066,2.75,2.707,2.6797,2.6621,2.6523,2.6523,2.6523,2.6523,2.6523,2.6523,2.6523,2.6523,2.6523,2.6523,1.2774,1.2788,1.3096,1.425,1.5001,1.5649,1.6297,1.6649,1.7199,1.8466,1.9377,2.0009,2.0201,2.0497,2.0682,2.064,2.085,2.1014,2.1087,2.1425,2.1788,2.2107,2.2789,2.3487,2.4115,2.3634,2.2752,2.1623,2.1021,2.0316,1.9421,2.0245,2.1126,2.1999,2.2798,2.3575,2.4394,2.4411,2.4411,2.4394,2.3966,2.3911,2.43,2.5093,2.5881,2.6554,2.6916,2.7187,2.7422,2.7853,2.8121,2.8301,2.8301,2.8301,2.8301,2.8301,2.8301,2.8301,2.8301,2.8301,2.8301,2.8301,2.8301,2.8301,2.8301,2.8301,2.8301,2.8301,2.8301,2.8301,2.8301,2.8301,2.8301,2.8301,2.8301,2.8301,2.8301,2.8301,2.8301,2.8301,2.8301,2.8301,2.8301,2.8301,2.8301,2.8301,2.8301,2.8301,2.8301,2.8301,2.8301,2.8301,2.8301,2.8301,2.8301,2.8301,2.8301,2.8301,2.8027,2.7676,2.7246,2.709,2.7012,2.7012,2.7012,2.7012,2.7012,2.7012,2.7012,2.7012,2.7012,2.7012,1.2915,1.2915,1.3228,1.452,1.5478,1.6682,1.8823,1.9214,1.9368,2.0333,2.1058,2.1646,2.2038,2.1558,2.1379,2.2113,2.1804,2.1641,2.2213,2.2638,2.2954,2.3382,2.4261,2.4844,2.504,2.4267,2.314,2.1549,2.09,2.0223,1.9346,2.0777,2.2009,2.2889,2.4132,2.511,2.5734,2.5734,2.5734,2.5734,2.6263,2.6354,2.6155,2.6754,2.7476,2.8301,2.8301,2.8301,2.8301,2.8301,2.8301,2.8301,2.8301,2.8301,2.8301,2.8301,2.8301,2.8301,2.8301,2.8301,2.8301,2.8301,2.8301,2.8301,2.8301,2.8301,2.8301,2.8301,2.8301,2.8301,2.8301,2.8301,2.8301,2.8301,2.8301,2.8301,2.8301,2.8301,2.8301,2.8301,2.8301,2.8301,2.8301,2.8301,2.8301,2.8301,2.8301,2.8301,2.8301,2.8301,2.8301,2.8301,2.8301,2.8301,2.8301,2.8301,2.8301,2.8301,2.8301,2.8105,2.7748,2.7266,2.7031,2.7031,2.7031,2.7031,2.7031,2.7031,2.7031,2.7031,2.7031,2.7031,1.3242,1.3535,1.4114,1.5732,1.7246,1.8776,2.0445,2.0466,2.0598,2.2369,2.2997,2.3317,2.3652,2.3563,2.3511,2.3708,2.3831,2.3777,2.3581,2.3931,2.4246,2.4402,2.4987,2.5708,2.6361,2.5475,2.4139,2.2445,2.1818,2.1117,2.0179,2.1372,2.2884,2.4576,2.5433,2.6422,2.753,2.753,2.753,2.753,2.7691,2.7403,2.6754,2.7349,2.7853,2.8301,2.8301,2.8301,2.8301,2.8301,2.8301,2.8301,2.8301,2.8301,2.8301,2.8301,2.8301,2.8301,2.8301,2.8301,2.8301,2.8301,2.8301,2.8301,2.8301,2.8301,2.8301,2.8301,2.8301,2.8301,2.8301,2.8301,2.8301,2.8301,2.8301,2.8301,2.8301,2.8301,2.8301,2.8301,2.8301,2.8301,2.8301,2.8301,2.8301,2.8301,2.8301,2.8301,2.8301,2.8301,2.8301,2.8301,2.8301,2.8301,2.8301,2.8301,2.8301,2.8301,2.8301,2.8242,2.8105,2.7988,2.791,2.791,2.791,2.791,2.791,2.791,2.791,2.791,2.791,2.791,1.3555,1.4036,1.4816,1.6726,1.8535,2.0352,2.2465,2.2434,2.24,2.3724,2.4145,2.4317,2.4633,2.4531,2.4473,2.4648,2.4737,2.4737,2.4509,2.482,2.5091,2.5133,2.5707,2.6218,2.6727,2.5843,2.4551,2.2753,2.23,2.1776,2.0863,2.2168,2.3669,2.5261,2.602,2.6893,2.7773,2.7793,2.7793,2.7793,2.7949,2.7781,2.7302,2.7829,2.8121,2.8301,2.8301,2.8301,2.8301,2.8301,2.8301,2.8301,2.8301,2.8301,2.8301,2.8301,2.8301,2.8301,2.8301,2.8301,2.8301,2.8301,2.8301,2.8301,2.8301,2.8301,2.8301,2.8301,2.8301,2.8301,2.8301,2.8301,2.8301,2.8301,2.8301,2.8301,2.8301,2.8301,2.8301,2.8301,2.8301,2.8301,2.8301,2.8301,2.8301,2.8301,2.8301,2.8301,2.8301,2.8301,2.8301,2.8301,2.8301,2.8301,2.8301,2.8301,2.8301,2.8301,2.8301,2.8301,2.8301,2.8301,2.8301,2.8301,2.8301,2.8301,2.8301,2.8301,2.8301,2.8301,2.8301,2.8301,1.3802,1.4531,1.541,1.7578,1.9512,2.1642,2.4519,2.4756,2.4438,2.4553,2.4687,2.487,2.5137,2.4805,2.4668,2.5106,2.4946,2.4832,2.5058,2.5321,2.5572,2.5713,2.618,2.6485,2.6367,2.561,2.4469,2.2719,2.2619,2.2266,2.154,2.3081,2.438,2.5264,2.613,2.6717,2.7012,2.7012,2.7012,2.7031,2.7422,2.7669,2.7728,2.8105,2.8301,2.8301,2.8301,2.8301,2.8301,2.8301,2.8301,2.8301,2.8301,2.8301,2.8301,2.8301,2.8301,2.8301,2.8301,2.8301,2.8301,2.8301,2.8301,2.8301,2.8301,2.8301,2.8301,2.8301,2.8301,2.8301,2.8301,2.8301,2.8301,2.8301,2.8301,2.8301,2.8301,2.8301,2.8301,2.834,2.834,2.8359,2.8398,2.8418,2.8418,2.8418,2.8418,2.8418,2.8418,2.8418,2.8418,2.8418,2.8418,2.8418,2.8418,2.8418,2.8398,2.8359,2.834,2.834,2.8301,2.8301,2.8301,2.8301,2.8301,2.8301,2.8301,2.8301,2.8301,2.8301,2.8301,2.8301,1.4199,1.5224,1.6339,1.8477,2.1074,2.3535,2.5215,2.5509,2.5431,2.5411,2.547,2.5509,2.5538,2.546,2.544,2.5538,2.5509,2.5518,2.5546,2.5615,2.5653,2.5701,2.5819,2.5878,2.583,2.532,2.4523,2.3502,2.347,2.337,2.3185,2.394,2.4908,2.6118,2.6315,2.6629,2.7012,2.7012,2.7012,2.7012,2.7109,2.7324,2.7728,2.8105,2.8301,2.8301,2.8301,2.8301,2.8301,2.8301,2.8301,2.8301,2.8301,2.8301,2.8301,2.8301,2.8301,2.8301,2.8301,2.8301,2.8301,2.8301,2.8301,2.8301,2.8301,2.8301,2.8301,2.8301,2.8301,2.8301,2.8301,2.8301,2.8301,2.8301,2.8301,2.8301,2.8301,2.8301,2.8398,2.8711,2.8789,2.8887,2.9238,2.9297,2.9297,2.9297,2.9297,2.9297,2.9297,2.9297,2.9297,2.9297,2.9297,2.9297,2.9297,2.9297,2.9141,2.8809,2.8789,2.8633,2.8301,2.8301,2.8301,2.8301,2.8301,2.8301,2.8301,2.8301,2.8301,2.8301,2.8301,2.8301,1.4512,1.5723,1.7109,2.0078,2.248,2.4316,2.5215,2.5586,2.5693,2.5693,2.5693,2.5693,2.5693,2.5693,2.5693,2.5693,2.5693,2.5693,2.5693,2.5693,2.5693,2.5693,2.5693,2.5693,2.5693,2.5333,2.4824,2.4115,2.4214,2.4233,2.4115,2.4578,2.5233,2.6025,2.6074,2.6191,2.6406,2.6356,2.6356,2.6356,2.6621,2.7051,2.7728,2.8105,2.8301,2.8301,2.8301,2.8301,2.8301,2.8301,2.8301,2.8301,2.8301,2.8301,2.8301,2.8301,2.8301,2.8301,2.8301,2.8301,2.8301,2.8301,2.8301,2.8301,2.8301,2.8301,2.8301,2.8301,2.8301,2.8301,2.8301,2.8301,2.834,2.8535,2.8437,2.8301,2.8301,2.8457,2.8652,2.8887,2.9082,2.9297,2.9587,2.9626,2.9626,2.9626,2.9626,2.9626,2.9626,2.9626,2.9626,2.9626,2.9626,2.9626,2.9626,2.9626,2.9473,2.9238,2.9043,2.8828,2.8594,2.8398,2.8301,2.8301,2.8301,2.8301,2.8301,2.8301,2.8301,2.8301,2.8301,2.8301,1.4531,1.618,1.8091,2.1641,2.3477,2.4531,2.4961,2.541,2.5693,2.5693,2.5693,2.5693,2.5693,2.5693,2.5693,2.5693,2.5693,2.5693,2.5693,2.5693,2.5693,2.5693,2.5693,2.5693,2.5693,2.5479,2.5186,2.4726,2.4922,2.4941,2.4726,2.5137,2.5479,2.5693,2.5693,2.5693,2.5693,2.5693,2.5693,2.5693,2.6191,2.6758,2.7513,2.7969,2.8223,2.8301,2.8301,2.8301,2.8301,2.8301,2.8301,2.8301,2.8301,2.8301,2.8301,2.8301,2.8301,2.8301,2.8301,2.8301,2.8301,2.8301,2.8301,2.8301,2.8301,2.8301,2.8301,2.8301,2.8301,2.8301,2.8301,2.834,2.8496,2.8828,2.8711,2.8516,2.8516,2.8789,2.9062,2.9121,2.9492,2.9805,2.9805,2.9805,2.9805,2.9805,2.9805,2.9805,2.9805,2.9805,2.9805,2.9805,2.9805,2.9805,2.9805,2.9805,2.9766,2.9687,2.9336,2.9101,2.9043,2.8691,2.8516,2.8516,2.8359,2.8301,2.8301,2.8301,2.8301,2.8301,2.8301,2.8301,1.3782,0.0,1.998,0.0,2.3477,2.4531,2.4961,2.541,2.5693,2.5693,2.5693,2.5693,2.5693,2.5693,2.5693,2.5693,2.5693,2.5693,2.5693,2.5693,2.5693,2.5693,2.5693,2.5693,2.5693,2.5693,2.5645,2.5547,2.5577,2.5596,2.5528,2.5596,2.5645,2.5693,2.5693,2.5693,2.5693,2.5693,2.5693,2.5693,2.6191,2.6445,2.6582,2.7383,2.7949,2.8301,2.8301,2.8301,2.8301,2.8301,2.8301,2.8301,2.8301,2.8301,2.8301,2.8301,2.8301,2.8301,2.8301,2.8301,2.8301,2.8301,2.8301,2.8301,2.8301,2.8301,2.8301,2.8301,2.8301,2.8301,2.8301,2.8555,2.8848,2.8906,2.916,2.945,2.945,2.9434,2.959,2.9961,3.041,3.0723,3.0723,3.0723,3.0723,3.0723,3.0723,3.0723,3.0723,3.0723,3.0723,3.0723,3.0723,3.0723,3.0723,3.0723,3.0547,3.0137,3.0059,2.9863,2.9492,2.9434,2.945,2.945,2.8672,2.8301,2.8301,2.8301,2.8301,2.8301,2.8301,2.8301,1.4492,1.7519,2.0273,0.0,2.3125,2.4121,2.4297,2.4687,2.4953,2.4953,2.5195,2.5449,2.5635,2.5693,2.5693,2.5693,2.5693,2.5693,2.5693,2.5693,2.5693,2.5693,2.5693,2.5693,2.5693,2.5693,2.5693,2.5693,2.5693,2.5693,2.5693,2.5693,2.5693,2.5693,2.5693,2.5693,2.5693,2.5693,2.5693,2.5693,2.5937,2.6152,2.6406,2.6777,2.7305,2.7949,2.8184,2.8301,2.8301,2.8301,2.8301,2.8301,2.8301,2.8301,2.8301,2.8301,2.8301,2.8301,2.8301,2.8301,2.8301,2.8301,2.8301,2.8301,2.8301,2.8301,2.834,2.8574,2.8652,2.8691,2.8945,2.9141,2.9336,2.957,2.9785,3.0,3.0254,3.0098,3.0059,3.0508,3.0762,3.0898,3.0898,3.0898,3.0898,3.0898,3.0898,3.0898,3.0898,3.0898,3.0898,3.0898,3.0898,3.0898,3.0898,3.0898,3.0801,3.0605,3.0351,3.0117,2.9922,2.9687,2.9626,2.9626,2.9199,2.9004,2.9004,2.9004,2.8887,2.8652,2.8652,2.8516,1.495,0.0,1.959,2.0898,2.2266,2.334,2.3437,2.3867,2.4277,2.4394,2.4766,2.5176,2.5508,2.5615,2.5693,2.5693,2.5693,2.5693,2.5693,2.5693,2.5693,2.5693,2.5693,2.5693,2.5693,2.5693,2.5693,2.5693,2.5693,2.5693,2.5693,2.5693,2.5693,2.5693,2.5693,2.5693,2.5693,2.5693,2.5693,2.5693,2.5693,2.5849,2.623,2.6328,2.6738,2.7415,2.7793,2.8027,2.8125,2.8125,2.8203,2.8301,2.8301,2.8301,2.8301,2.8301,2.8301,2.8301,2.8301,2.8301,2.8301,2.8301,2.8301,2.8301,2.8301,2.8301,2.8379,2.8809,2.8926,2.9023,2.9453,2.9704,2.9805,3.0117,3.0293,3.0469,3.082,3.0625,3.0469,3.082,3.0898,3.0898,3.0898,3.0898,3.0898,3.0898,3.0898,3.0898,3.0898,3.0898,3.0898,3.0898,3.0898,3.0898,3.0898,3.0898,3.0898,3.0898,3.0566,3.0371,3.0371,3.0078,2.9902,2.9902,2.9902,2.9785,2.9626,2.9626,2.9394,2.9082,2.8965,2.875,1.4355,1.6183,0.0,1.9102,2.0723,2.209,2.248,2.3223,2.3945,2.4336,2.4766,2.5125,2.5145,2.5449,2.5693,2.5693,2.5693,2.5693,2.5693,2.5693,2.5693,2.5693,2.5693,2.5693,2.5693,2.5693,2.5693,2.5693,2.5693,2.5693,2.5693,2.5693,2.5693,2.5693,2.5693,2.5693,2.5693,2.5693,2.5693,2.5693,2.5693,2.5693,2.5732,2.6191,2.6406,2.6484,2.6894,2.7324,2.7748,2.7748,2.793,2.8301,2.8301,2.8301,2.8301,2.8301,2.8301,2.8301,2.8301,2.8301,2.8301,2.8301,2.8301,2.8301,2.8301,2.8301,2.8379,2.8809,2.8926,2.9023,2.9453,2.9863,3.0176,3.0195,3.0527,3.0859,3.0879,3.0879,3.0859,3.0879,3.0898,3.0898,3.0898,3.0898,3.0898,3.0898,3.0898,3.0898,3.0898,3.0898,3.0898,3.0898,3.0898,3.0898,3.0898,3.0898,3.0898,3.0898,3.0859,3.0859,3.0859,3.084,3.082,3.082,3.082,3.041,2.9626,2.9626,2.9607,2.9531,2.9121,2.8906,1.3267,0.0,0.0,1.7383,1.8945,2.0332,2.0742,2.1738,2.2695,2.3105,2.375,2.4258,2.4258,2.5059,2.5693,2.5693,2.5693,2.5693,2.5693,2.5693,2.5693,2.5693,2.5693,2.5693,2.5693,2.5693,2.5693,2.5693,2.5693,2.5693,2.5693,2.5693,2.5693,2.5693,2.5693,2.5693,2.5693,2.5693,2.5693,2.5693,2.5693,2.5693,2.5693,2.5849,2.5977,2.5977,2.6083,2.6602,2.7266,2.7611,2.7754,2.791,2.8184,2.8301,2.8301,2.8301,2.8301,2.8301,2.8301,2.8301,2.8301,2.8301,2.8301,2.8301,2.8301,2.8301,2.8437,2.9141,2.9336,2.9512,3.0234,3.0527,3.0644,3.0644,3.0762,3.0898,3.0898,3.0898,3.0898,3.0898,3.0898,3.0898,3.0898,3.0898,3.0898,3.0898,3.0898,3.0898,3.0898,3.0898,3.0898,3.0898,3.0898,3.0898,3.0898,3.0898,3.0898,3.0898,3.0898,3.0898,3.0898,3.0898,3.0898,3.0898,3.0898,3.0742,3.041,3.041,3.0273,2.9961,2.9805,2.959,1.225,1.3477,0.0,0.0,1.7051,1.8398,1.9121,2.0293,2.1426,2.2148,2.2988,2.3633,2.3769,2.4609,2.5245,2.5245,2.5245,2.5245,2.5245,2.5245,2.5245,2.5245,2.5382,2.5508,2.5508,2.5596,2.5693,2.5693,2.5693,2.5693,2.5693,2.5693,2.5693,2.5693,2.5693,2.5693,2.5693,2.5693,2.5693,2.5693,2.5693,2.5693,2.5693,2.5693,2.5693,2.5693,2.5898,2.6367,2.7031,2.7324,2.7617,2.791,2.8184,2.8301,2.8301,2.8301,2.8301,2.8301,2.8301,2.8301,2.8301,2.8301,2.8301,2.8301,2.8301,2.8398,2.8652,2.9375,2.9668,2.9961,3.0703,3.0898,3.0898,3.0898,3.0898,3.0898,3.0898,3.0898,3.0898,3.0898,3.0898,3.0898,3.0898,3.0898,3.0898,3.0898,3.0898,3.0898,3.0898,3.0898,3.0898,3.0898,3.0898,3.0898,3.0898,3.0898,3.0898,3.0898,3.0898,3.0898,3.0898,3.0898,3.0898,3.0898,3.0898,3.0898,3.0898,3.0898,3.0742,3.043,3.0273,2.9961,0.0,0.0,0.0,0.0,1.5019,1.6359,1.7598,1.8906,2.0234,2.1543,2.2562,2.3306,2.3672,2.4102,2.4375,2.4375,2.4394,2.4414,2.4414,2.4414,2.4414,2.4414,2.4785,2.5106,2.5106,2.5469,2.5674,2.5693,2.5693,2.5693,2.5693,2.5693,2.5693,2.5693,2.5693,2.5693,2.5693,2.5693,2.5693,2.5693,2.5693,2.5693,2.5693,2.5693,2.5693,2.5713,2.6191,2.6621,2.7012,2.7031,2.7519,2.8281,2.8281,2.8301,2.8301,2.8301,2.8301,2.8301,2.8301,2.8301,2.8301,2.8301,2.8301,2.8301,2.8301,2.8594,2.9004,2.9453,2.9883,3.0312,3.0762,3.0898,3.0898,3.0898,3.0898,3.0898,3.0898,3.0898,3.0898,3.0898,3.0898,3.0898,3.0898,3.0898,3.0898,3.0898,3.0898,3.0898,3.0898,3.0898,3.0898,3.0898,3.0898,3.0898,3.0898,3.0898,3.0898,3.0898,3.0898,3.0898,3.0898,3.0898,3.0898,3.0898,3.0898,3.0898,3.0898,3.0898,3.0898,3.0879,3.043,3.0,1.1567,0.0,0.0,0.0,0.0,0.0,1.503,1.6902,1.8809,1.9805,2.1191,2.2363,2.2793,2.3203,2.3452,2.3452,2.4004,2.4414,2.4414,2.4414,2.4414,2.4414,2.4531,2.4727,2.5086,2.5176,2.5391,2.5674,2.5693,2.5693,2.5693,2.5693,2.5693,2.5693,2.5693,2.5693,2.5693,2.5693,2.5693,2.5693,2.5693,2.5693,2.5693,2.5693,2.5693,2.5693,2.581,2.6278,2.7031,2.7363,2.7637,2.7871,2.8184,2.8301,2.8301,2.8301,2.8301,2.8301,2.8301,2.8301,2.8301,2.8301,2.8301,2.834,2.8652,2.8828,2.9062,2.9824,3.0098,3.0312,3.0762,3.0898,3.0898,3.0898,3.0898,3.0898,3.0898,3.0898,3.0898,3.0898,3.0898,3.0898,3.0898,3.0898,3.0898,3.0898,3.0898,3.0898,3.0898,3.0898,3.0898,3.0898,3.0898,3.0898,3.0898,3.0898,3.0898,3.0898,3.0898,3.0898,3.0898,3.0898,3.0898,3.0898,3.0898,3.0898,3.0898,3.0898,3.0898,3.0879,3.0762,3.0644,1.1606,1.1606,1.1606,1.1606,0.0,0.0,1.3743,1.5605,1.75,1.8535,1.9844,2.0977,2.1582,2.1894,2.207,2.207,2.2594,2.3237,2.3764,2.3842,2.3842,2.3842,2.4043,2.4258,2.4512,2.4687,2.4902,2.5128,2.5148,2.5254,2.5449,2.5449,2.5547,2.5674,2.5693,2.5693,2.5693,2.5693,2.5693,2.5693,2.5693,2.5693,2.5693,2.5693,2.5693,2.5693,2.5937,2.6289,2.6797,2.7422,2.7826,2.7949,2.8203,2.8301,2.8301,2.8301,2.8301,2.8301,2.8301,2.8301,2.8301,2.8301,2.8301,2.8379,2.8789,2.9043,2.9336,3.0,3.0332,3.0547,3.082,3.0898,3.0898,3.0898,3.0898,3.0898,3.0898,3.0898,3.0898,3.0898,3.0898,3.0898,3.0898,3.0898,3.0898,3.0898,3.0898,3.0898,3.0898,3.1055,3.1152,3.1152,3.1309,3.1426,3.1426,3.1426,3.1348,3.1172,3.1152,3.1074,3.0898,3.0898,3.0898,3.0898,3.0898,3.0898,3.0898,3.0898,3.0898,3.0898,3.0898,3.0898,1.1878,1.18,0.0,1.1721,1.2289,0.0,1.3281,1.4648,1.6222,1.7402,1.8379,1.9258,2.0096,2.0292,2.0312,2.0312,2.0703,2.1444,2.2769,2.3003,2.3042,2.3081,2.3477,2.373,2.3789,2.4121,2.4355,2.4414,2.4414,2.459,2.5028,2.5086,2.5254,2.5596,2.5654,2.5693,2.5693,2.5693,2.5693,2.5693,2.5693,2.5693,2.5693,2.5693,2.5693,2.5713,2.6152,2.6348,2.6445,2.7266,2.7832,2.8223,2.8281,2.8301,2.8301,2.8301,2.8301,2.8301,2.8301,2.8301,2.8301,2.8301,2.8301,2.8379,2.8848,2.9258,2.9668,3.0137,3.0566,3.0898,3.0898,3.0898,3.0898,3.0898,3.0898,3.0898,3.0898,3.0898,3.0898,3.0898,3.0898,3.0898,3.0898,3.0898,3.0898,3.0898,3.0898,3.0898,3.0898,3.125,3.1523,3.1523,3.1914,3.2148,3.215,3.209,3.1914,3.1465,3.1445,3.1269,3.0898,3.0898,3.0898,3.0898,3.0898,3.0898,3.0898,3.0898,3.0898,3.0898,3.0898,3.0898,1.3607,1.3145,1.2641,1.2641,1.248,0.0,1.2437,1.351,1.4687,1.5293,1.6387,1.735,1.791,1.8281,1.8516,1.8516,1.916,2.0234,2.1894,2.2422,2.2754,2.3062,2.3179,2.3354,2.375,2.3867,2.4043,2.4394,2.4414,2.4453,2.4531,2.4883,2.5165,2.5195,2.5547,2.5693,2.5693,2.5693,2.5693,2.5693,2.5693,2.5693,2.5693,2.5693,2.5693,2.5693,2.5771,2.6055,2.6426,2.6934,2.7402,2.7865,2.8164,2.8301,2.8301,2.8301,2.8301,2.8301,2.8301,2.8301,2.8301,2.8301,2.8301,2.8437,2.9219,2.9512,2.9726,3.0527,3.082,3.0898,3.0898,3.0898,3.0898,3.0898,3.0898,3.0898,3.0898,3.0898,3.0898,3.0898,3.0898,3.0898,3.0898,3.0898,3.0898,3.0898,3.0898,3.0898,3.0898,3.125,3.1523,3.1523,3.1914,3.2031,3.168,3.1641,3.1465,3.1035,3.1016,3.0976,3.0898,3.0898,3.0898,3.0898,3.0898,3.0898,3.0898,3.0898,3.0898,3.0898,3.0898,3.0898,1.4738,1.4316,1.373,1.3301,1.3027,0.0,0.0,1.3022,1.3919,1.4375,1.5156,1.5898,1.6328,1.6582,1.6719,1.6719,1.7441,1.8477,1.9766,2.1055,2.199,2.2461,2.2695,2.2867,2.3125,2.334,2.3555,2.3769,2.3725,2.3867,2.4102,2.4316,2.4675,2.5106,2.5293,2.5508,2.5693,2.5693,2.5693,2.5693,2.5693,2.5693,2.5693,2.5693,2.5693,2.5693,2.5693,2.581,2.6113,2.6758,2.7148,2.7402,2.8047,2.8301,2.8301,2.8301,2.8301,2.8301,2.8301,2.8301,2.8301,2.8301,2.8301,2.8457,2.9372,2.9883,3.0332,3.0762,3.0898,3.0898,3.0898,3.0898,3.0898,3.0898,3.0898,3.0898,3.0898,3.0898,3.0898,3.0898,3.0898,3.0898,3.0898,3.0898,3.0898,3.0898,3.1074,3.1211,3.1211,3.1758,3.2148,3.2148,3.2539,3.2617,3.2187,3.2148,3.1894,3.125,3.1211,3.1113,3.0898,3.0898,3.0898,3.0898,3.0898,3.0898,3.0898,3.0898,3.0898,3.0898,3.0898,3.0898,1.5664,1.5293,1.4727,1.3945,1.3633,1.3301,0.0,0.0,0.0,1.3802,1.418,1.4531,1.4863,1.4922,1.4922,1.4922,1.5634,1.6473,1.7285,1.9043,2.0586,2.1523,2.2012,2.2305,2.2383,2.2695,2.2847,2.2847,2.2847,2.3086,2.3516,2.3711,2.4141,2.4922,2.5067,2.5293,2.5693,2.5693,2.5693,2.5693,2.5693,2.5693,2.5693,2.5693,2.5693,2.5693,2.5693,2.5693,2.5752,2.666,2.7012,2.7109,2.7949,2.8301,2.8301,2.8301,2.8301,2.8301,2.8301,2.8301,2.8301,2.8301,2.8398,2.8672,2.9411,3.0195,3.0898,3.0898,3.0898,3.0898,3.0898,3.0898,3.0898,3.0898,3.0898,3.0898,3.0898,3.0898,3.0898,3.0898,3.0898,3.0898,3.0898,3.0898,3.0898,3.0898,3.125,3.1523,3.1523,3.2266,3.2793,3.2793,3.3164,3.3223,3.2715,3.2676,3.2305,3.1445,3.1406,3.125,3.0898,3.0898,3.0898,3.0898,3.0898,3.0898,3.0898,3.0898,3.0898,3.0898,3.0898,3.0898,1.6551,1.5946,1.5234,1.4766,1.4062,1.3379,1.291,0.0,1.2993,1.3032,0.0,1.313,1.3189,0.0,0.0,1.3164,1.3887,1.4582,1.5078,1.6046,1.769,2.0429,2.1113,2.1502,2.1914,2.1992,2.2031,2.2031,2.2031,2.2207,2.2637,2.3379,2.4004,2.4473,2.4863,2.5293,2.5693,2.5693,2.5693,2.5693,2.5693,2.5693,2.5693,2.5693,2.5693,2.5693,2.5693,2.5693,2.5752,2.666,2.7012,2.7109,2.7949,2.8301,2.8301,2.8301,2.8301,2.8301,2.8301,2.8301,2.8301,2.8301,2.8809,2.9434,2.9607,3.0195,3.0898,3.0898,3.0898,3.0898,3.0898,3.0898,3.0898,3.0898,3.0898,3.0898,3.0898,3.0898,3.0898,3.0898,3.0898,3.0898,3.0898,3.0898,3.0898,3.0898,3.125,3.1523,3.1523,3.2266,3.2793,3.2793,3.3164,3.3105,3.2305,3.2307,3.1875,3.1016,3.0957,3.0937,3.0898,3.0898,3.0898,3.0898,3.0898,3.0898,3.0898,3.0898,3.0898,3.0898,3.0898,3.0898,1.7798,1.6999,1.5985,1.5312,1.4484,1.3665,1.3027,1.3066,1.3242,1.3242,0.0,0.0,0.0,0.0,0.0,0.0,1.3535,1.3899,1.4328,1.4941,1.6105,1.8105,1.9124,2.006,2.1075,2.0898,2.084,2.1134,2.0879,2.1152,2.209,2.2715,2.3477,2.4394,2.459,2.5019,2.5674,2.5693,2.5693,2.5693,2.5693,2.5693,2.5693,2.5693,2.5693,2.5693,2.5693,2.5693,2.5752,2.666,2.7012,2.7109,2.7949,2.8301,2.8301,2.8301,2.8301,2.8301,2.8301,2.8301,2.834,2.8574,2.9062,2.9609,2.9863,3.0391,3.0898,3.0898,3.0898,3.0898,3.0898,3.0898,3.0898,3.0898,3.0898,3.0898,3.0898,3.0898,3.0898,3.0898,3.0898,3.0898,3.0898,3.1094,3.125,3.125,3.1836,3.2266,3.2266,3.2793,3.3164,3.3164,3.332,3.3184,3.2578,3.2539,3.2266,3.166,3.1641,3.1641,3.1641,3.1387,3.125,3.125,3.1016,3.0898,3.0898,3.0898,3.0898,3.0898,3.0898,3.0898,1.8637,1.7759,1.6629,1.5664,1.4738,1.388,1.3066,1.3203,1.3516,1.3516,1.3821,0.0,0.0,0.0,0.0,0.0,0.0,1.3437,1.3724,1.4062,1.4785,1.618,1.7584,1.8828,1.9766,1.957,1.9531,1.9881,1.9687,2.0137,2.1445,2.2148,2.3086,2.4375,2.4414,2.4844,2.5674,2.5693,2.5693,2.5693,2.5693,2.5693,2.5693,2.5693,2.5693,2.5693,2.5693,2.5752,2.5977,2.6719,2.709,2.7266,2.8008,2.8301,2.8301,2.8301,2.8301,2.8301,2.8301,2.8359,2.8516,2.8828,2.9297,2.9805,3.0098,3.0527,3.0898,3.0898,3.0898,3.0898,3.0898,3.0898,3.0898,3.0898,3.0898,3.0898,3.0898,3.0898,3.0898,3.0898,3.0898,3.0898,3.0898,3.1133,3.1387,3.1504,3.2148,3.2656,3.2773,3.3164,3.3418,3.3418,3.3418,3.3242,3.2832,3.2793,3.2617,3.2268,3.2229,3.2109,3.1992,3.168,3.1465,3.1348,3.1055,3.0898,3.0898,3.0898,3.0898,3.0898,3.0898,3.0898,1.8715,1.8008,1.7051,1.5742,1.4738,1.388,1.3066,1.3203,1.3516,1.3516,1.3821,1.4114,1.4114,0.0,0.0,0.0,0.0,0.0,0.0,1.2954,1.36,1.5225,1.6973,1.8047,1.8086,1.8086,1.8086,1.8086,1.8422,1.9238,2.0586,2.1816,2.3086,2.4375,2.4414,2.4844,2.5674,2.5693,2.5693,2.5693,2.5693,2.5693,2.5693,2.5693,2.5693,2.5693,2.5693,2.5977,2.6406,2.6836,2.7266,2.7748,2.8125,2.8301,2.8301,2.8301,2.8301,2.8301,2.8301,2.8555,2.8906,2.8906,2.9492,3.0176,3.0195,3.0527,3.0898,3.0898,3.0898,3.0898,3.0898,3.0898,3.0898,3.0898,3.0898,3.0898,3.0898,3.0898,3.0898,3.0898,3.0898,3.0898,3.0898,3.0898,3.1055,3.1445,3.1894,3.2344,3.2734,3.3164,3.3418,3.3418,3.3418,3.3242,3.2832,3.2793,3.2617,3.2268,3.2229,3.1973,3.1562,3.1523,3.1328,3.0918,3.0898,3.0898,3.0898,3.0898,3.0898,3.0898,3.0898,3.0898,1.9961,1.9082,1.7969,1.6973,1.6289,1.5517,1.4394,1.4715,1.5146,1.4824,1.5323,1.5829,1.5829,0.0,0.0,0.0,0.0,0.0,0.0,1.2915,1.3228,1.4043,1.5176,0.0,1.6269,1.6035,1.6113,1.6711,1.6887,1.7754,1.9666,2.0957,2.2383,2.3945,2.4277,2.4844,2.5674,2.5693,2.5693,2.5693,2.5693,2.5693,2.5693,2.5693,2.5693,2.5713,2.6055,2.625,2.6445,2.7148,2.7591,2.7767,2.8125,2.8301,2.8301,2.8301,2.8301,2.8301,2.8301,2.8574,2.8965,2.9258,2.9726,3.0254,3.0566,3.0762,3.0898,3.0898,3.0898,3.0898,3.0898,3.0898,3.0898,3.0898,3.0898,3.0898,3.0898,3.0898,3.0898,3.0898,3.0898,3.0898,3.0898,3.0898,3.1035,3.1445,3.2129,3.2637,3.2773,3.3164,3.3418,3.3418,3.3418,3.3359,3.3223,3.3203,3.3144,3.3008,3.2734,3.2519,3.2363,3.1816,3.1445,3.1309,3.1035,3.0898,3.0898,3.0898,3.0898,3.0898,3.0898,3.0898,2.084,2.0078,1.9121,1.8262,1.7617,1.6863,1.5742,1.6035,1.6437,1.5977,1.6551,1.7155,1.7155,0.0,0.0,0.0,0.0,0.0,0.0,1.2915,1.3013,1.3262,1.4043,0.0,0.0,1.4844,1.5048,1.5596,1.5909,1.6966,1.8945,2.0293,2.1855,2.373,2.4199,2.4844,2.5674,2.5693,2.5693,2.5693,2.5693,2.5693,2.5693,2.5693,2.5693,2.5713,2.6191,2.6465,2.666,2.7383,2.7806,2.791,2.8184,2.8301,2.8301,2.8301,2.8398,2.8516,2.8516,2.8887,2.9414,2.9707,3.0098,3.0508,3.0801,3.0898,3.0898,3.0898,3.0898,3.0898,3.0898,3.0898,3.0898,3.0898,3.0898,3.0898,3.0898,3.0898,3.0898,3.0898,3.0898,3.0898,3.0898,3.0898,3.1035,3.1445,3.1992,3.2402,3.2559,3.2812,3.3027,3.3184,3.3203,3.3262,3.3418,3.3418,3.3359,3.3203,3.2949,3.2656,3.2363,3.1816,3.1445,3.1289,3.1035,3.0898,3.0898,3.0898,3.0898,3.0898,3.0898,3.0898]}]]